[[[{"header":{"parameterUnit":"kt","parameterCategory":2,"dx":1,"dy":1,"la1":29.587661999999998,"la2":31.0,"lo1":-88.76705300000003,"lo2":-86.6583820000003,"nx":115,"ny":88,"refTime":"2022-10-11T12:00:00:Z","depth":0,"parameterNumber":1,"parameterNumberName":"U-component_of_WINDS"},"data":[-10.8378,-11.0535,-10.9469,-10.9859,-11.0988,-11.0211,-10.9428,-10.9023,-10.9505,-10.8962,-10.8422,-10.8574,-10.8868,-10.9418,-10.8748,-10.8775,-10.9642,-10.9111,-10.9845,-11.063,-10.8498,-10.7509,-10.6963,-10.6463,-10.4293,-10.387,-10.3889,-10.287,-10.1444,-10.0837,-10.0343,-9.9926,-9.9888,-10.0001,-10.0343,-10.2773,-10.4747,-10.6342,-10.8847,-11.1999,-11.3441,-11.5453,-11.7352,-11.7634,-11.8573,-11.6179,-11.4065,-11.2864,-11.0544,-10.775,-10.4289,-10.2133,-10.0303,-9.8354,-9.6666,-9.5626,-9.4899,-9.5479,-9.6202,-9.6886,-9.847,-9.9934,-10.065,-10.223,-10.4685,-10.6921,-10.817,-10.9918,-11.0988,-11.188,-11.1842,-11.1842,-11.2224,-11.1866,-11.1566,-11.0988,-11.0191,-10.9053,-10.796,-10.7097,-10.6012,-10.4644,-10.3552,-10.3471,-10.3425,-10.3425,-10.3425,-10.3425,-10.3425,-10.3425,-10.3425,-10.3425,-10.3425,-10.3425,-10.3425,-10.3425,-10.388,-10.4859,-10.5867,-10.7046,-10.7839,-10.8166,-10.8328,-10.8407,-10.8293,-10.8211,-10.8248,-10.8132,-10.8091,-10.8058,-10.8251,-10.8406,-10.8407,-10.8519,-10.8445,-10.8616,-11.1384,-11.1837,-11.154,-11.0728,-11.0936,-11.1011,-11.0915,-11.0602,-11.0263,-10.9951,-11.0144,-10.988,-10.9646,-10.9263,-10.8972,-10.8764,-10.8592,-10.8403,-10.867,-10.8182,-10.798,-10.7465,-10.6885,-10.6212,-10.5707,-10.5,-10.3428,-10.1876,-10.1862,-10.1444,-10.0153,-9.9888,-9.9926,-10.133,-10.3722,-10.6418,-10.7519,-10.9759,-11.3251,-11.6023,-11.8267,-11.7647,-11.6371,-11.5189,-11.3346,-11.1252,-10.9324,-10.7273,-10.4898,-10.2951,-10.2049,-10.103,-9.9533,-9.815,-9.724,-9.6491,-9.6881,-9.7584,-9.7612,-9.9077,-10.0595,-10.0928,-10.2471,-10.5102,-10.6814,-10.7742,-10.899,-11.0132,-11.0683,-11.0455,-11.0372,-11.0972,-11.1145,-11.0882,-11.0589,-10.9594,-10.8592,-10.7722,-10.6956,-10.5599,-10.3981,-10.3507,-10.3425,-10.3425,-10.3425,-10.3425,-10.3425,-10.3425,-10.3425,-10.3552,-10.3597,-10.3471,-10.3425,-10.3425,-10.3678,-10.4159,-10.5138,-10.6142,-10.7212,-10.8098,-10.8332,-10.8513,-10.8544,-10.8548,-10.848,-10.8517,-10.8444,-10.8548,-10.854,-10.8744,-10.8894,-10.8894,-10.8775,-10.8681,-10.7696,-10.9636,-11.0103,-10.9791,-10.924,-10.9464,-10.9594,-10.9695,-10.9789,-11.0142,-11.0599,-11.0943,-11.0987,-11.0712,-10.9773,-10.923,-10.9006,-10.8481,-10.8236,-10.8241,-10.8251,-10.8255,-10.8219,-10.7769,-10.7492,-10.7176,-10.6125,-10.4989,-10.3678,-10.3529,-10.3608,-10.2925,-10.171,-10.1406,-10.1558,-10.2241,-10.4216,-10.7481,-10.9645,-11.3062,-11.6782,-11.7441,-11.7199,-11.6777,-11.5267,-11.388,-11.1766,-10.9639,-10.7944,-10.6152,-10.3697,-10.3211,-10.1981,-10.0933,-9.9778,-9.8948,-9.8358,-9.7914,-9.8061,-9.8322,-9.8853,-10.0993,-10.2015,-10.3078,-10.5672,-10.8312,-10.9204,-10.8562,-10.9704,-10.9296,-10.8974,-10.9935,-11.0581,-11.0517,-11.0223,-11.0144,-10.9483,-10.8488,-10.7696,-10.6808,-10.5289,-10.388,-10.3425,-10.3425,-10.3425,-10.3425,-10.3425,-10.3425,-10.3425,-10.3425,-10.3722,-10.3844,-10.3633,-10.3507,-10.3597,-10.3964,-10.4534,-10.547,-10.6381,-10.7373,-10.8132,-10.8478,-10.873,-10.8827,-10.8827,-10.8707,-10.8643,-10.8675,-10.873,-10.8955,-10.914,-10.9326,-10.9185,-10.9055,-10.9102,-10.6751,-10.8237,-10.7888,-10.7498,-10.7073,-10.7093,-10.7305,-10.7643,-10.7898,-10.8409,-10.9491,-11.0275,-11.0675,-11.048,-10.9509,-10.885,-10.8484,-10.7758,-10.7975,-10.8166,-10.7642,-10.7612,-10.8132,-10.8139,-10.8173,-10.7914,-10.7429,-10.6488,-10.6061,-10.588,-10.5772,-10.4823,-10.4633,-10.3456,-10.3115,-10.4102,-10.5393,-10.8164,-10.9986,-11.2302,-11.623,-11.6914,-11.667,-11.6182,-11.5347,-11.3893,-11.1474,-10.9516,-10.8281,-10.7413,-10.5293,-10.3918,-10.2618,-10.257,-10.1702,-10.0623,-9.9912,-9.9815,-9.9479,-9.8568,-9.9369,-10.1236,-10.2715,-10.4215,-10.6457,-10.9311,-11.0417,-10.9454,-10.8805,-10.8066,-10.7932,-10.931,-11.0336,-10.993,-10.9509,-10.9546,-10.9559,-10.8688,-10.7819,-10.6515,-10.5039,-10.4159,-10.3597,-10.3425,-10.3425,-10.3425,-10.3507,-10.3678,-10.3722,-10.3765,-10.4123,-10.424,-10.3892,-10.3714,-10.3922,-10.4385,-10.5134,-10.5982,-10.6947,-10.7546,-10.8156,-10.8444,-10.87,-10.8875,-10.8993,-10.8856,-10.873,-10.8819,-10.8993,-10.9288,-10.9448,-10.9594,-10.952,-10.9455,-10.9531,-10.64,-10.8049,-10.6814,-10.5576,-10.4436,-10.4262,-10.4817,-10.6026,-10.4955,-10.5151,-10.663,-10.7972,-10.9084,-10.943,-10.8957,-10.8251,-10.7756,-10.7266,-10.7456,-10.8241,-10.7381,-10.7381,-10.8054,-10.8241,-10.8241,-10.8241,-10.8182,-10.8142,-10.8682,-10.8754,-10.7671,-10.5127,-10.6152,-10.6304,-10.5469,-10.6228,-10.7746,-10.9759,-11.1087,-11.2326,-11.5797,-11.6875,-11.6742,-11.5681,-11.4525,-11.3063,-11.0163,-10.7788,-10.5776,-10.4967,-10.4118,-10.3714,-10.3367,-10.3441,-10.4308,-10.3721,-10.2226,-10.1859,-10.097,-9.9261,-10.0104,-10.1437,-10.2256,-10.4546,-10.7648,-11.0738,-10.9311,-10.8134,-10.9612,-10.9261,-10.7723,-10.8372,-10.9028,-10.889,-10.87,-10.876,-10.8649,-10.806,-10.7181,-10.6306,-10.496,-10.4118,-10.3552,-10.3425,-10.3425,-10.3633,-10.3801,-10.4238,-10.4351,-10.4351,-10.4498,-10.46,-10.409,-10.3714,-10.4042,-10.4822,-10.5601,-10.6529,-10.748,-10.8124,-10.8236,-10.8445,-10.8669,-10.873,-10.879,-10.876,-10.8929,-10.9031,-10.9227,-10.9478,-10.973,-10.9894,-10.9948,-10.991,-10.9873,-10.5407,-10.6653,-10.5396,-10.3935,-10.2594,-10.1571,-10.042,-10.0253,-10.2713,-10.3624,-10.3945,-10.6779,-10.8374,-10.8526,-10.823,-10.7941,-10.7609,-10.7183,-10.7418,-10.8091,-10.7755,-10.7904,-10.8016,-10.8241,-10.8428,-10.8778,-10.9157,-10.9772,-10.9283,-10.9909,-11.0404,-10.805,-10.8468,-10.8506,-10.805,-10.8003,-10.9556,-11.1847,-11.3642,-11.4954,-11.6155,-11.6963,-11.5817,-11.4545,-11.3346,-11.1733,-10.957,-10.7287,-10.6295,-10.5946,-10.4059,-10.3633,-10.4096,-10.4687,-10.5545,-10.5408,-10.4285,-10.3791,-10.2411,-10.0512,-10.2153,-10.3916,-10.492,-10.6853,-10.9726,-11.1345,-10.924,-10.767,-10.9469,-11.0285,-10.8587,-10.7249,-10.7612,-10.7962,-10.7982,-10.806,-10.7677,-10.7272,-10.657,-10.5867,-10.5029,-10.4082,-10.3597,-10.3471,-10.3507,-10.3597,-10.3964,-10.4388,-10.4605,-10.457,-10.4675,-10.4843,-10.424,-10.388,-10.4497,-10.5098,-10.597,-10.6911,-10.7806,-10.8189,-10.8274,-10.8407,-10.8582,-10.8643,-10.8675,-10.8993,-10.9269,-10.9343,-10.9378,-10.9683,-10.9904,-10.9986,-11.0024,-11.0062,-10.9986,-10.4143,-10.528,-10.3876,-10.2551,-10.1553,-10.0536,-9.8445,-9.6764,-10.0988,-10.2544,-10.1539,-10.5231,-10.6555,-10.6952,-10.717,-10.7289,-10.7324,-10.7431,-10.7638,-10.775,-10.7493,-10.8203,-10.8727,-10.9175,-10.9475,-11.0166,-11.0954,-11.151,-11.0944,-11.1044,-11.1346,-11.0556,-11.0404,-11.0632,-10.991,-10.8728,-11.183,-11.4352,-11.5749,-11.6456,-11.6918,-11.7289,-11.5841,-11.4387,-11.3051,-11.0996,-10.9295,-10.7287,-10.6369,-10.6308,-10.4705,-10.4131,-10.4715,-10.539,-10.6167,-10.6222,-10.6005,-10.5446,-10.3217,-10.2636,-10.3665,-10.5777,-10.7355,-10.9772,-11.1494,-11.2023,-11.0382,-10.9169,-10.9454,-10.822,-10.6534,-10.7771,-10.9238,-10.8955,-10.8446,-10.8098,-10.7209,-10.6807,-10.623,-10.5566,-10.4993,-10.4123,-10.3552,-10.3425,-10.3425,-10.3678,-10.3928,-10.4352,-10.4569,-10.457,-10.464,-10.4851,-10.457,-10.446,-10.496,-10.562,-10.6503,-10.7222,-10.7808,-10.8274,-10.8286,-10.8368,-10.8517,-10.8551,-10.8481,-10.8885,-10.941,-10.9583,-10.9532,-10.9813,-10.9986,-11.0024,-11.0062,-11.0062,-10.9986,-10.2712,-10.3798,-10.2449,-10.1757,-10.1692,-10.145,-10.0064,-9.7906,-10.0605,-10.1044,-10.0075,-10.2792,-10.4191,-10.4068,-10.4533,-10.5421,-10.6068,-10.556,-10.6588,-10.7441,-10.7269,-10.8689,-10.9699,-11.0559,-11.112,-11.2413,-11.3317,-11.3409,-11.3653,-11.3513,-11.2308,-11.1277,-11.2378,-11.2758,-11.3062,-11.2821,-11.446,-11.6089,-11.724,-11.7381,-11.7782,-11.7882,-11.6569,-11.4996,-11.3098,-11.0854,-10.9384,-10.7913,-10.6851,-10.6127,-10.5358,-10.5126,-10.5149,-10.5499,-10.6271,-10.6729,-10.6608,-10.6267,-10.5183,-10.3909,-10.5229,-10.7957,-10.9649,-11.1062,-11.2321,-11.2676,-11.0455,-10.9153,-10.9719,-10.7411,-10.5839,-10.8374,-11.0684,-10.9538,-10.8792,-10.7752,-10.6815,-10.6055,-10.5548,-10.5113,-10.4533,-10.4162,-10.3517,-10.3425,-10.3425,-10.3597,-10.3808,-10.424,-10.4534,-10.4534,-10.4351,-10.4606,-10.4854,-10.489,-10.5556,-10.6234,-10.7031,-10.7687,-10.8199,-10.8241,-10.8241,-10.8286,-10.8406,-10.8406,-10.8326,-10.8553,-10.9102,-10.941,-10.9616,-10.9835,-11.0024,-11.0024,-10.991,-10.9948,-10.9947,-10.3504,-10.3931,-10.3405,-10.2616,-10.1761,-10.1695,-10.1827,-10.1991,-10.2583,-10.1159,-9.9594,-10.2049,-10.3124,-10.286,-10.3757,-10.5098,-10.5934,-10.6061,-10.7284,-10.7937,-10.7568,-10.8839,-11.0222,-11.12,-11.2241,-11.3318,-11.4278,-11.4822,-11.4393,-11.5099,-11.496,-11.4656,-11.5491,-11.534,-11.534,-11.5181,-11.6009,-11.7849,-11.8297,-11.8324,-11.876,-11.8545,-11.7481,-11.5939,-11.3658,-11.114,-11.0196,-10.9068,-10.8019,-10.7539,-10.6666,-10.5781,-10.5981,-10.6127,-10.6308,-10.7031,-10.7222,-10.7095,-10.6791,-10.5774,-10.7435,-10.9995,-11.2063,-11.2888,-11.2919,-11.3096,-11.0547,-10.9326,-11.0871,-10.9305,-10.8005,-11.0219,-11.0992,-10.8879,-10.7851,-10.6489,-10.5574,-10.4748,-10.421,-10.4131,-10.3686,-10.3642,-10.3425,-10.3353,-10.2925,-10.3231,-10.3499,-10.4046,-10.4497,-10.4123,-10.3887,-10.4276,-10.4642,-10.5061,-10.5747,-10.6671,-10.747,-10.8156,-10.8241,-10.8241,-10.8241,-10.8076,-10.8199,-10.8241,-10.8203,-10.8331,-10.8781,-10.9269,-10.9606,-10.9835,-10.9986,-10.991,-10.9797,-10.978,-10.9834,-10.403,-10.403,-10.403,-10.3405,-10.255,-10.2452,-10.3011,-10.3898,-10.3767,-10.1794,-9.9451,-10.1853,-10.2674,-10.1894,-10.2901,-10.4785,-10.5784,-10.6615,-10.7459,-10.8156,-10.8166,-10.9362,-11.0671,-11.1755,-11.2914,-11.4332,-11.598,-11.658,-11.5603,-11.6348,-11.7238,-11.7124,-11.6327,-11.7276,-11.7542,-11.7387,-11.6863,-11.8957,-11.953,-11.9481,-11.9817,-11.9021,-11.7936,-11.6776,-11.3836,-11.1937,-11.1125,-11.0441,-10.9336,-10.8369,-10.7957,-10.7003,-10.667,-10.704,-10.6933,-10.7068,-10.7787,-10.7768,-10.7755,-10.784,-10.9595,-11.104,-11.2181,-11.2131,-11.2869,-11.3101,-11.1027,-10.9174,-11.0085,-10.9533,-10.8509,-11.0227,-11.054,-10.8505,-10.7135,-10.5779,-10.4852,-10.3996,-10.3246,-10.3211,-10.3318,-10.3318,-10.264,-10.214,-10.157,-10.1579,-10.1194,-10.1733,-10.2356,-10.2289,-10.2846,-10.3439,-10.4387,-10.5082,-10.5995,-10.7083,-10.7951,-10.8199,-10.8241,-10.8241,-10.8076,-10.7907,-10.8033,-10.8199,-10.8124,-10.8054,-10.8693,-10.923,-10.9594,-10.979,-10.9835,-10.9797,-10.9695,-10.9677,-10.9638,-10.38,-10.403,-10.403,-10.3964,-10.3865,-10.3964,-10.3964,-10.3997,-10.3964,-10.232,-10.013,-10.2294,-10.2192,-10.0801,-10.2492,-10.446,-10.5694,-10.6031,-10.6872,-10.7989,-10.8315,-10.9325,-11.0746,-11.2167,-11.3288,-11.5717,-11.7387,-11.8348,-11.838,-11.766,-11.7577,-11.7314,-11.6782,-11.682,-11.9478,-11.946,-11.9271,-11.9303,-12.0132,-11.948,-11.9088,-11.8981,-11.7861,-11.6667,-11.4515,-11.2902,-11.2118,-11.1382,-11.0527,-10.9407,-10.8879,-10.8182,-10.7468,-10.7806,-10.7669,-10.7216,-10.7899,-10.8293,-10.8465,-10.837,-10.9533,-11.1274,-11.1594,-11.1476,-11.2159,-11.174,-11.0098,-10.8265,-10.9208,-10.8806,-10.7951,-10.7844,-10.8294,-10.7613,-10.6564,-10.553,-10.4816,-10.4067,-10.3175,-10.2747,-10.2925,-10.2818,-10.1784,-10.0892,-10.025,-9.95,-9.893,-9.9044,-9.955,-10.015,-10.1186,-10.2136,-10.3695,-10.4602,-10.5921,-10.7199,-10.8076,-10.8199,-10.8241,-10.8241,-10.8119,-10.7761,-10.7808,-10.8156,-10.8124,-10.8058,-10.8594,-10.9152,-10.9378,-10.957,-10.9643,-10.9619,-10.9624,-10.9551,-10.9404,-10.1827,-10.3964,-10.403,-10.403,-10.403,-10.403,-10.403,-10.403,-10.403,-10.2813,-10.1225,-10.2691,-10.257,-10.1766,-10.2757,-10.431,-10.5565,-10.6068,-10.6978,-10.7733,-10.8428,-10.9325,-11.0559,-11.1793,-11.2877,-11.4507,-11.6841,-11.8133,-11.7397,-11.7217,-11.7584,-11.7794,-11.7524,-11.6932,-11.7925,-11.7641,-11.7926,-11.8292,-11.8636,-11.7998,-11.889,-11.8601,-11.7613,-11.7688,-11.5454,-11.3896,-11.2983,-11.2231,-11.1458,-11.0575,-10.9717,-10.9057,-10.8666,-10.8317,-10.7867,-10.7661,-10.7817,-10.8282,-10.8328,-10.8473,-10.9165,-11.0807,-11.1096,-11.141,-11.1659,-11.1551,-10.9884,-10.8129,-10.8989,-10.9386,-10.7246,-10.7555,-10.7799,-10.6542,-10.553,-10.5066,-10.4424,-10.4031,-10.3139,-10.2176,-10.1641,-10.132,-10.0392,-9.9607,-9.8751,-9.7681,-9.7538,-9.7895,-9.8073,-9.8609,-9.9643,-10.1126,-10.2925,-10.4432,-10.5787,-10.706,-10.8199,-10.8241,-10.8241,-10.8241,-10.807,-10.7496,-10.7431,-10.7845,-10.8044,-10.8101,-10.8281,-10.8502,-10.8866,-10.925,-10.9329,-10.9277,-10.9282,-10.9303,-10.9139,-10.097,-10.3997,-10.403,-10.403,-10.403,-10.403,-10.403,-10.403,-10.3997,-10.3405,-10.2547,-10.3199,-10.2536,-10.1627,-10.2439,-10.431,-10.5757,-10.5945,-10.6978,-10.7817,-10.8278,-10.8876,-10.9736,-11.0746,-11.1643,-11.2818,-11.5048,-11.6229,-11.5615,-11.5647,-11.6849,-11.7394,-11.7081,-11.6875,-11.7224,-11.7653,-11.7447,-11.749,-11.6624,-11.5993,-11.6976,-11.6701,-11.6922,-11.7124,-11.4878,-11.4828,-11.3183,-11.2751,-11.2221,-11.1382,-11.055,-11.0092,-10.9639,-10.9456,-10.8722,-10.7887,-10.8022,-10.8274,-10.8282,-10.8394,-10.8689,-10.9998,-11.0459,-11.0854,-11.1026,-11.0147,-10.8906,-10.8439,-10.8273,-10.799,-10.6486,-10.6739,-10.6925,-10.5539,-10.4602,-10.4281,-10.3924,-10.371,-10.2997,-10.1748,-10.0927,-9.9857,-9.9001,-9.8287,-9.7074,-9.604,-9.6504,-9.686,-9.6825,-9.7146,-9.8394,-9.9787,-10.221,-10.3975,-10.5701,-10.6994,-10.8199,-10.8241,-10.8241,-10.8241,-10.8199,-10.7595,-10.729,-10.7607,-10.7907,-10.8061,-10.8067,-10.8045,-10.8007,-10.8093,-10.834,-10.8675,-10.8935,-10.9037,-10.8677,-10.0706,-10.403,-10.403,-10.403,-10.403,-10.403,-10.403,-10.403,-10.403,-10.3931,-10.3728,-10.3416,-10.1903,-10.0835,-10.2404,-10.431,-10.5945,-10.5945,-10.6925,-10.7779,-10.8278,-10.839,-10.9026,-10.9961,-11.09,-11.1021,-11.2759,-11.3722,-11.3643,-11.3826,-11.3782,-11.4111,-11.5503,-11.625,-11.6743,-11.7639,-11.7918,-11.6322,-11.4952,-11.4197,-11.3988,-11.4696,-11.4953,-11.4303,-11.5137,-11.5056,-11.1444,-11.27,-11.2832,-11.0882,-11.1027,-11.0988,-11.0459,-11.0155,-10.941,-10.8451,-10.8276,-10.8107,-10.8241,-10.8278,-10.8315,-10.8113,-10.8272,-10.8729,-10.9668,-10.8239,-10.767,-10.7816,-10.7243,-10.6545,-10.5629,-10.4679,-10.4676,-10.3935,-10.396,-10.371,-10.3639,-10.3389,-10.2462,-10.132,-9.9929,-9.8394,-9.7396,-9.686,-9.5826,-9.5041,-9.5326,-9.5433,-9.5469,-9.6019,-9.7232,-9.9332,-10.1764,-10.3863,-10.5645,-10.6872,-10.7907,-10.8241,-10.8241,-10.8241,-10.8241,-10.7907,-10.7397,-10.765,-10.7728,-10.7949,-10.8106,-10.7657,-10.732,-10.717,-10.7291,-10.7776,-10.8087,-10.8342,-10.8067,-9.8685,-10.3964,-10.403,-10.403,-10.403,-10.403,-10.403,-10.403,-10.403,-10.3997,-10.3698,-10.2646,-10.183,-10.1436,-10.2651,-10.4348,-10.5883,-10.5945,-10.6925,-10.7779,-10.8241,-10.8241,-10.8727,-10.9661,-11.0073,-10.8993,-11.1106,-11.1782,-11.1911,-11.1955,-11.1637,-11.0204,-11.3766,-11.478,-11.5425,-11.72,-11.8126,-11.61,-11.44,-11.3201,-11.2785,-11.4386,-11.4487,-11.4523,-11.4856,-11.4901,-11.2968,-11.2923,-11.2263,-11.0985,-11.128,-11.1572,-11.0927,-11.0219,-10.9412,-10.8973,-10.7813,-10.764,-10.8033,-10.8241,-10.8241,-10.8199,-10.8145,-10.792,-10.8347,-10.8272,-10.7862,-10.6671,-10.6388,-10.5934,-10.5161,-10.4606,-10.3922,-10.3552,-10.3425,-10.3425,-10.3318,-10.2569,-10.1677,-10.0428,-9.893,-9.7217,-9.6432,-9.5719,-9.4898,-9.4149,-9.3935,-9.4042,-9.4409,-9.4982,-9.6779,-9.9441,-10.1718,-10.3853,-10.5808,-10.736,-10.7817,-10.8241,-10.8241,-10.8241,-10.8156,-10.7907,-10.765,-10.7518,-10.7516,-10.7601,-10.7466,-10.7091,-10.6763,-10.6811,-10.6935,-10.7168,-10.7478,-10.7558,-10.7582,-9.883,-10.3043,-10.3734,-10.403,-10.403,-10.403,-10.403,-10.403,-10.3997,-10.3992,-10.3608,-10.2306,-10.1898,-10.2514,-10.3412,-10.4679,-10.5721,-10.633,-10.7171,-10.8076,-10.8241,-10.8241,-10.854,-10.9138,-10.9998,-10.9633,-11.0355,-11.1031,-11.1295,-11.1519,-11.1257,-11.0579,-11.3086,-11.4653,-11.5236,-11.7563,-11.743,-11.6209,-11.4811,-11.3567,-11.2968,-11.3421,-11.3756,-11.2748,-11.3809,-11.319,-11.2165,-11.1829,-11.1997,-11.1351,-11.1723,-11.1854,-11.0918,-10.9989,-10.9027,-10.8915,-10.7445,-10.7052,-10.7687,-10.8076,-10.8199,-10.8278,-10.8199,-10.7779,-10.6835,-10.6578,-10.6138,-10.5909,-10.6055,-10.5584,-10.4784,-10.4312,-10.3844,-10.3633,-10.3425,-10.3425,-10.3175,-10.2176,-10.1106,-9.95,-9.8038,-9.7146,-9.6325,-9.5362,-9.4363,-9.3935,-9.3935,-9.4081,-9.4338,-9.4764,-9.6735,-9.9528,-10.1946,-10.4103,-10.6263,-10.7817,-10.8156,-10.8241,-10.8241,-10.8241,-10.8156,-10.8113,-10.8033,-10.797,-10.7788,-10.7369,-10.6763,-10.6518,-10.6245,-10.6439,-10.6643,-10.7261,-10.782,-10.7748,-10.7428,-10.0455,-10.2057,-10.3438,-10.403,-10.403,-10.403,-10.403,-10.403,-10.403,-10.3973,-10.4172,-10.2543,-10.2444,-10.3505,-10.4348,-10.5075,-10.6165,-10.6837,-10.7459,-10.8156,-10.8241,-10.8241,-10.8278,-10.8241,-10.9175,-11.0456,-11.0882,-11.0995,-11.1183,-11.2193,-11.1926,-11.1106,-11.3124,-11.5386,-11.4926,-11.696,-11.7302,-11.5999,-11.547,-11.4565,-11.3236,-11.3031,-11.2504,-11.189,-11.2236,-11.2368,-11.1308,-11.1813,-11.2,-11.1337,-11.1963,-11.1612,-11.029,-10.9371,-10.8557,-10.7691,-10.6899,-10.6308,-10.7134,-10.7862,-10.8241,-10.8241,-10.8241,-10.7507,-10.6835,-10.6116,-10.5684,-10.5847,-10.5361,-10.4784,-10.4387,-10.3844,-10.3552,-10.3425,-10.3425,-10.3425,-10.3282,-10.2426,-10.1356,-9.9893,-9.8716,-9.761,-9.5933,-9.4827,-9.3935,-9.3935,-9.3971,-9.4262,-9.4589,-9.502,-9.6562,-10.0084,-10.2817,-10.5025,-10.7161,-10.7877,-10.8199,-10.8241,-10.8241,-10.8241,-10.8199,-10.8199,-10.8199,-10.8236,-10.8241,-10.7877,-10.7174,-10.6449,-10.5858,-10.6067,-10.6718,-10.7376,-10.8003,-10.766,-10.7235,-10.3242,-10.3537,-10.3898,-10.403,-10.403,-10.403,-10.3997,-10.403,-10.4128,-10.4724,-10.5218,-10.3214,-10.3139,-10.4668,-10.4773,-10.5215,-10.7706,-10.7169,-10.763,-10.8156,-10.8241,-10.8241,-10.8241,-10.8465,-10.9138,-11.0601,-11.0917,-11.0957,-11.1145,-11.1743,-11.0724,-11.0577,-11.1168,-11.2643,-11.417,-11.6099,-11.6174,-11.5613,-11.5022,-11.4085,-11.339,-11.3461,-11.3386,-11.2676,-11.2737,-11.2554,-11.1621,-11.1714,-11.084,-11.0194,-11.0121,-11.0132,-10.8648,-10.7161,-10.6127,-10.5582,-10.5784,-10.6308,-10.7031,-10.7733,-10.8156,-10.8156,-10.8241,-10.8113,-10.7507,-10.6726,-10.6055,-10.5264,-10.5061,-10.5098,-10.4082,-10.3552,-10.3425,-10.3425,-10.3425,-10.3389,-10.3175,-10.2604,-10.157,-10.0571,-9.9465,-9.7752,-9.5505,-9.422,-9.422,-9.4185,-9.4541,-9.4798,-9.6095,-9.6276,-9.7654,-10.108,-10.3548,-10.5825,-10.7249,-10.8082,-10.8199,-10.8241,-10.8241,-10.8241,-10.8241,-10.8241,-10.8241,-10.8241,-10.8241,-10.8033,-10.7507,-10.6798,-10.6629,-10.6625,-10.6956,-10.737,-10.7858,-10.7748,-10.7454,-10.403,-10.403,-10.403,-10.403,-10.4095,-10.4736,-10.5082,-10.5174,-10.5816,-10.6537,-10.6331,-10.5015,-10.4911,-10.5872,-10.4702,-10.4856,-10.6799,-10.7379,-10.7899,-10.8156,-10.8241,-10.8241,-10.8241,-10.8241,-10.9288,-11.0334,-11.0826,-11.0875,-11.107,-11.1708,-11.1408,-11.0583,-11.2234,-11.3417,-11.4146,-11.5479,-11.6053,-11.5644,-11.5115,-11.4293,-11.3177,-11.3681,-11.3346,-11.2374,-11.1608,-11.1207,-11.0917,-11.004,-10.8796,-10.7924,-10.7924,-10.7256,-10.6136,-10.5042,-10.4456,-10.4334,-10.4785,-10.5528,-10.5897,-10.7083,-10.7687,-10.7733,-10.8076,-10.8076,-10.7733,-10.736,-10.6559,-10.5657,-10.5565,-10.489,-10.4082,-10.3678,-10.3425,-10.3425,-10.3425,-10.3425,-10.3282,-10.2711,-10.1926,-10.1034,-9.9786,-9.8002,-9.5505,-9.4866,-9.4577,-9.472,-9.5112,-9.6267,-9.7782,-9.8505,-9.9408,-10.2088,-10.3949,-10.5983,-10.7591,-10.8087,-10.8241,-10.8241,-10.8241,-10.8241,-10.8241,-10.8241,-10.8241,-10.8241,-10.8113,-10.7989,-10.7555,-10.7422,-10.7481,-10.7493,-10.7796,-10.8073,-10.8113,-10.7997,-10.7862,-10.403,-10.403,-10.403,-10.4095,-10.4546,-10.5604,-10.6233,-10.6641,-10.7648,-10.8384,-10.8432,-10.7024,-10.7035,-10.7466,-10.5423,-10.5106,-10.6814,-10.8264,-10.9021,-10.9475,-10.9026,-10.8914,-10.8802,-10.8615,-10.8914,-11.0073,-11.026,-11.019,-11.0601,-11.1942,-11.162,-11.1531,-11.3237,-11.4525,-11.4548,-11.5364,-11.5535,-11.5434,-11.4606,-11.3847,-11.2735,-11.2581,-11.1897,-11.0843,-10.9875,-10.9153,-10.8539,-10.7379,-10.6396,-10.561,-10.5435,-10.4578,-10.3785,-10.3435,-10.3347,-10.3579,-10.4274,-10.482,-10.5093,-10.6234,-10.6941,-10.7273,-10.7862,-10.7907,-10.7555,-10.7323,-10.7083,-10.6351,-10.5747,-10.4956,-10.457,-10.4082,-10.3642,-10.3425,-10.3425,-10.3425,-10.3425,-10.3175,-10.2676,-10.1284,-10.0036,-9.8537,-9.7371,-9.6556,-9.6706,-9.7031,-9.7247,-9.811,-9.9761,-10.0848,-10.1738,-10.3117,-10.4636,-10.6365,-10.7858,-10.8087,-10.8241,-10.8241,-10.8241,-10.8241,-10.8241,-10.8241,-10.8241,-10.8241,-10.8156,-10.8033,-10.8033,-10.7989,-10.7975,-10.7994,-10.8488,-10.9004,-10.8524,-10.801,-10.7924,-10.403,-10.403,-10.403,-10.4769,-10.5694,-10.6147,-10.6876,-10.7873,-10.8208,-10.9255,-10.9727,-10.8629,-10.8643,-10.935,-10.7934,-10.7488,-10.8245,-10.9466,-11.0708,-11.1456,-11.0634,-11.0073,-10.9587,-10.8839,-10.854,-10.8577,-10.8839,-10.8839,-10.925,-11.0185,-11.0821,-11.1033,-11.2106,-11.301,-11.3772,-11.3964,-11.3977,-11.4331,-11.3138,-11.1968,-11.1602,-11.0135,-10.9393,-10.8819,-10.8246,-10.7662,-10.6515,-10.5871,-10.543,-10.4781,-10.4124,-10.3342,-10.2649,-10.2509,-10.2649,-10.3435,-10.4198,-10.4461,-10.4784,-10.5958,-10.7031,-10.7134,-10.7817,-10.8113,-10.8076,-10.7951,-10.7825,-10.7555,-10.7083,-10.6079,-10.4747,-10.4497,-10.4123,-10.3678,-10.3425,-10.3425,-10.3425,-10.3425,-10.2721,-10.1516,-10.0707,-9.9858,-9.8969,-9.8362,-9.8898,-9.9291,-9.9468,-10.0108,-10.183,-10.3232,-10.4094,-10.5415,-10.6332,-10.7815,-10.8049,-10.8241,-10.8241,-10.8241,-10.8241,-10.8241,-10.8241,-10.8241,-10.8241,-10.8241,-10.8241,-10.8199,-10.8199,-10.8199,-10.8291,-10.8544,-10.8696,-10.8739,-10.8474,-10.8038,-10.7735,-10.2353,-10.1856,-10.3369,-10.4344,-10.534,-10.7487,-10.8932,-10.9568,-11.0323,-11.1087,-11.1319,-11.0045,-11.0027,-11.0754,-10.8652,-10.8084,-10.8952,-10.9862,-11.0891,-11.1525,-11.1307,-11.0297,-10.9437,-10.8652,-10.8241,-10.8278,-10.8241,-10.8241,-10.839,-10.9063,-10.9587,-10.9544,-11.1213,-11.1866,-11.1066,-11.195,-11.2119,-11.1594,-11.036,-10.9531,-10.9338,-10.8328,-10.7947,-10.7557,-10.7006,-10.61,-10.4566,-10.3817,-10.2876,-10.2436,-10.258,-10.3267,-10.4439,-10.4496,-10.4161,-10.4166,-10.4424,-10.4424,-10.446,-10.5463,-10.6503,-10.6445,-10.7603,-10.8076,-10.8241,-10.8241,-10.8241,-10.8199,-10.7825,-10.7273,-10.6079,-10.5584,-10.4854,-10.4274,-10.4006,-10.3844,-10.3633,-10.3765,-10.3471,-10.2176,-10.178,-10.1101,-10.0551,-10.0142,-10.058,-10.1684,-10.1793,-10.2072,-10.3843,-10.4756,-10.5839,-10.6534,-10.763,-10.8199,-10.8241,-10.8241,-10.8241,-10.8241,-10.8241,-10.8241,-10.8241,-10.8241,-10.8241,-10.8241,-10.8241,-10.8241,-10.8241,-10.8282,-10.8366,-10.8515,-10.8562,-10.8432,-10.82,-10.7688,-10.7352,-10.0545,-9.9782,-10.2792,-10.4159,-10.5056,-10.8803,-11.0728,-11.1157,-11.2211,-11.2415,-11.218,-11.1229,-11.0918,-11.1169,-10.8738,-10.7962,-10.9331,-11.0101,-11.0308,-11.0852,-11.0821,-10.9811,-10.8577,-10.8315,-10.8241,-10.8241,-10.8241,-10.8241,-10.8465,-10.8802,-10.8839,-10.9159,-11.0725,-11.0743,-10.9337,-11.0409,-10.9947,-10.8676,-10.784,-10.7512,-10.7307,-10.7117,-10.6505,-10.6061,-10.5548,-10.4424,-10.2961,-10.1427,-10.0656,-10.0982,-10.2012,-10.4021,-10.6043,-10.6298,-10.5547,-10.4854,-10.4534,-10.4312,-10.4118,-10.5098,-10.6007,-10.6388,-10.7507,-10.8241,-10.8241,-10.8241,-10.8241,-10.8241,-10.8241,-10.7989,-10.7236,-10.6652,-10.581,-10.513,-10.489,-10.4642,-10.4234,-10.4534,-10.4418,-10.3543,-10.3143,-10.283,-10.2328,-10.2484,-10.3086,-10.3837,-10.4185,-10.434,-10.5102,-10.5977,-10.6504,-10.6756,-10.7687,-10.8241,-10.8241,-10.8241,-10.8241,-10.8241,-10.8241,-10.8241,-10.8241,-10.8241,-10.8241,-10.8241,-10.8241,-10.8241,-10.8241,-10.8282,-10.8282,-10.8445,-10.8544,-10.8213,-10.7807,-10.7286,-10.6868,-9.969,-9.9782,-10.2792,-10.4704,-10.615,-10.9217,-11.1174,-11.2267,-11.2611,-11.2389,-11.1873,-11.1608,-11.1131,-11.0596,-10.895,-10.8566,-10.9455,-11.0895,-11.1187,-11.0952,-11.0895,-10.9961,-10.8465,-10.8241,-10.8241,-10.8241,-10.8241,-10.8241,-10.8502,-10.9699,-11.0297,-11.019,-11.0367,-11.0437,-10.9645,-10.89,-10.8778,-10.8299,-10.6965,-10.6335,-10.6405,-10.5329,-10.4599,-10.4223,-10.3853,-10.2925,-10.1712,-10.0293,-10.0486,-10.2939,-10.3147,-10.4747,-10.6629,-10.712,-10.6234,-10.5093,-10.4854,-10.4713,-10.4678,-10.5397,-10.6212,-10.6872,-10.7733,-10.8278,-10.8241,-10.8241,-10.8241,-10.8241,-10.8241,-10.8199,-10.7907,-10.7459,-10.6671,-10.5995,-10.5847,-10.582,-10.5657,-10.5757,-10.5784,-10.5601,-10.5491,-10.5527,-10.5651,-10.6023,-10.6386,-10.5765,-10.5877,-10.5893,-10.6264,-10.6708,-10.6872,-10.7185,-10.7733,-10.8241,-10.8241,-10.8241,-10.8241,-10.8241,-10.8241,-10.8241,-10.8241,-10.8241,-10.8241,-10.8241,-10.8241,-10.8241,-10.8241,-10.8241,-10.8241,-10.8368,-10.8407,-10.7975,-10.7379,-10.6976,-10.6264,-9.7816,-9.7402,-10.1066,-10.2968,-10.4091,-10.8535,-11.0769,-11.147,-11.2308,-11.2502,-11.2179,-11.1817,-11.1246,-11.0509,-10.9422,-10.8904,-10.9139,-11.1543,-11.1944,-11.1157,-11.1718,-11.0671,-10.8802,-10.8278,-10.8241,-10.8241,-10.8241,-10.8241,-10.8428,-10.8951,-10.9288,-10.9414,-10.9677,-10.9128,-10.8219,-10.7432,-10.7235,-10.6448,-10.572,-10.5171,-10.5511,-10.4562,-10.3922,-10.3364,-10.2462,-10.239,-10.2283,-10.0927,-10.1604,-10.4167,-10.5356,-10.6201,-10.7612,-10.7779,-10.7273,-10.6234,-10.6019,-10.581,-10.562,-10.6152,-10.6763,-10.7171,-10.7862,-10.8199,-10.8241,-10.8241,-10.8241,-10.8241,-10.8241,-10.8241,-10.8199,-10.8033,-10.7459,-10.6817,-10.7031,-10.7083,-10.6652,-10.6652,-10.6652,-10.6652,-10.6652,-10.6763,-10.7273,-10.7518,-10.747,-10.7236,-10.7134,-10.7083,-10.7134,-10.7083,-10.7222,-10.7687,-10.8199,-10.8241,-10.8241,-10.8241,-10.8241,-10.8241,-10.8241,-10.8241,-10.8241,-10.8241,-10.8241,-10.8241,-10.8241,-10.8241,-10.8241,-10.8241,-10.8241,-10.8241,-10.8241,-10.7995,-10.7249,-10.667,-10.5824,-9.6205,-9.5741,-9.983,-10.1712,-10.25,-10.7406,-11.0025,-11.056,-11.1666,-11.1981,-11.208,-11.1594,-11.0826,-10.9947,-10.9359,-10.8841,-10.9234,-11.1749,-11.2316,-11.0708,-11.1867,-11.1045,-10.9325,-10.854,-10.8241,-10.8241,-10.8241,-10.8241,-10.8241,-10.8353,-10.8353,-10.8315,-10.8636,-10.7945,-10.6543,-10.6602,-10.608,-10.5343,-10.496,-10.4714,-10.4856,-10.457,-10.3862,-10.2854,-10.2176,-10.1784,-10.132,-10.157,-10.2935,-10.4943,-10.6264,-10.7459,-10.8119,-10.8199,-10.7817,-10.7083,-10.6978,-10.6817,-10.6445,-10.6763,-10.7134,-10.7459,-10.7989,-10.8241,-10.8241,-10.8241,-10.8241,-10.8241,-10.8241,-10.8241,-10.8241,-10.8241,-10.8033,-10.7555,-10.7779,-10.7944,-10.7555,-10.7373,-10.741,-10.7373,-10.741,-10.764,-10.7907,-10.7989,-10.7733,-10.747,-10.7323,-10.7134,-10.7507,-10.7555,-10.765,-10.8156,-10.8278,-10.8241,-10.8241,-10.8241,-10.8241,-10.8241,-10.8241,-10.8241,-10.8241,-10.8241,-10.8241,-10.8241,-10.8241,-10.8241,-10.8241,-10.8241,-10.8241,-10.8241,-10.8199,-10.7989,-10.7273,-10.6559,-10.5747,-9.535,-9.5826,-9.983,-10.1505,-10.2087,-10.6184,-10.8832,-11.0239,-11.0631,-11.0819,-11.0841,-11.0644,-10.9763,-10.8636,-10.8325,-10.8156,-10.8839,-11.1494,-11.1456,-10.9736,-11.0269,-11.0867,-11.0048,-10.8929,-10.8366,-10.8323,-10.8282,-10.8241,-10.8241,-10.8241,-10.8241,-10.8199,-10.7778,-10.7157,-10.6928,-10.6285,-10.6373,-10.6445,-10.5361,-10.5061,-10.5657,-10.4351,-10.2828,-10.157,-10.2105,-10.107,-9.9037,-10.107,-10.284,-10.2933,-10.5557,-10.7373,-10.8076,-10.8241,-10.7989,-10.7273,-10.7171,-10.7083,-10.7083,-10.7185,-10.7422,-10.7995,-10.8199,-10.8241,-10.8241,-10.8241,-10.8241,-10.8241,-10.8241,-10.8241,-10.8241,-10.8241,-10.8241,-10.8161,-10.8203,-10.8241,-10.8199,-10.8119,-10.8076,-10.8076,-10.8199,-10.8241,-10.8199,-10.7733,-10.7687,-10.7733,-10.7507,-10.7507,-10.7779,-10.7907,-10.8156,-10.8241,-10.8241,-10.8241,-10.8241,-10.8241,-10.8241,-10.8241,-10.8241,-10.8241,-10.8241,-10.8241,-10.8241,-10.8241,-10.8241,-10.8241,-10.8241,-10.8241,-10.8241,-10.8241,-10.8076,-10.7817,-10.736,-10.6708,-10.6031,-9.5284,-9.549,-9.7862,-9.9333,-10.0639,-10.3789,-10.6704,-10.8832,-10.9989,-11.0682,-11.0773,-10.9694,-10.8436,-10.7484,-10.695,-10.682,-10.7194,-11.0222,-11.0447,-10.8843,-11.017,-11.0393,-10.9414,-10.8964,-10.8806,-10.8513,-10.8328,-10.8241,-10.8241,-10.8241,-10.8241,-10.8241,-10.7989,-10.7603,-10.7083,-10.6817,-10.6763,-10.6925,-10.5995,-10.5593,-10.541,-10.377,-10.2635,-10.2186,-10.0214,-9.9251,-9.9607,-10.0892,-10.2244,-10.3289,-10.5114,-10.6941,-10.8119,-10.8278,-10.8156,-10.7907,-10.7825,-10.7779,-10.7862,-10.7817,-10.7989,-10.8199,-10.8241,-10.8241,-10.8241,-10.8241,-10.8241,-10.8241,-10.8282,-10.8241,-10.8282,-10.8241,-10.8328,-10.848,-10.8368,-10.8282,-10.8241,-10.8241,-10.8241,-10.8241,-10.8241,-10.8241,-10.8278,-10.7944,-10.7862,-10.7555,-10.7687,-10.7989,-10.764,-10.7989,-10.8156,-10.8241,-10.8241,-10.8241,-10.8241,-10.8241,-10.8241,-10.8241,-10.8241,-10.8241,-10.8241,-10.8241,-10.8241,-10.8241,-10.8241,-10.8241,-10.8241,-10.8241,-10.8241,-10.8241,-10.8241,-10.8033,-10.7862,-10.7083,-10.6615,-9.5284,-9.549,-9.6685,-9.8125,-9.9576,-10.1882,-10.4594,-10.7385,-10.8772,-10.9819,-11.0155,-10.8531,-10.7317,-10.6592,-10.616,-10.596,-10.6184,-10.8615,-10.9748,-10.9382,-10.9972,-11.0018,-10.9667,-10.9404,-10.9031,-10.8638,-10.8369,-10.8241,-10.8241,-10.8241,-10.8241,-10.8241,-10.8241,-10.7951,-10.7507,-10.7459,-10.7422,-10.7323,-10.6445,-10.5945,-10.5773,-10.3768,-10.264,-10.2328,-9.9607,-9.8751,-10.0892,-10.0571,-10.1352,-10.3354,-10.4515,-10.6154,-10.7795,-10.8241,-10.8241,-10.8241,-10.8241,-10.8241,-10.8278,-10.8241,-10.8278,-10.8241,-10.8241,-10.8241,-10.8241,-10.8241,-10.8323,-10.8406,-10.8369,-10.8482,-10.8517,-10.8445,-10.8444,-10.8638,-10.8407,-10.8241,-10.8241,-10.8241,-10.8241,-10.8241,-10.8241,-10.8241,-10.8241,-10.7907,-10.7733,-10.7603,-10.7687,-10.7862,-10.7603,-10.8033,-10.8278,-10.8241,-10.8241,-10.8241,-10.8241,-10.8241,-10.8241,-10.8241,-10.8241,-10.8241,-10.8241,-10.8241,-10.8241,-10.8241,-10.8241,-10.8241,-10.8241,-10.8241,-10.8241,-10.8241,-10.8241,-10.8241,-10.8161,-10.7825,-10.7422,-9.5284,-9.5457,-9.6752,-9.8052,-9.9438,-10.075,-10.2986,-10.5792,-10.6793,-10.7866,-10.8503,-10.7297,-10.6506,-10.6059,-10.5732,-10.5885,-10.6222,-10.7755,-10.9268,-11.0453,-10.946,-10.9732,-11.0984,-10.9893,-10.9125,-10.87,-10.8407,-10.8286,-10.8241,-10.8241,-10.8241,-10.8241,-10.8241,-10.8199,-10.8199,-10.8119,-10.8199,-10.7862,-10.6652,-10.5945,-10.5721,-10.406,-10.2543,-10.1498,-10.0963,-10.0785,-10.0999,-9.975,-10.0486,-10.3133,-10.3635,-10.5063,-10.7683,-10.8241,-10.8241,-10.8241,-10.8241,-10.8241,-10.8241,-10.8241,-10.8241,-10.8241,-10.8241,-10.8241,-10.8241,-10.8282,-10.8369,-10.8544,-10.8638,-10.879,-10.9006,-10.8875,-10.87,-10.8675,-10.8445,-10.8282,-10.8241,-10.8241,-10.8241,-10.8241,-10.8241,-10.8241,-10.8119,-10.7779,-10.765,-10.7907,-10.7733,-10.7555,-10.8033,-10.8156,-10.8241,-10.8241,-10.8241,-10.8241,-10.8241,-10.8241,-10.8241,-10.8241,-10.8241,-10.8241,-10.8241,-10.8241,-10.8241,-10.8241,-10.8241,-10.8241,-10.8241,-10.8241,-10.8241,-10.8328,-10.8282,-10.8241,-10.8161,-10.8001,-10.7787,-9.5284,-9.5371,-9.5812,-9.7213,-9.9303,-9.9802,-10.2118,-10.5685,-10.6581,-10.7426,-10.7779,-10.6135,-10.5563,-10.5728,-10.4726,-10.4764,-10.6035,-10.753,-10.8669,-10.9422,-10.9155,-10.9475,-11.0099,-10.9911,-10.9532,-10.9041,-10.8816,-10.8535,-10.8286,-10.8241,-10.8241,-10.8241,-10.8241,-10.8241,-10.8241,-10.8241,-10.8241,-10.7951,-10.6726,-10.5945,-10.5611,-10.33,-10.1998,-10.239,-10.1605,-10.107,-10.1034,-10.0606,-10.1557,-10.387,-10.4752,-10.5798,-10.7298,-10.7951,-10.8241,-10.8241,-10.8241,-10.8241,-10.8241,-10.8241,-10.8241,-10.8241,-10.8241,-10.8241,-10.8282,-10.8445,-10.8548,-10.8707,-10.8875,-10.9055,-10.9185,-10.914,-10.9055,-10.8981,-10.8588,-10.8241,-10.8241,-10.8241,-10.8282,-10.8241,-10.8282,-10.8282,-10.8241,-10.8033,-10.7958,-10.8199,-10.8076,-10.7951,-10.8199,-10.8241,-10.8241,-10.8241,-10.8241,-10.8241,-10.8241,-10.8241,-10.8241,-10.8241,-10.8241,-10.8241,-10.8241,-10.8241,-10.8241,-10.8241,-10.8241,-10.8241,-10.8241,-10.8241,-10.8368,-10.8515,-10.8481,-10.8407,-10.8293,-10.8095,-10.8039,-9.5284,-9.5251,-9.5746,-9.729,-9.9303,-9.9802,-10.1895,-10.4899,-10.6054,-10.6602,-10.6227,-10.4867,-10.4455,-10.495,-10.3866,-10.4651,-10.6745,-10.7755,-10.8519,-10.8875,-10.914,-10.941,-10.9783,-10.9944,-10.9745,-10.9307,-10.9098,-10.8842,-10.8445,-10.8323,-10.8241,-10.8241,-10.8241,-10.8241,-10.8241,-10.8241,-10.8076,-10.7733,-10.6615,-10.582,-10.5258,-10.3111,-10.1748,-10.1748,-10.1249,-10.107,-10.107,-10.1605,-10.2726,-10.4498,-10.5463,-10.6271,-10.7083,-10.7862,-10.8241,-10.8241,-10.8241,-10.8241,-10.8241,-10.8241,-10.8241,-10.8241,-10.8241,-10.8241,-10.8286,-10.8515,-10.873,-10.8902,-10.9169,-10.9448,-10.9463,-10.9325,-10.9265,-10.92,-10.8686,-10.8241,-10.8282,-10.8366,-10.8368,-10.8323,-10.8368,-10.8368,-10.8211,-10.7755,-10.7418,-10.7418,-10.7418,-10.7381,-10.7456,-10.7979,-10.8241,-10.8241,-10.8241,-10.8241,-10.8241,-10.8241,-10.8241,-10.8241,-10.8282,-10.8286,-10.8368,-10.8368,-10.8407,-10.8406,-10.8326,-10.8323,-10.8323,-10.8366,-10.8615,-10.8707,-10.8578,-10.8582,-10.8606,-10.8293,-10.8245,-9.5284,-9.5457,-9.6538,-9.7843,-9.9404,-10.0706,-10.2157,-10.3821,-10.5166,-10.4992,-10.3837,-10.3342,-10.3305,-10.3305,-10.338,-10.5137,-10.7792,-10.8166,-10.8588,-10.9117,-10.9185,-10.9492,-11.0023,-11.0024,-10.9738,-10.9288,-10.9289,-10.9042,-10.8611,-10.8406,-10.8241,-10.8241,-10.8241,-10.8241,-10.8278,-10.8199,-10.7862,-10.7134,-10.6308,-10.539,-10.4425,-10.3557,-10.1498,-9.9215,-10.0143,-10.0749,-10.0856,-10.2354,-10.3543,-10.4317,-10.5258,-10.6152,-10.6925,-10.765,-10.8076,-10.8199,-10.8241,-10.8241,-10.8241,-10.8241,-10.8241,-10.8241,-10.8241,-10.8241,-10.8282,-10.8585,-10.8875,-10.9185,-10.9243,-10.9484,-10.977,-10.9236,-10.892,-10.9064,-10.8653,-10.8366,-10.8323,-10.8551,-10.8548,-10.8482,-10.836,-10.8206,-10.8066,-10.6861,-10.596,-10.581,-10.581,-10.581,-10.596,-10.7119,-10.7829,-10.7942,-10.8129,-10.8241,-10.8241,-10.8241,-10.8282,-10.8326,-10.8369,-10.8369,-10.8481,-10.851,-10.8568,-10.8594,-10.8553,-10.8482,-10.8405,-10.8553,-10.8856,-10.8875,-10.879,-10.87,-10.8819,-10.8517,-10.8323,-9.5284,-9.5371,-9.5661,-9.7179,-9.9404,-10.0671,-10.2412,-10.4168,-10.4156,-10.4226,-10.4081,-10.2338,-10.1585,-10.1772,-10.2894,-10.4539,-10.6558,-10.7755,-10.8482,-10.879,-10.8819,-10.9152,-10.9683,-10.9662,-10.9457,-10.9231,-10.9113,-10.8794,-10.837,-10.8282,-10.8241,-10.8241,-10.8241,-10.8241,-10.8199,-10.765,-10.7323,-10.6978,-10.5647,-10.4309,-10.2797,-10.101,-9.9108,-9.7396,-9.8537,-9.8787,-9.7681,-10.0214,-10.1837,-10.2081,-10.3883,-10.5061,-10.5295,-10.6116,-10.6817,-10.7373,-10.7989,-10.8241,-10.8241,-10.8241,-10.8241,-10.8241,-10.8241,-10.8241,-10.8366,-10.8775,-10.9117,-10.9038,-10.8209,-10.819,-10.9209,-10.8171,-10.7743,-10.8668,-10.8707,-10.8544,-10.8544,-10.8885,-10.8993,-10.888,-10.7962,-10.7156,-10.6693,-10.5371,-10.4168,-10.413,-10.413,-10.4128,-10.4315,-10.5477,-10.6636,-10.6633,-10.7568,-10.8091,-10.8241,-10.8282,-10.8406,-10.8481,-10.8582,-10.8675,-10.8993,-10.9034,-10.9061,-10.8974,-10.8988,-10.8964,-10.8863,-10.896,-10.9163,-10.9163,-10.8981,-10.879,-10.8981,-10.8588,-10.8363,-9.5284,-9.5284,-9.5284,-9.6464,-9.8711,-10.1416,-10.3005,-10.3698,-10.3794,-10.381,-10.3352,-10.1044,-10.0651,-10.2034,-10.2969,-10.4689,-10.6857,-10.7829,-10.8407,-10.8675,-10.8669,-10.898,-10.9594,-10.9465,-10.9419,-10.9372,-10.9191,-10.8852,-10.8475,-10.8445,-10.8368,-10.8282,-10.8241,-10.8241,-10.8199,-10.7507,-10.6925,-10.6615,-10.4675,-10.24,-10.0018,-9.8453,-9.7003,-9.5719,-9.6932,-9.7253,-9.6682,-9.8716,-10.0143,-10.0222,-10.1748,-10.2687,-10.2651,-10.4075,-10.516,-10.5618,-10.6964,-10.7646,-10.7343,-10.7942,-10.7979,-10.7343,-10.7867,-10.8241,-10.8282,-10.8675,-10.8364,-10.7256,-10.6236,-10.609,-10.7023,-10.6147,-10.601,-10.7404,-10.714,-10.7262,-10.8611,-10.8622,-10.8303,-10.8151,-10.7414,-10.6601,-10.5495,-10.4329,-10.3381,-10.2633,-10.2654,-10.2744,-10.2788,-10.4051,-10.522,-10.6008,-10.6716,-10.731,-10.7384,-10.7916,-10.848,-10.8681,-10.8827,-10.9031,-10.9307,-10.9364,-10.9279,-10.9368,-10.925,-10.92,-10.932,-10.9303,-10.9416,-10.9394,-10.9192,-10.9192,-10.9265,-10.875,-10.8326,-9.535,-9.5415,-9.5556,-9.6174,-9.8085,-10.2516,-10.3665,-10.2702,-10.3699,-10.3673,-10.2633,-10.0074,-10.0724,-10.3075,-10.3564,-10.5022,-10.7372,-10.7942,-10.8107,-10.831,-10.8418,-10.8855,-10.9532,-10.9469,-10.9481,-10.9545,-10.9492,-10.9136,-10.8611,-10.8606,-10.8513,-10.8323,-10.8199,-10.8044,-10.7771,-10.7013,-10.6171,-10.5344,-10.2993,-9.9983,-9.6616,-9.6254,-9.5433,-9.3971,-9.5398,-9.6147,-9.6076,-9.7717,-9.8537,-9.8579,-9.937,-9.9866,-10.008,-10.1802,-10.3012,-10.3134,-10.5138,-10.6234,-10.5761,-10.7003,-10.7119,-10.5997,-10.6895,-10.7642,-10.7684,-10.7954,-10.6875,-10.4729,-10.3923,-10.3984,-10.4102,-10.3784,-10.4315,-10.5986,-10.5055,-10.5104,-10.7752,-10.7673,-10.6852,-10.6582,-10.6411,-10.6006,-10.4293,-10.3418,-10.261,-10.1273,-10.127,-10.1387,-10.15,-10.2637,-10.4016,-10.5281,-10.5595,-10.5479,-10.5932,-10.7349,-10.8148,-10.8421,-10.8956,-10.9457,-10.957,-10.9502,-10.9355,-10.9607,-10.9518,-10.9393,-10.9425,-10.9478,-10.9664,-10.9636,-10.9752,-10.9808,-10.9325,-10.8713,-10.8326,-9.5876,-9.6852,-9.6843,-9.8168,-10.0676,-10.3409,-10.4047,-10.3147,-10.285,-10.362,-10.4705,-10.3113,-10.2387,-10.2728,-10.4518,-10.4737,-10.3965,-10.5601,-10.6527,-10.6531,-10.657,-10.7546,-10.9174,-10.9325,-10.9325,-10.9343,-10.952,-10.9172,-10.8445,-10.8544,-10.8513,-10.8241,-10.765,-10.6741,-10.5515,-10.4086,-10.2618,-10.1218,-9.8938,-9.7308,-9.6437,-9.5112,-9.4292,-9.3935,-9.4292,-9.447,-9.4541,-9.604,-9.6932,-9.7044,-9.8269,-9.903,-9.9066,-9.9543,-10.0055,-10.0642,-10.1198,-10.1948,-10.3004,-10.3953,-10.439,-10.4016,-10.4315,-10.4502,-10.4502,-10.4583,-10.4318,-10.3753,-10.2386,-10.2268,-10.3269,-10.2466,-10.2327,-10.4202,-10.42,-10.45,-10.5437,-10.5578,-10.5422,-10.5225,-10.4279,-10.3356,-10.2513,-10.1382,-10.0446,-9.9998,-9.9826,-9.9886,-9.9998,-10.1018,-10.2049,-10.2694,-10.2638,-10.2898,-10.4189,-10.5778,-10.6821,-10.7152,-10.8414,-10.934,-10.9721,-10.9835,-10.991,-10.991,-10.9873,-10.9797,-10.9835,-10.9873,-10.9797,-10.9711,-10.9752,-10.9737,-10.9212,-10.8638,-10.8286,-9.7115,-9.8325,-9.8332,-9.95,-10.1332,-10.1443,-10.1981,-10.2833,-10.2782,-10.3985,-10.5657,-10.3761,-10.2627,-10.2338,-10.3278,-10.3166,-10.2301,-10.3612,-10.4481,-10.4838,-10.5586,-10.6293,-10.6954,-10.7752,-10.7736,-10.7121,-10.7152,-10.6819,-10.6338,-10.7055,-10.713,-10.6579,-10.6209,-10.5016,-10.3182,-10.1793,-10.0765,-9.9791,-9.6096,-9.4185,-9.4149,-9.3328,-9.2829,-9.2865,-9.3578,-9.3935,-9.3935,-9.4791,-9.5255,-9.5219,-9.6076,-9.6539,-9.6539,-9.7253,-9.788,-9.829,-9.9631,-10.0828,-10.1689,-10.202,-10.2296,-10.2296,-10.2969,-10.2819,-10.1361,-10.1174,-10.1214,-10.1314,-10.0501,-10.0278,-10.1202,-10.0464,-10.0645,-10.2652,-10.2278,-10.275,-10.4274,-10.4288,-10.3836,-10.3722,-10.3001,-10.209,-10.1154,-10.0168,-9.9507,-9.9555,-9.9512,-9.9474,-9.9648,-10.0159,-10.0602,-10.0902,-10.1204,-10.1829,-10.269,-10.431,-10.5427,-10.5688,-10.7378,-10.8561,-10.8847,-10.9607,-10.991,-11.0062,-11.0024,-11.0062,-11.0024,-10.9455,-10.8961,-10.8885,-10.8805,-10.8553,-10.8341,-10.8375,-10.7807,-9.8056,-9.9659,-9.9771,-10.0404,-10.1109,-9.8957,-9.9595,-10.2103,-10.2754,-10.4128,-10.5807,-10.39,-10.2956,-10.2524,-10.1912,-10.1708,-10.1906,-10.1868,-10.2309,-10.3156,-10.4577,-10.4719,-10.3909,-10.5269,-10.5201,-10.3859,-10.3801,-10.3596,-10.3427,-10.4695,-10.4977,-10.4215,-10.4201,-10.3145,-10.1009,-9.991,-9.9291,-9.9001,-9.4339,-9.1937,-9.1828,-9.1901,-9.165,-9.1366,-9.2972,-9.3757,-9.3293,-9.3685,-9.3685,-9.3257,-9.3257,-9.3257,-9.3293,-9.4327,-9.5362,-9.6156,-9.8464,-10.007,-10.0356,-10.0406,-10.0423,-10.0612,-10.1885,-10.1587,-9.8893,-9.8594,-9.863,-9.8701,-9.8778,-9.8631,-9.8631,-9.8669,-9.9359,-10.0939,-10.015,-10.0635,-10.3566,-10.2887,-10.209,-10.2052,-10.209,-10.1444,-10.0267,-9.9788,-9.9664,-9.9806,-9.9707,-9.9658,-9.98,-9.975,-9.9599,-9.9764,-10.0621,-10.1247,-10.153,-10.296,-10.3997,-10.4258,-10.5861,-10.7139,-10.7139,-10.8088,-10.8847,-10.9189,-10.8961,-10.9037,-10.9037,-10.8088,-10.7329,-10.7139,-10.7013,-10.6761,-10.645,-10.7016,-10.6848,-9.7192,-9.9659,-10.0693,-10.1085,-10.1018,-9.9925,-10.0085,-10.1303,-10.1313,0.0,0.0,-10.6849,-10.6048,-10.4229,-10.4127,-10.2683,-10.0214,-10.0151,-10.0553,-10.1359,-10.166,-10.1805,-10.1781,-10.2109,-10.142,-10.0025,-10.1193,-10.1344,-10.0524,-10.2106,-10.2498,-10.1745,-10.1688,-10.1205,-10.0055,-9.8074,-9.6377,-9.5017,-9.3938,-9.3471,-9.3507,-9.3507,-9.2258,-8.969,-9.2401,-9.2686,-9.0189,-9.2544,-9.2722,-9.0225,-9.0046,-9.0046,-9.0011,-8.9119,-9.0296,-9.3974,-9.4246,-9.5071,-9.6904,-9.7648,-9.8254,-9.893,-9.923,-9.9265,-9.8953,-9.887,-9.8986,-9.9152,-9.9003,-9.884,-9.884,-9.8698,-9.8871,-9.96,-9.9507,-9.9688,-10.0609,-10.0495,-10.0457,-10.0343,-10.0457,-10.0229,-9.9926,-9.985,-9.9887,-9.9888,-9.985,-9.9887,-9.9887,-9.985,-9.9812,-9.9812,-9.9924,-10.0004,-10.0168,-10.1423,-10.241,-10.258,-10.4124,-10.5355,-10.5431,-10.5658,-10.5848,-10.6114,-10.5886,-10.6,-10.5924,-10.5696,-10.5431,-10.5431,-10.5392,-10.5172,-10.48,-10.4628,-10.4416,-9.6799,-9.9606,-10.0809,-10.186,0.0,-10.1022,-10.0815,-10.1742,-10.2934,-10.4801,-10.7082,-10.6594,-10.5266,-10.3339,-10.1745,-9.9666,-9.725,-9.6883,-9.6825,-9.7173,-9.8034,-9.8061,-9.7555,-9.8421,-9.7969,-9.6426,-9.6855,-9.7136,-9.7344,-9.8646,-9.9298,-9.924,-9.9277,-9.8093,-9.5772,-9.5339,-9.472,-9.3935,-9.3114,-9.2722,-9.2722,-9.2722,-9.2008,-9.0546,-9.2686,0.0,0.0,0.0,0.0,0.0,0.0,0.0,0.0,0.0,0.0,-9.0601,-8.9827,-9.0219,-9.2359,-9.3263,-9.4417,-9.5903,-9.6762,-9.661,-9.5123,-9.5833,-9.6832,-9.7918,-9.7928,-9.7836,-9.7874,-9.854,-9.9095,-9.9364,-9.9446,-9.9583,-9.985,-9.9888,-9.9888,-9.9888,-9.9888,-9.9888,-9.9888,-9.9888,-9.9888,-9.9888,-9.9888,-9.9888,-9.9888,-9.9888,-9.9888,-9.9888,-9.9792,-9.9698,-9.9788,-10.0509,-10.0969,-10.1178,-10.2465,-10.3532,-10.3684,-10.4368,-10.4937,-10.4937,-10.4937,-10.4937,-10.4899,-10.4216,-10.3722,-10.3684,-10.3561,-10.3166,-10.2039,-10.1716,-10.1623,-9.6528,-9.9224,-10.088,-10.2497,-10.4026,-10.2328,-10.2095,-10.3073,-10.471,-10.6334,-10.7601,-10.536,-10.3413,-10.1597,-9.8244,-9.5831,-9.4209,-9.3545,-9.3251,-9.34,-9.4856,-9.4804,-9.3502,-9.4809,-9.445,-9.2775,-9.2492,-9.2752,-9.3547,-9.4559,-9.5326,-9.5793,-9.5761,-9.4157,-9.1331,0.0,0.0,0.0,-9.2222,-9.2008,-9.2044,-9.1935,-9.1616,-9.0795,-9.2508,0.0,-9.2222,-9.3083,-9.287,-9.108,-9.1041,0.0,0.0,0.0,0.0,0.0,0.0,0.0,0.0,0.0,0.0,0.0,-9.3435,-9.2575,-9.0107,-9.2032,-9.4407,-9.6613,-9.6573,-9.6535,-9.6838,-9.7824,-9.8574,-9.9014,-9.9072,-9.9303,-9.985,-9.9888,-9.9888,-9.9888,-9.9888,-9.9888,-9.9888,-9.9888,-9.9888,-9.9888,-9.9888,-9.9888,-9.9888,-9.9584,-9.9432,-9.947,-9.9356,-9.9508,-9.985,-9.9926,-10.0039,-10.0039,-10.114,-10.19,-10.2014,-10.3077,-10.3912,-10.3874,-10.3988,-10.3912,-10.3912,-10.2925,-10.1976,-10.1938,-10.1804,-10.1223,-9.9903,-9.9583,-9.9458,-9.595,-9.7815,-10.1578,-10.2852,-10.261,-10.3622,-10.466,-10.5392,-10.4237,-10.4651,-10.611,-10.4346,-10.2338,-9.9977,-9.6115,-9.344,-9.2001,-9.1733,-9.1984,-9.2691,-9.3473,-9.3022,-9.1523,-9.1744,-9.0673,-8.8576,-8.9758,-8.9797,-8.8829,-8.9426,-8.9966,-9.0188,-8.9354,-8.9102,-8.944,-8.8774,-8.8244,-8.787,-9.1652,-9.3614,-9.3614,-9.3614,-9.1652,-8.787,-9.0367,-8.9939,-8.6086,-9.0369,-9.1517,-8.8758,-8.9024,-8.8682,-8.7161,-8.4167,-8.3056,0.0,-8.353,0.0,0.0,0.0,0.0,0.0,0.0,0.0,0.0,-8.9094,-9.3299,-9.6842,-9.578,-9.5553,-9.6994,-9.5789,-9.5606,-9.727,-9.7479,-9.8127,-9.9698,-9.9888,-9.9888,-9.9888,-9.9888,-9.9888,-9.9812,-9.9888,-9.9888,-9.9812,-9.9698,-9.966,-9.9812,-9.8749,-9.7875,-9.7913,-9.7913,-9.8331,-9.947,-9.985,-9.9888,-9.9888,-10.0153,-10.0229,-10.0343,-10.0495,-10.0647,-10.0685,-10.0799,-10.0685,-10.0533,-10.0457,-10.0267,-10.0343,-10.0267,-10.0075,-9.977,-9.9593,-9.9527,-9.4149,-9.7252,-10.0177,-10.2256,-10.3557,-10.4303,-10.5573,-10.7156,-10.6446,-10.6521,-10.7044,-10.4539,-10.1076,-9.7085,-9.355,-9.1314,-9.014,-8.9687,-8.934,-8.9318,-8.9939,-8.9923,-8.9216,-8.9216,-8.8688,-8.7697,-8.7566,-8.7365,-8.7044,-8.6912,-8.7029,-8.7399,-8.6915,-8.5183,-8.2541,-8.5036,-8.654,-8.6942,-8.9797,-9.1295,-9.1295,-9.1331,-9.0296,-8.8334,-8.9547,-8.9401,-8.7756,-9.0016,-9.0488,-8.8736,-8.795,-8.705,-8.5814,-8.0708,-7.8964,0.0,0.0,0.0,0.0,0.0,0.0,0.0,0.0,0.0,0.0,0.0,-9.0161,-9.0089,-9.2155,-9.3795,-9.4554,-9.4674,-9.5046,-9.5916,-9.6832,-9.737,-9.723,-9.8027,-9.8255,-9.7344,-9.8065,-9.8293,-9.7382,-9.8787,-9.9584,-9.8711,-9.7799,-9.7837,-9.928,-9.7724,-9.6167,-9.6205,-9.6167,-9.6736,-9.8369,-9.9318,-9.9888,-9.985,-9.9204,-9.89,-9.9774,-9.9242,-9.89,-9.9736,-9.9888,-9.985,-9.9754,-9.9806,-9.9847,-9.9645,-9.9029,-9.8506,-9.8596,-9.9198,-9.9716,-9.3293,-9.6752,-9.9154,-10.1888,-10.4599,-10.4823,-10.5713,-10.7156,-10.7942,-10.7605,-10.6409,-10.4315,-9.9966,-9.3917,-9.0053,-8.8,-8.7387,-8.7163,-8.6858,-8.6743,-8.7531,-8.7904,-8.7904,-8.7703,-8.7457,-8.6948,-8.5725,-8.5127,-8.5028,-8.3962,-8.3432,-8.3304,-8.1795,-7.9143,-7.5766,-8.0456,-8.4192,-8.6695,-8.8185,-8.9177,-8.9702,-8.9738,-8.9523,-8.9164,-8.9164,-8.9274,-8.9364,-8.9891,-8.9687,-8.8716,-8.7247,-8.5536,-8.3666,-7.7713,0.0,0.0,0.0,0.0,0.0,0.0,0.0,0.0,0.0,-7.7956,-7.4329,0.0,-8.5464,0.0,-8.7166,-9.0434,-9.1231,-9.2143,0.0,0.0,-9.4341,-9.506,-9.4938,-9.5703,-9.6125,-9.5592,-9.6394,-9.6509,-9.5218,-9.723,-9.8179,-9.6585,-9.5635,-9.5939,-9.8217,-9.6281,-9.4458,-9.4458,-9.4458,-9.4914,-9.6167,-9.7724,-9.8673,-9.8749,-9.7761,-9.7382,-9.8559,-9.7724,-9.7382,-9.8483,-9.871,-9.862,-9.8339,-9.8437,-9.8443,-9.8266,-9.7393,-9.6685,-9.6964,-9.7875,-9.8862,-9.4716,-9.6044,-9.9524,-10.239,-10.465,-10.5476,-10.5022,-10.4053,-10.6969,-10.5736,-10.1623,-10.2819,-9.8967,-9.1159,-8.5233,0.0,-8.2778,-8.3943,-8.5249,-8.6756,-8.7984,-8.8577,-8.8543,-8.7944,-8.6816,-8.5155,-8.4493,-8.3223,-8.1588,-7.9136,-7.7306,-7.5942,-6.9994,-6.8577,-7.1721,-7.4571,-7.9451,-8.6232,-8.7453,-8.906,-9.1151,-9.1187,-9.0492,-8.9067,-8.9047,-8.8389,-8.7155,-8.8959,-8.9271,-8.7877,-8.6723,-8.4026,-7.9495,0.0,0.0,0.0,0.0,0.0,0.0,0.0,0.0,0.0,0.0,0.0,0.0,0.0,0.0,0.0,-8.0981,0.0,-8.7587,-8.66,0.0,0.0,0.0,-8.9761,-9.3896,-9.3267,-9.3711,-9.67,0.0,0.0,-9.5066,-9.5294,-9.48,-9.313,-9.4193,-9.5142,-9.537,-9.3927,-9.2712,-9.2712,-9.2712,-9.2788,-9.3282,-9.461,-9.5749,-9.5749,-9.5332,-9.5332,-9.5559,-9.5332,-9.5294,-9.5597,-9.5271,-9.5144,-9.5098,-9.4914,-9.4751,-9.4719,-9.4775,-9.4932,-9.5218,-9.5484,-9.6167,-9.5026,-9.6131,-9.8029,-10.0226,-10.2338,-10.2736,-10.3081,-10.3455,-10.3679,-10.2184,-9.9305,-9.5673,-9.1401,-8.6717,-8.0398,0.0,0.0,0.0,-8.0171,-8.3084,-8.407,-8.5331,-8.6659,-8.5837,-8.4551,-8.2861,-8.0869,-7.8113,-7.4848,-7.3054,-6.8753,-6.1914,0.0,0.0,-6.7324,-7.3605,-7.9344,-8.4187,-8.6177,-8.7604,-8.8511,-8.8511,-8.8269,-8.7646,-8.7609,-8.7554,-8.7308,-8.8123,-8.8049,-8.6797,-8.4474,-8.1807,0.0,0.0,0.0,0.0,0.0,0.0,0.0,0.0,0.0,0.0,0.0,-7.0708,-6.6987,0.0,0.0,0.0,-7.8762,-8.1762,-8.4208,-8.3828,0.0,0.0,0.0,0.0,0.0,0.0,0.0,-9.3724,-9.2745,-9.2204,-9.3357,-9.2511,-9.2301,-9.3634,-9.2642,-9.258,-9.4724,0.0,-9.1004,-9.1004,-9.1004,-9.1383,-9.2408,-9.3927,-9.5028,-9.5028,-9.4231,-9.3851,-9.4762,-9.403,-9.3672,-9.4496,-9.461,-9.4382,-9.4232,-9.2333,-9.0914,-9.1112,-9.2019,-9.2896,-9.3232,-9.4128,-9.5351,-9.5761,0.0,0.0,0.0,0.0,-9.9492,-9.994,-10.0539,-10.0314,-9.8443,-9.5115,-9.007,0.0,0.0,0.0,0.0,0.0,0.0,-7.5618,-7.8686,-7.9871,-8.1329,-8.2992,-8.1665,-8.003,-7.8131,-7.5281,-7.1831,-6.7909,-6.5448,-6.0114,-5.2488,0.0,0.0,0.0,0.0,-7.8817,-8.2668,-8.563,-8.721,-8.7414,-8.7401,-8.7353,-8.739,-8.7288,-8.7501,-8.8027,-8.754,-8.6425,-8.4765,-8.162,0.0,0.0,0.0,0.0,0.0,0.0,0.0,0.0,0.0,0.0,0.0,0.0,0.0,0.0,0.0,0.0,0.0,0.0,0.0,-7.95,-8.0449,-8.0791,0.0,0.0,0.0,0.0,0.0,0.0,0.0,0.0,0.0,-9.1342,-9.0468,-9.0491,0.0,0.0,-9.0569,-9.3119,-9.2332,-9.1535,-9.1877,-9.2446,0.0,-9.3851,-9.4572,-9.4876,-9.4383,-9.294,-9.2332,-9.3959,-9.2675,-9.1932,-9.3522,-9.3287,-9.2672,-9.2308,-9.0639,-8.9633,-8.9694,-9.0665,-9.1611,-9.197,-9.2567,-9.3718,0.0,0.0,0.0,0.0,0.0,0.0,0.0,0.0,-9.7174,-9.4591,0.0,-8.7749,0.0,0.0,0.0,0.0,-6.8864,-7.0598,0.0,0.0,-7.6,-7.7013,-7.6868,-7.5117,-7.2807,-7.0054,-6.7567,-6.4462,-6.0744,-5.5827,0.0,0.0,0.0,0.0,0.0,0.0,-7.6777,-8.1614,-8.6004,-8.8479,-8.9111,-8.8992,-8.8931,-8.8904,-8.8696,-8.8664,-8.8867,-8.7122,-8.4653,-8.1545,-7.833,0.0,0.0,0.0,0.0,0.0,0.0,0.0,0.0,0.0,0.0,0.0,0.0,0.0,0.0,0.0,0.0,0.0,0.0,0.0,0.0,-7.5779,0.0,0.0,0.0,0.0,0.0,0.0,0.0,0.0,0.0,0.0,-8.9317,-8.9627,-8.9541,-8.9458,0.0,0.0,0.0,0.0,-9.518,-9.6091,-9.8141,-9.89,-9.7458,-9.6015,-9.4496,-9.2864,0.0,0.0,-9.2034,-9.0841,-9.0234,-9.1561,-9.0526,-8.9128,-8.8945,-9.0029,-9.0954,-9.1095,-9.1263,-9.1456,-9.1624,-9.096,-9.0727,0.0,0.0,0.0,0.0,0.0,0.0,0.0,0.0,0.0,-8.9472,-8.577,-8.1304,0.0,0.0,0.0,0.0,0.0,0.0,0.0,0.0,-6.9907,-7.1,-7.1642,-7.024,-6.8107,0.0,-6.1926,-5.7218,0.0,0.0,0.0,0.0,0.0,0.0,0.0,0.0,-7.7648,-8.1039,-8.614,-8.8888,-8.9091,-8.9144,-8.9083,-8.9046,-8.8952,-8.7835,-8.5654,-8.4969,-8.3041,0.0,0.0,0.0,0.0,0.0,0.0,0.0,0.0,0.0,0.0,0.0,0.0,0.0,0.0,0.0,0.0,0.0,0.0,0.0,0.0,0.0,0.0,0.0,-7.445,0.0,0.0,0.0,0.0,0.0,0.0,0.0,0.0,0.0,-8.7449,-8.7838,-8.8156,-8.9007,-8.9163,-8.935,-8.9572,0.0,0.0,0.0,0.0,0.0,0.0,0.0,-9.3244,-9.2636,-9.294,-9.347,-9.3957,-9.2349,-9.1124,-9.146,0.0,0.0,-8.8612,-8.9135,-8.9539,-8.9558,-9.1314,-9.2196,-9.0325,-9.1397,-9.2562,0.0,0.0,0.0,0.0,0.0,0.0,0.0,0.0,0.0,-8.4829,-8.2435,0.0,0.0,0.0,0.0,0.0,0.0,0.0,0.0,0.0,0.0,0.0,-6.5677,-6.3987,0.0,0.0,0.0,0.0,0.0,0.0,0.0,0.0,0.0,0.0,0.0,0.0,-7.8632,-8.0501,-8.6237,-8.9209,-8.9247,-8.9287,-8.9258,-8.9114,-8.9114,-8.7452,-8.3895,0.0,0.0,0.0,0.0,0.0,0.0,0.0,0.0,0.0,0.0,0.0,0.0,0.0,0.0,0.0,0.0,0.0,0.0,0.0,0.0,0.0,0.0,0.0,0.0,0.0,-7.1489,0.0,0.0,0.0,0.0,0.0,0.0,0.0,0.0,0.0,0.0,0.0,-8.7222,-8.8029,-8.8682,-8.9076,-8.9285,-9.0329,-9.252,0.0,0.0,0.0,0.0,0.0,0.0,0.0,0.0,0.0,0.0,0.0,0.0,0.0,0.0,-8.7789,-8.7752,-8.7789,-8.7789,-8.7789,0.0,0.0,0.0,0.0,0.0,0.0,0.0,0.0,0.0,0.0,0.0,0.0,0.0,0.0,0.0,-7.7757,0.0,0.0,-6.8594,0.0,0.0,0.0,0.0,0.0,0.0,0.0,0.0,0.0,0.0,0.0,0.0,0.0,0.0,0.0,0.0,0.0,0.0,0.0,0.0,0.0,0.0,-7.9443,-7.9788,-8.6222,-8.9598,-8.9598,-8.9629,-8.9493,-8.9237,-8.9237,-8.7476,-8.3889,0.0,0.0,0.0,0.0,0.0,0.0,0.0,0.0,0.0,0.0,0.0,0.0,0.0,0.0,0.0,0.0,0.0,0.0,0.0,0.0,0.0,0.0,0.0,0.0,0.0,0.0,-6.9933,-7.1489,-7.2476,0.0,0.0,0.0,0.0,0.0,0.0,0.0,0.0,0.0,-8.6687,-8.8016,-8.8983,-8.887,-9.1923,-9.7481,-10.7332,-10.3248,-9.9067,-9.8802,-9.6173,-9.3139,0.0,0.0,0.0,0.0,0.0,0.0,0.0,0.0,0.0,0.0,0.0,0.0,0.0,0.0,0.0,0.0,0.0,0.0,0.0,0.0,0.0,0.0,0.0,0.0,0.0,0.0,0.0,0.0,0.0,0.0,0.0,0.0,0.0,0.0,0.0,0.0,0.0,0.0,0.0,0.0,0.0,0.0,0.0,0.0,0.0,0.0,0.0,0.0,0.0,0.0,0.0,0.0,0.0,0.0,-7.9621,-7.9712,-8.6205,-8.9627,-8.9627,-8.9749,-8.9758,-8.9504,-8.9493,-8.774,0.0,0.0,0.0,0.0,0.0,0.0,0.0,0.0,0.0,0.0,0.0,0.0,0.0,0.0,0.0,0.0,0.0,0.0,0.0,0.0,0.0,0.0,0.0,0.0,0.0,0.0,0.0,0.0,-7.0426,-7.1224,-7.2362,0.0,0.0,0.0,0.0,0.0,0.0,0.0,0.0,0.0,0.0,-8.9558,-9.1706,-9.3163,-9.4312,-9.5156,-9.5572,-9.4591,-9.1183,-9.0871,-9.1144,-9.1448,0.0,0.0,0.0,0.0,0.0,0.0,0.0,0.0,0.0,0.0,0.0,0.0,0.0,0.0,0.0,0.0,0.0,0.0,0.0,0.0,0.0,0.0,0.0,0.0,0.0,0.0,0.0,0.0,0.0,0.0,0.0,0.0,0.0,0.0,0.0,0.0,0.0,0.0,0.0,0.0,0.0,0.0,0.0,0.0,0.0,0.0,0.0,0.0,0.0,0.0,0.0,0.0,0.0,-7.959,-7.975,-8.6243,-8.9627,-8.9636,-8.9854,-8.9895,-8.9627,-8.9627,-8.7235,0.0,0.0,0.0,0.0,0.0,0.0,0.0,0.0,0.0,0.0,0.0,0.0,0.0,0.0,0.0,0.0,0.0,0.0,0.0,0.0,0.0,0.0,0.0,0.0,0.0,0.0,0.0,0.0,-6.7655,-6.868,-7.0388,0.0,0.0,0.0,0.0,0.0,0.0,0.0,0.0,0.0,0.0,-8.8312,-9.0112,-9.1244,0.0,0.0,-9.1504,-9.074,-8.6904,-8.6937,-8.7979,-8.9391,-9.0094,0.0,0.0,0.0,0.0,0.0,0.0,0.0,0.0,0.0,0.0,0.0,0.0,0.0,0.0,0.0,0.0,0.0,0.0,0.0,0.0,0.0,0.0,0.0,0.0,0.0,0.0,0.0,0.0,0.0,0.0,0.0,0.0,0.0,0.0,0.0,0.0,0.0,0.0,0.0,0.0,0.0,0.0,0.0,0.0,0.0,0.0,0.0,0.0,0.0,0.0,0.0,0.0,-7.945,-7.9925,-8.6252,-8.9627,-8.9627,-8.9851,-8.9823,-8.9651,-8.9651,-8.6362,0.0,0.0,0.0,0.0,0.0,0.0,0.0,0.0,0.0,0.0,0.0,0.0,0.0,0.0,0.0,0.0,0.0,0.0,0.0,0.0,0.0,0.0,0.0,0.0,0.0,0.0,0.0,0.0,0.0,0.0,0.0,0.0,0.0,0.0,0.0,0.0,0.0,0.0,0.0,0.0,0.0,-8.577,-8.5218,-8.7232,-8.9764,0.0,-9.0654,-8.8234,-8.6065,-8.4962,-8.4709,-8.5846,0.0,0.0,0.0,0.0,0.0,0.0,0.0,0.0,0.0,0.0,0.0,0.0,0.0,0.0,0.0,0.0,0.0,0.0,0.0,0.0,0.0,0.0,0.0,0.0,0.0,0.0,0.0,0.0,0.0,0.0,0.0,0.0,0.0,0.0,0.0,0.0,0.0,0.0,0.0,0.0,0.0,0.0,0.0,0.0,0.0,0.0,0.0,0.0,0.0,0.0,0.0,0.0,0.0,0.0,-7.9794,-8.6233,-8.9627,-8.9627,-8.9493,-8.9448,-8.9578,-8.9653,0.0,0.0,0.0,0.0,0.0,0.0,0.0,0.0,0.0,0.0,0.0,0.0,0.0,0.0,0.0,0.0,0.0,0.0,0.0,0.0,0.0,0.0,0.0,0.0,0.0,0.0,0.0,-6.0745,0.0,0.0,0.0,0.0,0.0,0.0,0.0,0.0,0.0,0.0,0.0,0.0,0.0,0.0,-8.407,-8.3255,-8.7356,-8.9471,0.0,0.0,-9.1677,-8.9958,-8.863,-8.8897,0.0,0.0,0.0,0.0,0.0,0.0,0.0,0.0,0.0,0.0,0.0,0.0,0.0,0.0,0.0,0.0,0.0,0.0,0.0,0.0,0.0,0.0,0.0,0.0,0.0,0.0,0.0,0.0,0.0,0.0,0.0,0.0,0.0,0.0,0.0,0.0,0.0,0.0,0.0,0.0,0.0,0.0,0.0,0.0,0.0,0.0,0.0,0.0,0.0,0.0,0.0,0.0,0.0,0.0,-7.7903,-7.964,-8.4791,-8.8159,-8.9382,-8.9285,-8.9285,-8.9458,-8.9524,-8.7152,0.0,0.0,0.0,0.0,0.0,0.0,0.0,0.0,0.0,0.0,0.0,0.0,0.0,0.0,0.0,0.0,0.0,0.0,0.0,0.0,0.0,0.0,0.0,0.0,0.0,0.0,0.0,0.0,0.0,0.0,0.0,0.0,0.0,0.0,0.0,0.0,0.0,0.0,0.0,0.0,0.0,0.0,-8.2879,-8.5893,0.0,0.0,0.0,-8.9285,-8.6256,0.0,0.0,0.0,0.0,0.0,0.0,0.0,0.0,0.0,0.0,0.0,0.0,0.0,0.0,0.0,0.0,0.0,0.0,0.0,0.0,0.0,0.0,0.0,0.0,0.0,0.0,0.0,0.0,0.0,0.0,0.0,0.0,0.0,0.0,0.0,0.0,0.0,0.0,0.0,0.0,0.0,0.0,0.0,0.0,0.0,0.0,0.0,0.0,0.0,0.0,0.0,0.0,0.0,0.0,0.0,0.0,0.0,-7.9272,-8.3246,-8.6566,-8.9034,-8.9092,-8.9073,-8.9073,-8.9329,-8.7116,0.0,0.0,0.0,0.0,0.0,0.0,0.0,0.0,0.0,0.0,0.0,0.0,0.0,0.0,0.0,0.0,0.0,0.0,0.0,0.0,0.0,0.0,0.0,0.0,0.0,0.0,0.0,0.0,0.0,0.0,0.0,0.0,0.0,0.0,0.0,0.0,0.0,0.0,0.0,0.0,0.0,-7.8089,-8.2248,-8.3209,-8.3633,0.0,0.0,-8.5134,-8.0573,-8.1553,0.0,0.0,0.0,0.0,0.0,0.0,0.0,0.0,0.0,0.0,0.0,0.0,0.0,0.0,0.0,0.0,0.0,0.0,0.0,0.0,0.0,0.0,0.0,0.0,0.0,0.0,0.0,0.0,0.0,0.0,0.0,0.0,0.0,0.0,0.0,0.0,0.0,0.0,0.0,0.0,0.0,0.0,0.0,0.0,0.0,0.0,0.0,0.0,0.0,0.0,0.0,0.0,0.0,0.0,0.0,0.0,-7.9295,-8.5173,-8.8562,-8.8969,-8.8338,-8.8097,-8.8308,-8.836,-8.67,0.0,0.0,0.0,0.0,0.0,0.0,0.0,0.0,0.0,0.0,0.0,0.0,0.0,0.0,0.0,0.0,0.0,0.0,0.0,0.0,0.0,0.0,0.0,0.0,0.0,0.0,0.0,0.0,0.0,0.0,0.0,0.0,0.0,0.0,0.0,0.0,0.0,0.0,0.0,0.0,0.0,-7.6441,-7.6153,-7.9379,0.0,0.0,0.0,0.0,-8.7004,-8.8468,0.0,0.0,0.0,0.0,0.0,0.0,0.0,0.0,0.0,0.0,0.0,0.0,0.0,0.0,0.0,0.0,0.0,0.0,0.0,0.0,0.0,0.0,0.0,0.0,0.0,0.0,0.0,0.0,0.0,0.0,0.0,0.0,0.0,0.0,0.0,0.0,0.0,0.0,0.0,0.0,0.0,0.0,0.0,0.0,0.0,0.0,0.0,0.0,0.0,0.0,0.0,0.0,0.0,0.0,0.0,0.0,-8.0258,-8.4592,-8.7519,-8.8773,-8.8101,-8.7711,-8.7877,-8.7985,-8.6546,0.0,0.0,0.0,0.0,0.0,0.0,0.0,0.0,0.0,0.0,0.0,0.0,0.0,0.0,0.0,0.0,0.0,0.0,0.0,0.0,0.0,0.0,0.0,0.0,0.0,0.0,0.0,0.0,0.0,0.0,0.0,0.0,0.0,0.0,0.0,0.0,0.0,0.0,0.0,0.0,-7.5816,-7.6973,-7.7541,0.0,0.0,0.0,0.0,0.0,0.0,-8.796,-9.0965,0.0,0.0,0.0,0.0,0.0,0.0,0.0,0.0,0.0,0.0,0.0,0.0,0.0,0.0,0.0,0.0,0.0,0.0,0.0,0.0,0.0,0.0,0.0,0.0,0.0,0.0,0.0,0.0,0.0,0.0,0.0,0.0,0.0,0.0,0.0,0.0,0.0,0.0,0.0,0.0,0.0,0.0,0.0,0.0,0.0,0.0,0.0,0.0,0.0,0.0,0.0,0.0,0.0,0.0,0.0,-8.1283,-8.385,-8.6323,-8.8595,-8.8023,-8.7697,-8.766,-8.7802,-8.6311,-8.31,0.0,0.0,0.0,0.0,0.0,0.0,0.0,0.0,0.0,0.0,0.0,0.0,0.0,0.0,0.0,0.0,0.0,0.0,0.0,0.0,0.0,0.0,0.0,0.0,0.0,0.0,0.0,0.0,0.0,0.0,0.0,0.0,0.0,0.0,0.0,0.0,0.0,0.0,0.0,-7.7125,-7.9272,0.0,0.0,0.0,0.0,0.0,0.0,0.0,0.0,-8.9808,0.0,0.0,0.0,0.0,0.0,0.0,0.0,0.0,0.0,0.0,0.0,0.0,0.0,0.0,0.0,0.0,0.0,0.0,0.0,0.0,0.0,0.0,0.0,0.0,0.0,0.0,0.0,0.0,0.0,0.0,0.0,0.0,0.0,0.0,0.0,0.0,0.0,0.0,0.0,0.0,0.0,0.0,0.0,0.0,0.0,0.0,0.0,0.0,0.0,0.0,0.0,0.0,0.0,0.0,0.0,0.0,-8.614,-8.8617,-8.8942,-8.8139,-8.7697,-8.766,-8.7151,-8.5565,-8.2773,0.0,0.0,0.0,0.0,0.0,0.0,0.0,0.0,0.0,0.0,0.0,0.0,0.0,0.0,0.0,0.0,0.0,0.0,0.0,0.0,0.0,0.0,0.0,0.0,0.0,0.0,0.0,0.0,0.0,0.0,0.0,0.0,0.0,0.0,0.0,0.0,0.0,0.0,-8.0431,-8.2119,0.0,0.0,0.0,0.0,0.0,0.0,0.0,0.0,-8.7203,0.0,0.0,0.0,0.0,0.0,0.0,0.0,0.0,0.0,0.0,0.0,0.0,0.0,0.0,0.0,0.0,0.0,0.0,0.0,0.0,0.0,0.0,0.0,0.0,0.0,0.0,0.0,0.0,0.0,0.0,0.0,0.0,0.0,0.0,0.0,0.0,0.0,0.0,0.0,0.0,0.0,0.0,0.0,0.0,0.0,0.0,0.0,0.0,0.0,0.0,0.0,0.0,0.0,0.0,0.0,0.0,0.0,0.0,-8.9275,-8.9008,-8.8271,-8.7798,-8.766,-8.7362,-8.6347,0.0,0.0,0.0,0.0,0.0,0.0,0.0,0.0,0.0,0.0,0.0,0.0,0.0,0.0,0.0,0.0,0.0,0.0,0.0,0.0,0.0,0.0,0.0,0.0,0.0,0.0,0.0,0.0,0.0,0.0,0.0,0.0,0.0,0.0,0.0,0.0,0.0,0.0,0.0,0.0,0.0,0.0,0.0,0.0,0.0,0.0,0.0,0.0,0.0,0.0,0.0,0.0,0.0,0.0,0.0,0.0,0.0,0.0,0.0,0.0,0.0,0.0,0.0,0.0,0.0,0.0,0.0,0.0,0.0,0.0,0.0,0.0,0.0,0.0,0.0,0.0,0.0,0.0,0.0,0.0,0.0,0.0,0.0,0.0,0.0,0.0,0.0,0.0,0.0,0.0,0.0,0.0,0.0,0.0,0.0,0.0,0.0,0.0,0.0,0.0,0.0,0.0,0.0,0.0,0.0,0.0,0.0,0.0,-8.9406,-8.912,-8.8568,-8.8166,-8.7951,-8.7951,-8.7058,0.0,0.0,0.0,0.0,0.0,0.0,0.0,0.0,0.0,0.0,0.0,0.0,0.0,0.0,0.0,0.0,0.0,0.0,0.0,0.0,0.0,0.0,0.0,0.0,0.0,0.0,0.0,0.0,0.0,0.0,0.0,0.0,0.0,0.0,0.0,0.0,0.0,0.0,0.0,0.0,0.0,0.0,0.0,0.0,0.0,0.0,0.0,0.0,-8.7644,0.0,0.0,0.0,0.0,0.0,0.0,0.0,0.0,0.0,0.0,0.0,0.0,0.0,0.0,0.0,0.0,0.0,0.0,0.0,0.0,0.0,0.0,0.0,0.0,0.0,0.0,0.0,0.0,0.0,0.0,0.0,0.0,0.0,0.0,0.0,0.0,0.0,0.0,0.0,0.0,0.0,0.0,0.0,0.0,0.0,0.0,0.0,0.0,0.0,0.0,0.0,0.0,0.0,0.0,0.0,0.0,0.0,0.0,0.0,-8.9354,-8.9514,-8.9163,-8.8969,-8.8877,-8.8877,-8.6798,0.0,0.0,0.0,0.0,0.0,0.0,0.0,0.0,0.0,0.0,0.0,0.0,0.0,0.0,0.0,0.0,0.0,0.0,0.0,0.0,0.0,0.0,0.0,0.0,0.0,0.0,0.0,0.0,0.0,0.0,0.0,0.0,0.0,0.0,0.0,0.0,0.0,0.0,0.0,0.0,0.0,0.0,0.0,0.0,0.0,0.0,0.0,0.0,0.0,0.0,0.0,0.0,0.0,0.0,0.0,0.0,0.0,0.0,0.0,0.0,0.0,0.0,0.0,0.0,0.0,0.0,0.0,0.0,0.0,0.0,0.0,0.0,0.0,0.0,0.0,0.0,0.0,0.0,0.0,0.0,0.0,0.0,0.0,0.0,0.0,0.0,0.0,0.0,0.0,0.0,0.0,0.0,0.0,0.0,0.0,0.0,0.0,0.0,0.0,0.0,0.0,0.0,0.0,0.0,0.0,0.0,0.0,0.0,-8.8574,-8.9589,-8.9432,-8.9853,-9.0799,-8.9715,-8.7296,0.0,0.0,0.0,0.0,0.0,0.0,0.0,0.0,0.0,0.0,0.0,0.0,0.0,0.0,0.0,0.0,0.0,0.0,0.0,0.0,0.0,0.0,0.0,0.0,0.0,0.0,0.0,0.0,0.0,0.0,0.0,0.0,0.0,0.0,0.0,0.0,0.0,0.0,0.0,0.0,0.0,0.0,0.0,0.0,0.0,0.0,0.0,0.0,0.0,0.0,0.0,0.0,0.0,0.0,0.0,0.0,0.0,0.0,0.0,0.0,0.0,0.0,0.0,0.0,0.0,0.0,0.0,0.0,0.0,0.0,0.0,0.0,0.0,0.0,0.0,0.0,0.0,0.0,0.0,0.0,0.0,0.0,0.0,0.0,0.0,0.0,0.0,0.0,0.0,0.0,0.0,0.0,0.0,0.0,0.0,0.0,0.0,0.0,0.0,0.0,0.0,0.0,0.0,0.0,0.0,0.0,0.0,0.0,0.0,-8.9506,-8.9198,-8.9834,-9.1448,-8.9697,-8.6726,0.0,0.0,0.0,0.0,0.0,0.0,0.0,0.0,0.0,0.0,0.0,0.0,0.0,0.0,0.0,0.0,0.0,0.0,0.0,0.0,0.0,0.0,0.0,0.0,0.0,0.0,0.0,0.0,0.0,0.0,0.0,0.0,0.0,0.0,0.0,0.0,0.0,0.0,0.0,0.0,0.0,0.0,0.0,0.0,0.0,0.0,0.0,0.0,0.0,0.0,0.0,0.0,0.0,0.0,0.0,0.0,0.0,0.0,0.0,0.0,0.0,0.0,0.0,0.0,0.0,0.0,0.0,0.0,0.0,0.0,0.0,0.0,0.0,0.0,0.0,0.0,0.0,0.0,0.0,0.0,0.0,0.0,0.0,0.0,0.0,0.0,0.0,0.0,0.0,0.0,0.0,0.0,0.0,0.0,0.0,0.0,0.0,0.0,0.0,0.0,0.0,0.0,0.0,0.0,0.0,0.0,0.0,0.0,0.0,-8.962,-8.8178,-8.8363,-9.0092,-8.8267,-8.4157,0.0,0.0,0.0,0.0,0.0,0.0,0.0,0.0,0.0,0.0,0.0,0.0,0.0,0.0,0.0,0.0,0.0,0.0,0.0,0.0,0.0,0.0,0.0,0.0,0.0,0.0,0.0,0.0,0.0,0.0,0.0,0.0,0.0,0.0,0.0,0.0,0.0,0.0,0.0,0.0,0.0,0.0,0.0,0.0,0.0,0.0,0.0,0.0,0.0,0.0,0.0,0.0,0.0,0.0,0.0,0.0,0.0,0.0,0.0,0.0,0.0,0.0,0.0,0.0,0.0,0.0,0.0,0.0,0.0,0.0,0.0,0.0,0.0,0.0,0.0,0.0,0.0,0.0,0.0,0.0,0.0,0.0,0.0,0.0,0.0,0.0,0.0,0.0,0.0,0.0,0.0,0.0,0.0,0.0,0.0,0.0,0.0,0.0,0.0,0.0,0.0,0.0,0.0,0.0,0.0,0.0,0.0,0.0,0.0,-9.0679,-9.1554,-9.173,-9.1379,-8.8726,-8.3704,-7.6226,0.0,0.0,0.0,0.0,0.0,0.0,0.0,0.0,0.0,0.0,0.0,0.0,0.0,0.0,0.0,0.0,0.0,0.0,0.0,0.0,0.0,0.0,0.0,0.0,0.0,0.0,0.0,0.0,0.0,0.0,0.0,0.0,0.0,0.0,0.0,0.0,0.0,0.0,0.0,0.0,0.0,0.0,0.0,0.0,0.0,0.0,0.0,0.0,0.0,0.0,0.0,0.0,0.0,0.0,0.0,0.0,0.0,0.0,0.0,0.0,0.0,0.0,0.0,0.0,0.0,0.0,0.0,0.0,0.0,0.0,0.0,0.0,0.0,0.0,0.0,0.0,0.0,0.0,0.0,0.0,0.0,0.0,0.0,0.0,0.0,0.0,0.0,0.0,0.0,0.0,0.0,0.0,0.0,0.0,0.0,0.0,0.0,0.0,0.0,0.0,0.0,0.0,0.0,0.0,0.0,0.0,0.0,0.0,-9.0353,-9.1529,-9.1377,-8.9758,-8.8581,-8.388,0.0,0.0,0.0,0.0,0.0,0.0,0.0,0.0,0.0,0.0,0.0,0.0,0.0,0.0,0.0,0.0,0.0,0.0,0.0,0.0,0.0,0.0,0.0,0.0,0.0,0.0,0.0,0.0,0.0,0.0,0.0,0.0,0.0,0.0,0.0,0.0,0.0,0.0,0.0,0.0,0.0,0.0,0.0,0.0,0.0,0.0,0.0,0.0,0.0,0.0,0.0,0.0,0.0,0.0,0.0,0.0,0.0,0.0,0.0,0.0,0.0,0.0,0.0,0.0,0.0,0.0,0.0,0.0,0.0,0.0,0.0,0.0,0.0,0.0,0.0,0.0,0.0,0.0,0.0,0.0,0.0,0.0,0.0,0.0,0.0,0.0,0.0,0.0,0.0,0.0,0.0,0.0,0.0,0.0,0.0,0.0,0.0,0.0,0.0,0.0,0.0,0.0,0.0,0.0,0.0,0.0,0.0,0.0,-8.86,-8.7985,-8.7291,-8.6533,-8.4675,-8.7459,-8.4492,0.0,0.0,0.0,0.0,0.0,0.0,0.0,0.0,0.0,0.0,0.0,0.0,0.0,0.0,0.0,0.0,0.0,0.0,0.0,0.0,0.0,0.0,0.0,0.0,0.0,0.0,0.0,0.0,0.0,0.0,0.0,0.0,0.0,0.0,0.0,0.0,0.0,0.0,0.0,0.0,0.0,0.0,0.0,0.0,0.0,0.0,0.0,0.0,0.0,0.0,0.0,0.0,0.0,0.0,0.0,0.0,0.0,0.0,0.0,0.0,0.0,0.0,0.0,0.0,0.0,0.0,0.0,0.0,0.0,0.0,0.0,0.0,0.0,0.0,0.0,0.0,0.0,0.0,0.0,0.0,0.0,0.0,0.0,0.0,0.0,0.0,0.0,0.0,0.0,0.0,0.0,0.0,0.0,0.0,0.0,0.0,0.0,0.0,0.0,0.0,0.0,0.0,0.0,0.0,0.0,0.0,0.0,0.0,0.0,-9.015,0.0,-9.0717,0.0,-8.5659,-8.0802,0.0,0.0,0.0,0.0,0.0,0.0,0.0,0.0,0.0,0.0,0.0,0.0,0.0,0.0,0.0,0.0,0.0,0.0,0.0,0.0,0.0,0.0,0.0,0.0,0.0,0.0,0.0,0.0,0.0,0.0,0.0,0.0,0.0,0.0,0.0,0.0,0.0,0.0,0.0,0.0,0.0,0.0,0.0,0.0,0.0,0.0,0.0,0.0,0.0,0.0,0.0,0.0,0.0,0.0,0.0,0.0,0.0,0.0,0.0,0.0,0.0,0.0,0.0,0.0,0.0,0.0,0.0,0.0,0.0,0.0,0.0,0.0,0.0,0.0,0.0,0.0,0.0,0.0,0.0,0.0,0.0,0.0,0.0,0.0,0.0,0.0,0.0,0.0,0.0,0.0,0.0,0.0,0.0,0.0,0.0,0.0,0.0,0.0,0.0,0.0,0.0,0.0,0.0,0.0,0.0,0.0,0.0,0.0,0.0,-8.6783,-8.9773,-9.0787,-8.9366,-8.5899,-8.1187,0.0,0.0,0.0,0.0,0.0,0.0,0.0,0.0,0.0,0.0,0.0,0.0,0.0,0.0,0.0,0.0,0.0,0.0,0.0,0.0,0.0,0.0,0.0,0.0,0.0,0.0,0.0,0.0,0.0,0.0,0.0,0.0,0.0,0.0,0.0,0.0,0.0,0.0,0.0,0.0,0.0,0.0,0.0,0.0,0.0,0.0,0.0,0.0,0.0,0.0,0.0,0.0,0.0,0.0,0.0,0.0,0.0,0.0,0.0,0.0,0.0,0.0,0.0,0.0,0.0,0.0,0.0,0.0,0.0,0.0,0.0,0.0,0.0,0.0,0.0,0.0,0.0,0.0,0.0,0.0,0.0,0.0,0.0,0.0,0.0,0.0,0.0,0.0,0.0,0.0,0.0,0.0,0.0,0.0,0.0,0.0,0.0,0.0,0.0,0.0,0.0,0.0,0.0,0.0,0.0,0.0,0.0,0.0,0.0,0.0,-8.5561,-8.6748,-8.2359,-8.7527,-8.5011,0.0,0.0,0.0,0.0,0.0,0.0,0.0,0.0,0.0,0.0,0.0,0.0,0.0,0.0,0.0,0.0,0.0,0.0,0.0,0.0,0.0,0.0,0.0,0.0,0.0,0.0,0.0,0.0,0.0,0.0,0.0,0.0,0.0,0.0,0.0,0.0,0.0,0.0,0.0,0.0,0.0,0.0,0.0,0.0,0.0,0.0,0.0,0.0,0.0,0.0,0.0,0.0,0.0,0.0,0.0,0.0,0.0,0.0,0.0,0.0,0.0,0.0,0.0,0.0,0.0,0.0,0.0,0.0,0.0,0.0,0.0,0.0,0.0,0.0,0.0,0.0,0.0,0.0,0.0,0.0,0.0,0.0,0.0,0.0,0.0,0.0,0.0,0.0,0.0,0.0,0.0,0.0,0.0,0.0,0.0,0.0,0.0,0.0,0.0,0.0,0.0,0.0,0.0,0.0,0.0,0.0,0.0,0.0,0.0,0.0,-8.7441,-8.822,-8.6097,-8.2897,-7.9931,-7.7423,0.0,0.0,0.0,0.0,0.0,0.0,0.0,0.0,0.0,0.0,0.0,0.0,0.0,0.0,0.0,0.0,0.0,0.0,0.0,0.0,0.0,0.0,0.0,0.0,0.0,0.0,0.0,0.0,0.0,0.0,0.0,0.0,0.0,0.0,0.0,0.0,0.0,0.0,0.0,0.0,0.0,0.0,0.0,0.0,0.0,0.0,0.0,0.0,0.0,0.0,0.0,0.0,0.0,0.0,0.0,0.0,0.0,0.0,0.0,0.0,0.0,0.0,0.0,0.0,0.0,0.0,0.0,0.0,0.0,0.0,0.0,0.0,0.0,0.0,0.0,0.0,0.0,0.0,0.0,0.0,0.0,0.0,0.0,0.0,0.0,0.0,0.0,0.0,0.0,0.0,0.0,0.0,0.0,0.0,0.0,0.0,0.0,0.0,0.0,0.0,0.0,0.0,0.0,0.0,0.0,0.0,0.0,0.0,0.0,0.0,-8.7586,-8.5994,-8.225,-7.9046,0.0,0.0,0.0,0.0,0.0,0.0,0.0,0.0,0.0,0.0,0.0,0.0,0.0,0.0,0.0,0.0,0.0,0.0,0.0,0.0,0.0,0.0,0.0,0.0,0.0,0.0,0.0,0.0,0.0,0.0,0.0,0.0,0.0,0.0,0.0,0.0,0.0,0.0,0.0,0.0,0.0,0.0,0.0,0.0,0.0,0.0,0.0,0.0,0.0,0.0,0.0,0.0,0.0,0.0,0.0,0.0,0.0,0.0,0.0,0.0,0.0,0.0,0.0,0.0,0.0,0.0,0.0,0.0,0.0,0.0,0.0,0.0,0.0,0.0,0.0,0.0,0.0,0.0,0.0,0.0,0.0,0.0,0.0,0.0,0.0,0.0,0.0,0.0,0.0,0.0,0.0,0.0,0.0,0.0,0.0,0.0,0.0,0.0,0.0,0.0,0.0,0.0,0.0,0.0,0.0,0.0,0.0,0.0,0.0,0.0,0.0,-8.5457,-8.3808,-8.3644,0.0,-7.369,0.0,0.0,0.0,0.0,0.0,0.0,0.0,0.0,0.0,0.0,0.0,0.0,0.0,0.0,0.0,0.0,0.0,0.0,0.0,0.0,0.0,0.0,0.0,0.0,0.0,0.0,0.0,0.0,0.0,0.0,0.0,0.0,0.0,0.0,0.0,0.0,0.0,0.0,0.0,0.0,0.0,0.0,0.0,0.0,0.0,0.0,0.0,0.0,0.0,0.0,0.0,0.0,0.0,0.0,0.0,0.0,0.0,0.0,0.0,0.0,0.0,0.0,0.0,0.0,0.0,0.0,0.0,0.0,0.0,0.0,0.0,0.0,0.0,0.0,0.0,0.0,0.0,0.0,0.0,0.0,0.0,0.0,0.0,0.0,0.0,0.0,0.0,0.0,0.0,0.0,0.0,0.0,0.0,0.0,0.0,0.0,0.0,0.0,0.0,0.0,0.0,0.0,0.0,0.0,0.0,0.0,0.0,0.0,0.0,0.0,0.0,0.0,-8.072,-7.7289,-7.8132,0.0,0.0,0.0,0.0,0.0,0.0,0.0,0.0,0.0,0.0,0.0,0.0,0.0,0.0,0.0,0.0,0.0,0.0,0.0,0.0,0.0,0.0,0.0,0.0,0.0,0.0,0.0,0.0,0.0,0.0,0.0,0.0,0.0,0.0,0.0,0.0,0.0,0.0,0.0,0.0,0.0,0.0,0.0,0.0,0.0,0.0,0.0,0.0,0.0,0.0,0.0,0.0,0.0,0.0,0.0,0.0,0.0,0.0,0.0,0.0,0.0,0.0,0.0,0.0,0.0,0.0,0.0,0.0,0.0,0.0,0.0,0.0,0.0,0.0,0.0,0.0,0.0,0.0,0.0,0.0,0.0,0.0,0.0,0.0,0.0,0.0,0.0,0.0,0.0,0.0,0.0,0.0,0.0,0.0,0.0,0.0,0.0,0.0,0.0,0.0,0.0,0.0,0.0,0.0,0.0,0.0,0.0,0.0,0.0,0.0,-7.9201,-8.6181,-8.0423,-7.7701,-7.8779,0.0,0.0,0.0,0.0,0.0,0.0,0.0,0.0,0.0,0.0,0.0,0.0,0.0,0.0,0.0,0.0,0.0,0.0,0.0,0.0,0.0,0.0,0.0,0.0,0.0,0.0,0.0,0.0,0.0,0.0,0.0,0.0,0.0,0.0,0.0,0.0,0.0,0.0,0.0,0.0,0.0,0.0,0.0,0.0,0.0,0.0,0.0,0.0,0.0,0.0,0.0,0.0,0.0,0.0,0.0,0.0,0.0,0.0,0.0,0.0,0.0,0.0,0.0,0.0,0.0,0.0,0.0,0.0,0.0,0.0,0.0,0.0,0.0,0.0,0.0,0.0,0.0,0.0,0.0,0.0,0.0,0.0,0.0,0.0,0.0,0.0,0.0,0.0,0.0,0.0,0.0,0.0,0.0,0.0,0.0,0.0,0.0,0.0,0.0,0.0,0.0,0.0,0.0,0.0,0.0,0.0,0.0,0.0,0.0,0.0,0.0,0.0,0.0,0.0,-7.7069,0.0,0.0,0.0,0.0,0.0,0.0,0.0,0.0,0.0,0.0,0.0,0.0,0.0,0.0,0.0,0.0,0.0,0.0,0.0,0.0,0.0,0.0,0.0,0.0,0.0,0.0,0.0,0.0,0.0,0.0,0.0,0.0,0.0,0.0,0.0,0.0,0.0,0.0,0.0,0.0,0.0,0.0,0.0,0.0,0.0,0.0,0.0,0.0,0.0,0.0,0.0,0.0,0.0,0.0,0.0,0.0,0.0,0.0,0.0,0.0,0.0,0.0,0.0,0.0,0.0,0.0,0.0,0.0,0.0,0.0,0.0,0.0,0.0,0.0,0.0,0.0,0.0,0.0,0.0,0.0,0.0,0.0,0.0,0.0,0.0,0.0,0.0,0.0,0.0,0.0,0.0,0.0,0.0,0.0,0.0,0.0,0.0,0.0,0.0,0.0,0.0,0.0,0.0,0.0,0.0,0.0,0.0,0.0,0.0,0.0,0.0,0.0,0.0,0.0,0.0,0.0,0.0,0.0,0.0,0.0,0.0,0.0,0.0,0.0,0.0,0.0,0.0,0.0,0.0,0.0,0.0,0.0,0.0,0.0,0.0,0.0,0.0,0.0,0.0,0.0,0.0,0.0,0.0,0.0,0.0,0.0,0.0,0.0,0.0,0.0,0.0,0.0,0.0,0.0,0.0,0.0,0.0,0.0,0.0,0.0,0.0,0.0,0.0,0.0,0.0,0.0,0.0,0.0,0.0,0.0,0.0,0.0,0.0,0.0,0.0,0.0,0.0,0.0,0.0,0.0,0.0,0.0,0.0,0.0,0.0,0.0,0.0,0.0,0.0,0.0,0.0,0.0,0.0,0.0,0.0,0.0,0.0,0.0,0.0,0.0,0.0,0.0,0.0,0.0,0.0,0.0,0.0,0.0,0.0,0.0,0.0,0.0,0.0,0.0,0.0,0.0,0.0,0.0,0.0,0.0,0.0,0.0,0.0,0.0,0.0,0.0,0.0,0.0,0.0,0.0,0.0,0.0,0.0,0.0,0.0,0.0,0.0,0.0,0.0,0.0,0.0,0.0,0.0,0.0,0.0,0.0,0.0,0.0,0.0,0.0,0.0,0.0,0.0,0.0,0.0,0.0,0.0,0.0,0.0,0.0,0.0,0.0,0.0,0.0,0.0,0.0,0.0,0.0,0.0,0.0,0.0,0.0,0.0,0.0,0.0,0.0,0.0,0.0,0.0,0.0,0.0,0.0,0.0,0.0,0.0,0.0,0.0,0.0,0.0,0.0,0.0,0.0,0.0,0.0,0.0,0.0,0.0,0.0,0.0,0.0,0.0,0.0,0.0,0.0,0.0,0.0,0.0,0.0,0.0,0.0,0.0,0.0,0.0,0.0,0.0,0.0,0.0,0.0,0.0,0.0,0.0,0.0,0.0,0.0,0.0,0.0,0.0,0.0,0.0,0.0,0.0,0.0,0.0,0.0,0.0,0.0,0.0,0.0,0.0,0.0,0.0,0.0,0.0,0.0,0.0,0.0,0.0,0.0,0.0,0.0,0.0,0.0,0.0,0.0,0.0,0.0,0.0,0.0,0.0,0.0,0.0,0.0,0.0,0.0,0.0,0.0,0.0,0.0,0.0,0.0,0.0,0.0,0.0,0.0,0.0,0.0,0.0,0.0,0.0,0.0,0.0,0.0,0.0,0.0,0.0,0.0,0.0,0.0,0.0,0.0,0.0,0.0,0.0,0.0,0.0,0.0,0.0,0.0,0.0,0.0,0.0,0.0,0.0,0.0,0.0,0.0,0.0,0.0,0.0,0.0,0.0,0.0,0.0,0.0,0.0,0.0,0.0,0.0,0.0,0.0,0.0,0.0,0.0,0.0,0.0,0.0,0.0,0.0,0.0,0.0,0.0,0.0,0.0,0.0,0.0,0.0,0.0,0.0,0.0,0.0,0.0,0.0,0.0,0.0,0.0,0.0,0.0,0.0,0.0,0.0,0.0,0.0,0.0,0.0,0.0,0.0,0.0,0.0,0.0,0.0,0.0,0.0,0.0,0.0,0.0,0.0,0.0,0.0,0.0,0.0,0.0,0.0,0.0,0.0,0.0,0.0,0.0,0.0,0.0,0.0,0.0,0.0,0.0,0.0,0.0,0.0,0.0,0.0,0.0,0.0,0.0,0.0,0.0,0.0,0.0,0.0,0.0,0.0,0.0,0.0,0.0,0.0,0.0,0.0,0.0,0.0,0.0,0.0,0.0,0.0,0.0,0.0,0.0,0.0,0.0,0.0,0.0,0.0,0.0,0.0,0.0,0.0,0.0,0.0,0.0,0.0,0.0,0.0,0.0,0.0,0.0,0.0,0.0,0.0,0.0,0.0,0.0,0.0,0.0,0.0,0.0,0.0,0.0,0.0,0.0,0.0,0.0,0.0,0.0,0.0,0.0,0.0,0.0,0.0,0.0,0.0,0.0,0.0,0.0,0.0,0.0,0.0,0.0,0.0,0.0,0.0,0.0,0.0,0.0,0.0,0.0,0.0,0.0,0.0,0.0,0.0,0.0,0.0,0.0,0.0,0.0,0.0,0.0,0.0,0.0,0.0,0.0,0.0,0.0,0.0,0.0,0.0,0.0,0.0,0.0,0.0,0.0,0.0,0.0,0.0,0.0,0.0,0.0,0.0,0.0,0.0,0.0,0.0,0.0,0.0,0.0,0.0,0.0,0.0,0.0,0.0,0.0,0.0,0.0,0.0,0.0,0.0,0.0,0.0,0.0,0.0,0.0,0.0,0.0,0.0,0.0,0.0,0.0,0.0,0.0,0.0,0.0,0.0,0.0,0.0,0.0,0.0,0.0,0.0,0.0,0.0,0.0,0.0,0.0,0.0,0.0,0.0,0.0,0.0,0.0,0.0,0.0,0.0,0.0,0.0,0.0,0.0,0.0,0.0,0.0,0.0,0.0,0.0,0.0,0.0,0.0,0.0,0.0,0.0,0.0,0.0,0.0,0.0,0.0,0.0,0.0,0.0,0.0,0.0,0.0,0.0,0.0,0.0,0.0,0.0,0.0,0.0,0.0,0.0,0.0,0.0,0.0,0.0,0.0,0.0,0.0,0.0,0.0,0.0,0.0,0.0,0.0,0.0,0.0,0.0,0.0,0.0,0.0,0.0,0.0,0.0,0.0,0.0,0.0,0.0,0.0,0.0,0.0,0.0,0.0,0.0,0.0,0.0,0.0,0.0,0.0,0.0,0.0,0.0,0.0,0.0,0.0,0.0,0.0,0.0,0.0,0.0,0.0,0.0,0.0,0.0,0.0,0.0,0.0,0.0,0.0,0.0,0.0,0.0,0.0,0.0,0.0,0.0,0.0,0.0,0.0,0.0,0.0,0.0,0.0,0.0,0.0,0.0,0.0,0.0,0.0,0.0,0.0,0.0,0.0,0.0,0.0,0.0,0.0,0.0,0.0,0.0,0.0,0.0,0.0,0.0,0.0,0.0,0.0,0.0,0.0,0.0,0.0,0.0,0.0,0.0,0.0,0.0,0.0,0.0,0.0,0.0,0.0,0.0,0.0,0.0,0.0,0.0,0.0,0.0,0.0,0.0,0.0,0.0,0.0,0.0,0.0,0.0,0.0,0.0,0.0,0.0,0.0,0.0,0.0,0.0,0.0,0.0,0.0,0.0,0.0,0.0,0.0,0.0,0.0,0.0,0.0,0.0,0.0,0.0,0.0,0.0,0.0,0.0,0.0,0.0,0.0,0.0,0.0,0.0,0.0,0.0,0.0,0.0,0.0,0.0,0.0,0.0,0.0,0.0,0.0,0.0,0.0,0.0,0.0,0.0,0.0,0.0,0.0,0.0,0.0,0.0,0.0,0.0,0.0,0.0,0.0,0.0,0.0,0.0,0.0,0.0,0.0,0.0,0.0,0.0,0.0,0.0,0.0,0.0,0.0,0.0,0.0,0.0,0.0,0.0,0.0,0.0,0.0,0.0,0.0,0.0,0.0,0.0,0.0,0.0,0.0,0.0,0.0,0.0,0.0,0.0,0.0,0.0,0.0,0.0,0.0,0.0,0.0,0.0,0.0,0.0,0.0,0.0,0.0,0.0,0.0,0.0,0.0,0.0,0.0,0.0,0.0,0.0,0.0,0.0,0.0,0.0,0.0,0.0,0.0,0.0,0.0,0.0,0.0,0.0,0.0,0.0,0.0,0.0,0.0,0.0,0.0,0.0,0.0,0.0,0.0,0.0,0.0,0.0,0.0,0.0,0.0,0.0,0.0,0.0,0.0,0.0,0.0,0.0,0.0,0.0,0.0,0.0,0.0,0.0,0.0,0.0,0.0,0.0,0.0,0.0,0.0,0.0,0.0,0.0,0.0,0.0]}],[{"header":{"parameterUnit":"kt","parameterCategory":2,"dx":1,"dy":1,"la1":29.587661999999998,"la2":31.0,"lo1":-88.76705300000003,"lo2":-86.6583820000003,"nx":115,"ny":88,"refTime":"2022-10-11T12:00:00:Z","depth":0,"parameterNumber":2,"parameterNumberName":"V-component_of_WINDS"},"data":[3.6,3.9414,3.9573,3.8364,3.633,3.5279,3.3195,3.0235,2.7049,2.5406,2.4533,2.2583,2.1902,2.4257,2.1139,1.8447,1.6386,1.582,1.3487,1.1628,1.2602,1.1537,1.0535,0.9783,0.8437,0.6353,0.4536,0.3368,0.0,0.0,0.0,0.0,0.0,0.0,0.0,0.0,0.0,0.0,0.0,0.0,0.0,0.0,0.0,0.565,0.7252,1.0675,1.4005,1.5862,1.7756,2.0701,2.5038,2.8084,3.0188,3.172,3.1876,3.1996,3.1293,3.1715,3.2189,3.2418,3.3187,3.4654,3.6385,3.6704,3.7844,3.8916,3.9371,4.0007,4.0396,4.0721,4.0155,4.0155,3.919,3.9065,3.76,3.4197,3.2902,3.4908,3.6648,3.6355,3.6244,3.7056,3.7179,3.7405,3.7644,3.7644,3.7644,3.7644,3.7644,3.7644,3.7644,3.7644,3.7644,3.7644,3.7644,3.7644,3.6022,3.2811,2.9111,2.3731,2.023,1.9073,1.8128,1.717,1.7879,1.8594,1.86,1.8824,1.9059,1.881,1.8358,1.7655,1.7413,1.6703,1.6933,3.503,3.646,3.9604,4.0322,3.9211,3.685,3.5268,3.4175,3.0933,2.9287,2.9719,2.8998,2.6633,2.5314,2.3723,2.1182,1.9178,1.7929,1.814,1.7212,1.7134,1.5416,1.4148,1.3597,1.1867,0.9713,0.7112,0.542,0.3558,0.0,0.0,0.0,0.0,0.0,0.0,0.0,0.0,0.0,0.0,0.0,0.0,0.2839,0.7453,1.1462,1.3888,1.5426,1.8368,2.0756,2.2313,2.4942,2.7827,2.9503,3.0407,3.1144,3.0476,2.9035,2.8353,2.8238,2.8674,3.0543,3.1953,3.3415,3.5493,3.7044,3.8254,3.8877,3.9215,3.9669,4.0085,4.0012,3.8843,3.8274,3.6862,3.5845,3.3372,3.0409,3.1426,3.2682,3.3706,3.4237,3.5333,3.7333,3.7418,3.7644,3.7644,3.7644,3.7644,3.7644,3.7644,3.7644,3.7179,3.694,3.7405,3.7644,3.7644,3.6714,3.4851,3.1643,2.7945,2.2789,1.8575,1.7158,1.5975,1.5496,1.5739,1.6454,1.646,1.6691,1.5739,1.5254,1.4316,1.3129,1.3129,1.4079,1.4791,3.9998,4.0991,4.254,4.187,3.976,3.8227,3.7736,3.697,3.409,3.4992,3.8082,3.498,3.235,3.0963,2.6101,2.2969,2.2178,2.0106,1.9329,1.9086,1.8358,1.7873,1.7625,1.6828,1.5346,1.4586,1.1623,0.7802,0.498,0.2937,0.0,0.0,0.0,0.0,0.0,0.0,0.0,0.0,0.0,0.0,0.0,0.4871,0.8452,1.3047,1.5943,1.8292,2.0715,2.3055,2.4921,2.7453,3.0225,3.1063,3.0935,3.0858,2.9556,2.7208,2.5896,2.6236,2.7425,2.9124,3.1406,3.3302,3.5376,3.7263,3.8462,3.9422,3.9747,3.9513,3.9929,3.8704,3.7789,3.6251,3.4866,3.2737,3.0309,2.8998,2.9849,3.0597,3.0881,3.1891,3.4211,3.6022,3.7644,3.7644,3.7644,3.7644,3.7644,3.7644,3.7644,3.7644,3.6475,3.601,3.6953,3.7418,3.694,3.5544,3.3461,3.0243,2.7017,2.2578,1.8824,1.6212,1.3832,1.3362,1.3362,1.4312,1.4786,1.4549,1.3832,1.1933,1.0509,0.8844,1.0033,1.0981,1.0505,4.4765,4.6223,4.6074,4.4253,4.1638,4.1377,4.1459,4.132,3.9005,4.0802,4.3683,4.0137,3.7031,3.4041,2.8576,2.488,2.3554,2.0458,1.9282,1.9073,1.898,1.8491,1.8824,1.8339,1.8588,1.8301,1.6295,1.2133,0.7184,0.416,0.0,0.0,0.0,0.0,0.0,0.0,0.0,0.0,0.0,0.0,0.6346,0.8175,1.0721,1.4523,1.8011,2.1109,2.2426,2.5032,2.7249,2.9788,3.2694,3.3515,3.3095,3.1604,2.8923,2.5321,2.3756,2.3503,2.4573,2.6873,2.9199,3.1677,3.4617,3.6904,3.8747,3.9786,4.0189,3.9838,3.9065,3.7738,3.6376,3.4728,3.2945,3.0228,2.7812,2.7821,2.8079,2.8109,2.8135,3.004,3.2616,3.4851,3.694,3.7644,3.7644,3.7644,3.7418,3.6714,3.6475,3.6236,3.4839,3.4121,3.552,3.6727,3.5783,3.4169,3.1392,2.8398,2.5676,2.286,1.9558,1.6691,1.4069,1.2645,1.1937,1.3125,1.3832,1.312,1.1215,0.8841,0.7174,0.5264,0.5979,0.0,0.0,4.6264,5.0097,4.9242,4.8114,4.7319,4.6967,4.7492,4.8319,4.7279,4.5994,4.4168,4.3898,4.0514,3.6085,3.0472,2.6739,2.4383,2.0608,1.8947,1.9086,1.8934,1.8934,1.9053,1.9086,1.9086,1.9086,1.7376,1.4237,0.8792,0.4511,0.0,0.0,0.0,0.0,0.0,0.0,0.0,0.0,0.0,0.3432,0.9368,1.5387,2.006,2.0398,2.2261,2.429,2.4927,2.6874,2.9583,3.2593,3.509,3.6727,3.4586,3.1872,2.5765,2.2047,1.9871,1.9569,2.0543,2.3373,2.6122,2.9566,3.3472,3.6765,3.8915,4.0305,3.9786,3.9358,3.9625,3.8691,3.6044,3.417,3.2814,3.071,2.8365,2.7369,2.7341,2.7193,2.7719,2.9232,3.1839,3.509,3.7179,3.7644,3.7644,3.6953,3.6249,3.4372,3.3906,3.3906,3.2948,3.1979,3.4576,3.6727,3.5317,3.2548,2.9783,2.7055,2.4567,2.1752,1.9329,1.6933,1.4307,1.3832,1.3358,1.3595,1.217,1.1219,0.9556,0.6696,0.3832,0.1918,0.0,0.0,0.0,5.141,5.3175,5.2548,5.182,5.0594,4.8175,4.925,5.2189,5.2053,5.0821,4.8747,4.6152,4.3511,3.95,3.2831,2.8418,2.6332,2.1807,1.8941,1.9059,1.9,1.9026,1.9046,1.9086,1.9119,1.8203,1.7045,1.4939,1.1727,0.6482,0.0,0.0,0.0,0.0,0.0,-0.1414,-0.1673,0.0,0.248,0.6024,1.0929,1.6698,1.9381,2.0713,2.3318,2.4515,2.4793,2.6998,2.9978,3.3405,3.6085,3.6953,3.4074,3.0762,2.5339,2.0012,1.7217,1.5975,1.6679,1.9538,2.2647,2.6391,3.1577,3.6012,3.8856,4.0526,3.976,3.9189,3.9573,3.9325,3.6333,3.3816,3.2644,3.1468,2.9439,2.7193,2.6847,2.6746,2.7809,2.9111,3.161,3.5078,3.694,3.7405,3.7418,3.694,3.5544,3.3666,3.2731,3.2971,3.2252,3.1305,3.4121,3.6022,3.3701,3.1381,2.8147,2.5174,2.2915,2.103,1.9335,1.717,1.5502,1.4786,1.4549,1.1215,0.86,0.8126,0.7648,0.407,0.1199,0.0,0.0,0.0,0.0,5.5958,5.6569,5.5814,5.5391,5.4281,5.1225,5.1795,5.5025,5.5404,5.3951,5.2016,4.7956,4.523,4.3483,3.4563,3.0511,2.7008,2.3571,2.0679,1.9242,1.8954,1.9079,1.9171,1.9251,1.9303,1.8188,1.6335,1.3939,1.1905,0.7765,0.3159,0.0,0.0,0.0,0.0,-0.3085,-0.1952,0.0,0.3284,0.7633,1.2805,2.0681,2.2255,2.3532,2.5581,2.5371,2.5484,2.6998,2.9999,3.3519,3.6309,3.6109,3.3268,2.9971,2.647,2.0407,1.6316,1.4351,1.5196,1.6715,2.062,2.6619,3.0277,3.5402,3.9208,4.0773,4.0176,3.9734,3.9838,3.9122,3.6943,3.5538,3.4705,3.3831,3.2639,3.0997,3.0236,3.0123,3.021,3.127,3.1599,3.4839,3.7179,3.7644,3.7644,3.6714,3.5532,3.3655,3.272,3.2971,3.2492,3.1806,3.3222,3.3689,3.1839,2.9291,2.6061,2.328,2.12,1.9335,1.8607,1.7892,1.646,1.5981,1.6697,1.2887,0.7171,0.5503,0.574,0.2156,0.0,0.0,0.0,0.0,0.0,5.9002,5.9626,5.8851,5.8454,5.8416,5.769,5.6902,5.6241,5.7792,5.601,5.1542,4.9581,4.6662,4.2311,3.5993,3.1227,2.7925,2.4613,2.1686,1.9671,1.8914,1.9165,1.9343,1.9495,1.9593,1.8559,1.6178,1.242,0.9943,0.5949,0.2696,0.0,0.0,0.0,0.0,-0.1723,-0.1249,0.152,0.5119,1.0012,1.5768,2.4251,2.6377,2.5757,2.6892,2.7126,2.6261,2.7156,3.0387,3.3462,3.6278,3.543,3.3406,3.0003,2.6989,2.2686,1.7124,1.6356,1.6895,1.669,2.0931,2.6667,2.938,3.3955,3.7855,3.9624,3.8843,3.8653,3.9664,3.8565,3.8,3.7316,3.6766,3.612,3.5349,3.4492,3.3679,3.3439,3.3279,3.3394,3.3713,3.46,3.7166,3.7644,3.7644,3.694,3.5998,3.4121,3.2959,3.321,3.3906,3.2982,3.2057,3.2068,2.9521,2.698,2.3973,2.142,1.9322,1.9086,1.9086,1.8607,1.7655,1.7655,1.8371,1.6223,1.0505,0.7171,0.4786,0.0,0.0,0.0,0.0,0.0,0.048,5.9758,6.0005,5.9701,5.9245,5.8752,5.8714,5.879,5.8885,5.9226,5.7817,5.4075,5.0325,4.7541,4.3927,3.7508,3.1381,2.8137,2.4974,2.2071,1.9275,1.8967,1.9191,1.9435,1.9357,1.9791,1.8201,1.5045,1.1309,0.9757,0.4522,0.0,0.0,0.0,0.0,0.0,0.1256,0.1772,0.4115,0.8532,1.322,1.8544,2.3849,2.8476,2.6234,2.6501,2.8484,2.6456,2.77,3.0719,3.3907,3.6208,3.6682,3.367,3.0431,2.6999,2.3973,1.9389,1.7202,1.6198,1.5808,1.9912,2.6154,2.6646,2.9458,3.2913,3.6475,3.6453,3.7111,3.9262,3.9245,3.9044,3.9844,3.9032,3.8289,3.7663,3.7188,3.6352,3.6068,3.5882,3.6109,3.6463,3.6702,3.7644,3.7618,3.7462,3.7064,3.6651,3.5066,3.345,3.4839,3.5771,3.4133,3.2743,3.137,2.883,2.5363,2.2109,1.9558,1.9086,1.9086,1.9086,1.9787,1.9322,1.9086,1.9079,1.7643,1.3116,0.86,0.5025,0.0,0.0,0.0,0.0,-0.1916,-0.024,6.0062,6.0062,6.0062,5.9701,5.9207,5.915,5.9473,5.9986,5.991,5.8771,5.5981,5.106,4.815,4.51,3.8729,3.2537,2.884,2.5596,2.2351,1.9558,1.9073,1.9284,1.9514,1.9705,1.991,1.8108,1.3984,1.0456,0.986,0.3555,0.0,0.0,0.0,0.0,0.0,0.3074,0.5869,0.7797,1.23,1.7324,2.0319,2.5299,2.8042,2.5621,2.7067,2.6358,2.3367,2.5751,2.8786,3.21,3.5338,3.5803,3.3633,3.0693,2.7158,2.3982,2.0708,1.7793,1.5384,1.6117,1.8832,2.2844,2.5641,2.7179,2.9979,3.2966,3.2888,3.3378,3.6035,3.7448,3.8425,3.9033,3.9961,3.9225,3.8994,3.8501,3.8163,3.7851,3.7579,3.7566,3.7605,3.7605,3.7358,3.7176,3.6968,3.6721,3.6332,3.5029,3.4496,3.5972,3.6673,3.461,3.2413,3.0629,2.7906,2.374,2.0251,1.9322,1.9086,1.9086,1.9787,2.0487,2.0023,1.9322,1.9309,1.9053,1.3827,0.9076,0.5264,0.3115,0.0,0.0,-0.2394,-0.3111,-0.1196,6.0231,6.0062,6.0062,6.0024,5.9967,6.0024,6.0024,6.0043,6.0024,5.9075,5.694,5.1281,4.7925,4.5407,4.0114,3.3689,2.9311,2.7916,2.4673,2.0258,1.9099,1.9277,1.9527,1.9778,1.9976,1.8587,1.4673,1.1135,1.0357,0.4109,0.077,0.0,0.0,0.0,0.0,0.365,0.7034,1.07,1.475,2.0262,2.4229,2.6377,2.884,2.7471,2.7493,2.503,2.3066,2.4693,2.7814,3.1114,3.4329,3.489,3.3627,3.0913,2.7345,2.4015,2.0729,1.7879,1.5244,1.7406,2.0054,2.3398,2.372,2.4969,2.8485,2.9941,2.9758,2.9263,3.2608,3.4307,3.5597,3.6871,3.8349,3.8902,3.8786,3.841,3.815,3.7877,3.7553,3.7397,3.7462,3.7423,3.7046,3.6722,3.6488,3.6215,3.6007,3.5804,3.5742,3.6205,3.6579,3.4671,3.195,3.0241,2.7887,2.303,1.9787,1.9322,1.9086,1.9086,1.9551,2.1435,2.12,1.9558,1.9309,1.881,1.4297,0.955,0.7648,0.5742,0.5027,0.2392,-0.2153,-0.4544,-0.3343,6.1184,6.0024,6.0062,6.0062,6.0062,6.0062,6.0062,6.0062,6.0062,5.9359,5.7855,5.176,4.8102,4.5575,4.0477,3.4396,2.9772,2.7925,2.4207,2.1185,1.9119,1.9277,1.9495,1.9712,1.9903,1.9162,1.5642,1.2156,1.0271,0.563,0.2822,0.1799,0.2051,0.3062,0.4118,0.6938,1.0317,1.4786,1.9321,2.4812,2.6085,2.82,3.0143,2.7441,2.6655,2.4209,2.3758,2.4368,2.7531,3.1446,3.4068,3.4647,3.3482,3.1059,2.7645,2.4114,2.0957,1.885,1.8128,1.8639,1.974,2.1288,2.1595,2.2161,2.3225,2.4986,2.6127,2.5959,2.9204,3.2142,3.433,3.5466,3.7118,3.8515,3.841,3.8241,3.8007,3.7864,3.754,3.7189,3.6994,3.6877,3.654,3.6254,3.5943,3.5553,3.5501,3.5631,3.5696,3.5891,3.6267,3.4574,3.1222,2.9453,2.8098,2.349,1.9322,1.9086,1.9086,1.9086,2.003,2.3094,2.3571,2.1207,1.9538,1.8332,1.5459,1.1883,0.9764,0.8358,0.5251,0.2384,-0.2146,-0.6446,-0.5242,6.1572,6.0043,6.0062,6.0062,6.0062,6.0062,6.0062,6.0062,6.0043,5.9701,5.8908,5.2017,4.8086,4.5513,4.0352,3.4396,2.9081,2.8388,2.4207,2.0957,1.9092,1.9198,1.9349,1.9527,1.9686,1.9132,1.6681,1.35,1.1387,0.834,0.5357,0.4099,0.4344,0.5614,0.6913,0.9001,1.2863,1.7297,2.2405,2.6513,2.7814,3.0181,3.0238,2.7849,2.6786,2.4932,2.3542,2.4481,2.824,3.1938,3.4327,3.5771,3.6419,3.1904,2.8878,2.6151,2.1487,1.9335,1.885,1.8869,1.9165,1.9396,2.0472,2.1046,2.0327,2.266,2.3397,2.4289,2.6494,2.9695,3.2302,3.4168,3.6036,3.7373,3.8072,3.7955,3.7825,3.7747,3.7488,3.7033,3.6735,3.6345,3.6033,3.5774,3.5332,3.4956,3.5124,3.5254,3.5241,3.5358,3.5813,3.4847,3.0034,2.7374,2.7829,2.3965,1.9322,1.9086,1.9086,1.9086,1.9322,2.2625,2.4031,2.2382,2.0487,1.8568,1.6392,1.3506,1.2545,1.2794,0.924,0.3558,-0.2377,-0.7625,-0.9747,6.1713,6.0062,6.0062,6.0062,6.0062,6.0062,6.0062,6.0062,6.0062,6.0005,5.8985,5.3263,4.9152,4.5423,4.0338,3.4396,2.8388,2.8388,2.444,2.095,1.9092,1.9112,1.9224,1.9389,1.9305,1.8828,1.7355,1.5477,1.3702,1.096,1.0205,0.9482,0.7064,0.7874,0.9444,1.0551,1.3435,1.8164,2.4172,2.768,2.8685,3.0197,3.0265,2.9295,2.6846,2.367,2.0152,2.3442,2.7349,3.049,3.368,3.633,3.6959,3.3415,2.9829,2.704,2.2522,2.0037,1.9086,1.9092,1.9099,1.9794,2.0801,2.1628,2.0573,2.2514,2.2641,2.1935,2.5252,2.8051,3.0788,3.3256,3.6043,3.7573,3.7838,3.7747,3.7721,3.7631,3.7293,3.6877,3.6371,3.5813,3.5449,3.5254,3.4878,3.4592,3.4696,3.4735,3.4748,3.4002,3.4671,3.3719,2.8701,2.6137,2.6831,2.4673,2.0487,1.9086,1.9086,1.9086,1.9086,2.0487,2.2828,2.1413,2.0209,1.8549,1.6639,1.7051,1.7238,1.7214,1.3411,0.5884,-0.0472,-0.8765,-1.4227,6.2869,6.0024,6.0062,6.0062,6.0062,6.0062,6.0062,6.0062,6.0062,6.0043,5.9268,5.7191,5.2446,4.7031,4.0435,3.4157,2.8619,2.8388,2.444,2.095,1.9086,1.9086,1.9171,1.9336,1.9409,1.8973,1.7846,1.6706,1.4982,1.3746,1.3213,1.3044,0.9953,1.0547,1.2132,1.2318,1.2937,1.761,2.4577,2.7438,2.7859,2.9582,2.9342,2.6967,2.389,2.1296,2.0683,2.3488,2.6952,3.0258,3.4022,3.6252,3.7116,3.4752,3.1373,2.6666,2.4643,2.1655,2.0023,1.9086,1.9086,1.9322,2.0043,2.1222,2.1797,2.0801,2.0722,2.5363,2.6525,2.8137,3.0901,3.2982,3.5783,3.7179,3.7644,3.7644,3.7605,3.7332,3.7007,3.6553,3.6007,3.5384,3.5098,3.4839,3.454,3.4267,3.419,3.4228,3.3432,3.2242,3.2617,3.255,2.7732,2.3738,2.3699,2.282,2.0957,1.9086,1.9086,1.9086,1.9558,2.0487,2.1413,2.0899,1.9684,1.9215,2.016,2.1302,2.1964,1.9315,1.5743,0.8199,-0.0703,-1.1068,-1.7521,6.2357,5.9492,5.9891,6.0062,6.0062,6.0062,6.0062,6.0062,6.0043,5.9135,5.7727,5.6709,5.2481,4.5107,3.8664,3.3005,2.9071,2.6758,2.3514,1.9787,1.9086,1.9086,1.9138,1.9244,1.9396,1.8838,1.7972,1.6594,1.7379,1.6667,1.6627,1.628,1.3885,1.357,1.6708,1.4175,1.4939,1.8146,2.2577,2.6219,2.869,3.1988,3.2888,2.785,2.6014,2.4059,2.3586,2.5304,2.8964,3.2456,3.6032,3.7697,3.7382,3.5472,3.2554,2.6903,2.6043,2.4223,2.142,1.9787,1.9322,1.9092,1.9322,2.095,2.4665,2.5587,2.7202,2.8378,2.7675,2.9281,3.2286,3.4145,3.601,3.6953,3.7644,3.7644,3.7553,3.7189,3.68,3.6215,3.5683,3.5358,3.506,3.4709,3.4345,3.419,3.419,3.401,3.3175,3.1938,3.1665,3.0904,2.6128,2.1891,2.1378,2.0957,1.9558,1.9086,1.9086,1.9086,1.9558,1.9794,2.0023,1.9524,1.9248,2.087,2.3425,2.4347,2.5017,2.1655,1.7846,0.9384,0.0706,-0.9901,-1.8218,6.0958,5.8923,5.972,6.0062,6.0062,6.0062,6.0062,6.0062,6.0062,5.793,5.5098,5.3381,4.9689,4.3669,3.7208,3.2627,2.8447,2.5649,2.2351,1.9558,1.9086,1.9086,1.9092,1.9086,1.9251,1.898,1.6819,1.6836,1.7361,1.8021,1.8479,1.7846,1.5647,1.673,1.8717,1.6177,1.7269,1.9672,2.1141,2.4351,3.0077,3.6181,3.5203,3.182,2.9549,2.8277,2.621,2.8917,3.1851,3.5372,3.8552,4.0348,3.987,3.6861,3.3448,3.0626,2.8643,2.6999,2.3506,2.0722,1.9086,1.9086,1.9086,2.2117,2.4665,2.7443,2.9061,2.8609,3.0212,3.2286,3.3917,3.601,3.7179,3.7644,3.7644,3.7644,3.7592,3.728,3.689,3.6358,3.593,3.5527,3.4917,3.4514,3.419,3.419,3.4203,3.3843,3.3264,3.2718,3.2309,2.8227,2.3501,2.1368,2.0345,2.0237,1.9322,1.9086,1.9086,1.9086,1.9322,1.9322,1.9322,1.9329,1.9086,2.0237,2.2781,2.5311,2.7377,2.3757,1.6425,0.8922,0.1414,-0.8237,-1.8667,6.0209,5.9777,5.9986,6.0062,6.0062,6.0062,6.0043,6.0062,5.9816,5.7751,5.5065,5.3159,4.9471,4.4429,4.0744,3.6228,2.886,2.5235,2.1897,1.9558,1.9086,1.9086,1.9086,1.9125,1.9244,1.9253,1.8064,1.7574,1.6859,1.6451,1.5808,1.6033,1.5376,1.6332,1.9105,1.7869,1.7881,2.0126,2.2879,2.6339,3.0383,3.4418,3.4666,3.0983,3.0471,3.0422,2.9648,3.2297,3.4417,3.607,3.8187,4.0085,3.9276,3.8475,3.6025,3.2532,2.9834,2.6999,2.3973,2.1185,1.9558,1.9558,1.9086,1.9794,2.2117,2.5131,2.7675,3.0682,3.137,3.1381,3.5078,3.7179,3.7644,3.7644,3.7644,3.7631,3.7553,3.7345,3.6968,3.6605,3.6202,3.5579,3.4761,3.4293,3.4293,3.428,3.441,3.4036,3.3558,3.3151,3.079,2.6141,2.3193,2.105,1.9877,1.9544,1.9322,1.9086,1.9086,1.9086,1.9086,1.9086,1.9086,1.9086,1.9086,2.0023,2.2117,2.4656,2.4372,2.1693,1.4794,0.7508,-0.0706,-0.9901,-1.5341,6.0062,6.0062,6.0062,6.0062,5.9797,5.8355,5.765,5.7403,5.5968,5.3408,5.0717,4.8969,4.6162,4.2507,4.0716,3.6105,2.8867,2.3805,2.0729,1.9558,1.9086,1.9086,1.9086,1.9086,1.927,1.9455,1.9292,1.8554,1.7095,1.6944,1.7396,1.702,1.7274,1.9234,2.1413,2.0882,2.2558,2.5109,2.7106,2.9027,3.059,3.4214,3.4924,3.3287,3.2795,3.2677,3.2855,3.4432,3.5088,3.6635,3.8483,3.8773,3.863,3.7973,3.7246,3.5163,3.2537,2.9762,2.8128,2.374,2.142,2.1185,1.9787,1.9787,2.1185,2.282,2.5829,2.9301,2.9772,3.2068,3.5078,3.6714,3.7644,3.7644,3.7644,3.7644,3.7592,3.7384,3.7098,3.6774,3.6319,3.567,3.4761,3.4294,3.4423,3.4475,3.4618,3.4326,3.3908,3.2482,3.0392,2.6639,2.3999,2.1803,1.9698,1.9302,1.9086,1.9086,1.9086,1.9086,1.9086,1.9086,1.9086,1.9086,1.9794,2.0258,2.1882,2.2344,2.0892,1.8954,1.3952,0.7794,-0.1651,-0.7789,-0.9911,6.0062,6.0062,6.0062,5.9797,5.8849,5.6447,5.5007,5.4044,5.1923,4.8539,4.5469,4.4605,4.2974,4.018,3.8371,3.4405,2.8371,2.2766,1.9469,1.9303,1.9224,1.9204,1.9185,1.9152,1.9204,1.9409,1.9442,1.9182,1.9253,1.9738,1.8929,1.9666,2.0477,2.2261,2.4609,2.6369,2.7471,2.9316,3.0977,3.1305,3.2593,3.4957,3.6358,3.6283,3.5701,3.5466,3.5266,3.5149,3.5342,3.7399,3.8115,3.7805,3.6752,3.6375,3.6851,3.6425,3.4384,3.2297,3.113,2.698,2.4198,2.3046,2.0722,2.0487,2.1882,2.2812,2.374,2.6516,2.883,3.1588,3.2971,3.5078,3.6702,3.7644,3.7644,3.7644,3.7644,3.7553,3.7371,3.6864,3.641,3.5865,3.496,3.4192,3.3535,3.3174,3.3248,3.3065,3.1934,3.0352,2.8933,2.6908,2.4398,2.164,1.9504,1.9302,1.9086,1.9086,1.9086,1.9086,1.9086,1.9086,1.9086,1.9086,1.9558,2.0023,2.0023,2.0258,1.9282,1.7588,1.3321,0.8579,0.3553,-0.0707,-0.3297,6.0062,6.0062,6.0062,5.8374,5.6198,5.5256,5.3578,5.1453,5.0746,4.8073,4.6013,4.4996,4.2522,4.0341,3.9018,3.5184,2.8751,2.2769,1.9521,1.9653,1.9508,1.9409,1.9323,1.9191,1.9138,1.9145,1.9191,1.9191,1.9264,1.9429,1.9541,2.0078,2.2554,2.4537,2.6005,2.8151,3.054,3.1976,3.3513,3.4499,3.4653,3.6851,3.8202,3.8001,3.7801,3.7861,3.7458,3.7231,3.6302,3.4298,3.6362,3.5836,3.4097,3.306,3.4097,3.7392,3.4612,3.3438,3.2286,2.7896,2.3973,2.3506,2.0957,1.9794,1.9787,2.0251,2.0715,2.1882,2.374,2.7434,3.2275,3.345,3.4839,3.6714,3.7644,3.7644,3.7644,3.7644,3.7134,3.6448,3.5662,3.4872,3.4078,3.2673,3.2134,3.1783,3.1601,3.1084,2.944,2.7661,2.6921,2.5065,2.2359,1.9739,1.9295,1.9086,1.9086,1.9086,1.9086,1.9086,1.9086,1.9086,1.9086,1.9086,1.9086,1.9322,1.9322,1.9322,1.8122,1.5496,1.2865,1.071,0.8537,0.6608,0.6589,5.9093,5.8511,5.7298,5.6066,5.4254,5.1557,4.9356,4.7926,4.6262,4.46,4.329,4.2794,4.0591,3.7866,3.6618,3.2787,2.6912,2.3101,2.1053,1.9916,1.9626,1.9448,1.9297,1.9158,1.9086,1.9092,1.9086,1.9086,1.9112,1.9231,1.9323,1.9562,2.3132,2.5826,2.7692,3.1046,3.3477,3.5186,3.6658,3.6383,3.5263,3.7565,3.8757,3.6772,3.7893,3.8617,3.8059,3.7786,3.5674,3.3531,3.3578,3.256,2.8718,2.9225,3.1597,3.4349,3.3678,3.3678,3.3689,2.9992,2.6061,2.6293,2.1648,1.9787,1.9086,1.9086,1.9086,1.9322,2.0715,2.3046,2.7434,2.9281,3.2057,3.4384,3.5305,3.601,3.6953,3.6236,3.4872,3.4436,3.4302,3.3338,3.1704,2.9664,2.8841,2.9398,2.9429,3.0235,2.8311,2.7092,2.5899,2.4106,2.0921,1.9322,1.9086,1.9086,1.9086,1.9086,1.9086,1.9086,1.9086,1.9086,1.9086,1.9086,1.9086,1.9086,1.9086,1.885,1.8134,1.6218,1.4534,1.2834,1.185,1.2984,1.4133,5.8049,5.7319,5.4943,5.3645,5.2379,4.7875,4.5582,4.4629,4.2233,4.0916,4.0001,3.9388,3.7382,3.4253,3.2985,2.994,2.499,2.4157,2.2442,1.9796,1.9541,1.9363,1.9145,1.9099,1.9086,1.9086,1.9086,1.9086,1.9125,1.9185,1.9191,1.9985,2.3788,2.7099,2.9809,3.3492,3.7055,3.7951,3.8719,3.7019,3.5125,3.6883,3.7715,3.5745,3.7118,3.8007,3.7475,3.6916,3.4659,3.1598,3.0702,2.9092,2.5703,2.6257,2.9271,3.2057,3.321,3.4145,3.509,3.1381,2.8157,2.6525,2.2117,1.9086,1.9086,1.9086,1.9086,1.9086,1.9086,2.0258,2.3038,2.5605,2.8599,3.1141,3.2068,3.2994,3.4624,3.3461,3.1924,3.1409,3.1288,3.0216,2.7658,2.7221,2.642,2.6854,2.7916,2.8936,2.8162,2.6915,2.5569,2.4156,2.142,1.9086,1.9086,1.9086,1.9086,1.9086,1.9086,1.9086,1.9086,1.9086,1.9086,1.9086,1.9086,1.9086,1.9086,1.885,1.885,1.7176,1.5496,1.5931,1.7316,1.9884,2.1257,5.7556,5.7319,5.4943,5.2489,4.9499,4.6923,4.4073,4.1975,4.1265,3.9523,3.7161,3.6264,3.4507,3.0671,3.0214,2.7824,2.4266,2.4078,2.2116,2.0313,1.9554,1.9389,1.9125,1.9086,1.9086,1.9086,1.9086,1.9086,1.9132,1.9343,1.9448,2.0671,2.5734,2.9076,3.0407,3.5384,3.719,3.6236,3.7092,3.6355,3.483,3.6011,3.7297,3.6652,3.7799,3.7462,3.702,3.6256,3.3622,2.8306,2.8121,2.6359,2.4372,2.3748,2.698,3.113,3.2057,3.2514,3.2754,3.0222,2.7221,2.4673,2.1185,1.9092,1.9086,1.9086,1.9086,1.9086,1.9086,1.9322,2.0487,2.2351,2.5363,2.7906,2.8609,2.885,2.9301,2.9081,2.884,2.879,2.876,2.877,2.7569,2.5944,2.4073,2.4904,2.5419,2.6157,2.5757,2.5372,2.4673,2.3272,2.1185,1.9086,1.9086,1.9086,1.9086,1.9086,1.9086,1.9086,1.9086,1.9086,1.9086,1.9086,1.9086,1.9086,1.9086,1.9086,1.9086,1.7892,1.7413,1.9282,2.1603,2.2982,2.5757,5.6474,5.567,5.1774,4.9389,4.7711,4.4127,4.1967,4.0847,4.0877,4.0115,3.8626,3.6602,3.3481,3.0128,2.7536,2.4642,2.1709,2.1682,2.1,1.96,1.9699,1.9514,1.9185,1.9092,1.9086,1.9086,1.9086,1.9086,1.9119,1.9211,1.927,2.0279,2.4315,2.7462,2.8997,3.3616,3.5102,3.433,3.4606,3.4935,3.3521,3.4479,3.5783,3.7366,3.7293,3.7267,3.7228,3.6735,3.375,2.9133,2.6268,2.4031,2.1405,2.095,2.3046,2.698,2.7665,2.8599,2.9291,2.7453,2.5139,2.3514,2.0722,1.9322,1.9086,1.9086,1.9086,1.9086,1.9086,1.9086,1.9322,2.0023,2.2351,2.4906,2.3973,2.374,2.5605,2.5605,2.5605,2.5605,2.5605,2.5139,2.3046,2.1875,2.2109,2.3038,2.3506,2.374,2.3506,2.374,2.328,2.142,1.9322,1.9086,1.9086,1.9086,1.9086,1.9086,1.9086,1.9086,1.9086,1.9086,1.9086,1.9086,1.9086,1.9086,1.9086,1.9086,1.9086,1.9086,1.9086,2.0016,2.2796,2.4872,2.8108,5.5544,5.4444,4.9502,4.7159,4.6442,4.2038,4.0046,4.0241,4.0643,3.9654,3.7501,3.5186,3.1256,2.7158,2.3994,2.165,1.9999,1.9956,1.9804,1.9521,1.9725,1.958,1.9277,1.9138,1.9086,1.9086,1.9086,1.9086,1.9086,1.9106,1.9106,1.9099,2.2844,2.5418,2.7306,3.0568,3.1674,3.0954,3.1839,3.2765,3.2308,3.3222,3.5256,3.7436,3.7189,3.7046,3.6877,3.6968,3.4441,2.9597,2.5757,2.2351,1.9551,1.9322,2.0957,2.374,2.4207,2.4906,2.6293,2.5139,2.3506,2.2351,2.0258,1.9086,1.9086,1.9086,1.9086,1.9086,1.9086,1.9086,1.9086,1.9086,2.0023,2.1882,2.095,2.0494,2.1882,2.2578,2.2586,2.2578,2.2586,2.1655,2.0487,2.0258,2.1185,2.2109,2.2812,2.3506,2.2117,2.1882,2.1413,1.9558,1.9092,1.9086,1.9086,1.9086,1.9086,1.9086,1.9086,1.9086,1.9086,1.9086,1.9086,1.9086,1.9086,1.9086,1.9086,1.9086,1.9086,1.9086,1.9322,2.0258,2.3046,2.5829,2.883,5.505,5.4216,4.9502,4.7333,4.6524,4.1827,3.9881,4.0124,4.0267,3.708,3.2307,3.1205,2.7113,2.1117,2.0321,1.9558,1.9191,1.9659,1.9653,1.9349,1.8948,1.905,1.8663,1.7984,1.8134,1.8613,1.885,1.9086,1.9086,1.9086,1.9086,1.9322,2.1928,2.3756,2.4932,2.724,2.751,2.6293,3.0212,3.137,2.9301,3.3906,3.7173,3.6968,3.7163,3.6787,3.6046,3.6787,3.5662,3.1716,2.6563,2.2578,1.9787,1.9086,2.0258,2.3046,2.3514,2.374,2.374,2.3272,2.2344,2.0016,1.9322,1.9086,1.9086,1.9086,1.9086,1.9086,1.9086,1.9086,1.9086,1.9086,1.9086,1.9315,1.9079,1.9086,1.9322,1.9551,1.9787,1.9787,1.9322,1.9086,1.9322,2.1185,2.142,2.1185,2.2117,2.2117,2.095,2.0487,1.9558,1.9086,1.9086,1.9086,1.9086,1.9086,1.9086,1.9086,1.9086,1.9086,1.9086,1.9086,1.9086,1.9086,1.9086,1.9086,1.9086,1.9086,1.9086,1.9086,1.9787,2.0957,2.282,2.5372,2.7916,5.5012,5.4577,5.0944,4.8448,4.6129,4.2991,4.0693,3.9881,4.0033,3.7841,3.3603,3.0937,2.6785,2.2601,1.9822,1.8835,1.8901,1.9435,1.9475,1.8947,1.7449,1.6498,1.6108,1.4104,1.3842,1.5975,1.8128,1.9086,1.9086,1.9086,1.9086,1.9086,2.0258,2.1648,2.374,2.4906,2.5139,2.444,2.7906,2.9532,2.9481,3.2222,3.509,3.694,3.6475,3.6124,3.6254,3.6722,3.4707,2.9862,2.7674,2.4198,1.9551,1.9092,1.9558,2.0487,2.0715,2.095,2.0722,2.0957,2.0258,1.9322,1.9086,1.9086,1.9086,1.9086,1.9086,1.9086,1.885,1.9086,1.885,1.9086,1.8128,1.6454,1.7892,1.885,1.9086,1.9086,1.9086,1.9086,1.9086,1.9086,1.9092,2.0494,2.0722,2.1882,2.142,2.0258,2.1655,2.0258,1.9558,1.9086,1.9086,1.9086,1.9086,1.9086,1.9086,1.9086,1.9086,1.9086,1.9086,1.9086,1.9086,1.9086,1.9086,1.9086,1.9086,1.9086,1.9086,1.9086,1.9086,2.0023,2.0722,2.374,2.5596,5.5012,5.4577,5.1951,4.8923,4.6169,4.3509,4.1201,3.9085,3.8251,3.6479,3.3153,2.9589,2.5764,2.2414,1.9915,1.8684,1.8723,1.9152,1.8612,1.7569,1.57,1.424,1.2737,1.0534,1.1219,1.4544,1.7649,1.9086,1.9086,1.9086,1.9086,1.9086,1.9086,2.0251,2.2117,2.2351,2.2344,2.2812,2.6293,2.8388,2.8589,3.1973,3.4841,3.6992,3.6254,3.5943,3.6722,3.6605,3.3666,2.7936,2.8005,2.524,2.0466,1.9086,1.9086,1.9086,1.9086,1.9086,1.9092,1.9086,1.9092,1.9086,1.9086,1.9086,1.9086,1.9086,1.8613,1.7655,1.7649,1.6939,1.646,1.6933,1.6691,1.4544,1.717,1.9086,1.9086,1.9086,1.9086,1.9086,1.9086,1.9086,1.9086,2.0487,2.1185,2.1648,2.142,2.0722,2.1648,2.0023,1.9092,1.9086,1.9086,1.9086,1.9086,1.9086,1.9086,1.9086,1.9086,1.9086,1.9086,1.9086,1.9086,1.9086,1.9086,1.9086,1.9086,1.9086,1.9086,1.9086,1.9086,1.9086,1.9315,2.0715,2.2344,5.5012,5.4558,5.1987,4.9154,4.6105,4.3546,4.0827,3.8244,3.5473,3.2721,2.9836,2.6007,2.2639,1.9418,1.8881,1.867,1.873,1.9,1.7795,1.5278,1.4411,1.2502,0.9954,0.889,1.0267,1.4069,1.717,1.8607,1.9086,1.9086,1.9086,1.9086,1.9086,1.9322,1.9322,1.9551,1.9322,2.0722,2.5605,2.8388,2.9071,3.4062,3.7069,3.6942,3.6748,3.6683,3.6761,3.6306,3.3622,2.8601,2.7769,2.4739,2.0444,1.9086,1.9086,1.9086,1.9086,1.9086,1.9086,1.9086,1.9086,1.9086,1.9086,1.9086,1.9086,1.885,1.7649,1.5496,1.4544,1.3358,1.1457,1.2645,1.4069,1.4549,1.7176,1.885,1.9086,1.9086,1.9086,1.9086,1.9086,1.9086,1.9551,2.095,2.1413,2.0487,2.1185,2.1882,2.0023,1.9558,1.9086,1.9086,1.9086,1.9086,1.9086,1.9086,1.9086,1.9086,1.9086,1.9086,1.9086,1.9086,1.9086,1.9086,1.9086,1.9086,1.9086,1.9086,1.9086,1.8128,1.885,1.9086,1.9315,1.9773,2.0708,5.5012,5.4785,5.3932,5.0876,4.6306,4.522,4.256,3.8205,3.5145,3.2076,2.8879,2.5481,2.1957,1.9119,1.8466,1.8473,1.8697,1.896,1.7455,1.4406,1.2196,0.9337,0.6493,0.4078,0.574,1.074,1.2158,1.5012,1.8607,1.9086,1.9086,1.9086,1.9086,1.9086,1.9086,1.9086,1.9086,2.0251,2.5131,2.8388,2.9041,3.4063,3.7124,3.7267,3.6981,3.6787,3.6774,3.6618,3.4721,3.1509,2.9297,2.6379,2.2562,2.0251,1.9086,1.9086,1.9086,1.9086,1.9086,1.9086,1.9086,1.9086,1.9086,1.9086,1.885,1.7176,1.5739,1.4312,1.2645,1.0981,1.0033,1.0509,1.0981,1.1695,1.5986,1.9086,1.9086,1.9086,1.885,1.9086,1.885,1.885,1.9086,2.0023,2.0009,1.9322,1.9787,2.0251,1.9322,1.9086,1.9086,1.9086,1.9086,1.9086,1.9086,1.9086,1.9086,1.9086,1.9086,1.9086,1.9086,1.9086,1.9086,1.9086,1.9086,1.9086,1.9086,1.9086,1.7892,1.6218,1.6697,1.7413,1.7879,1.8817,1.978,5.5012,5.4993,5.3895,5.0646,4.6306,4.522,4.2206,3.7921,3.3693,3.0568,2.8215,2.3729,2.0541,1.8506,1.8314,1.8453,1.8822,1.9,1.6703,1.2645,1.0509,0.7171,0.3354,0.0959,0.3353,0.8603,0.8347,1.12,1.6933,1.8613,1.9086,1.9086,1.9086,1.9086,1.9086,1.9086,1.9787,2.1185,2.5596,2.885,3.0431,3.4751,3.7033,3.7033,3.6851,3.6787,3.6787,3.6981,3.5873,3.3199,2.9992,2.6989,2.374,2.0722,1.9086,1.9086,1.9086,1.9086,1.9086,1.9086,1.9086,1.9086,1.9086,1.9086,1.8607,1.6218,1.3832,1.2408,0.9791,0.7174,0.6935,0.8364,0.9559,1.0274,1.5033,1.9086,1.885,1.8134,1.7892,1.8613,1.7892,1.7892,1.8594,1.9,1.8941,1.8941,1.8941,1.8934,1.8947,1.904,1.9086,1.9086,1.9086,1.9086,1.9086,1.9086,1.9086,1.9086,1.885,1.8607,1.7892,1.7892,1.6928,1.6685,1.8371,1.8613,1.8613,1.8134,1.5265,1.4312,1.526,1.5502,1.4781,1.7879,1.8843,5.5012,5.4558,5.2144,4.9317,4.6089,4.3267,4.0241,3.6765,3.1152,2.8132,2.6854,2.126,1.8216,1.8216,1.8229,1.8539,1.9007,1.9073,1.5986,1.0747,1.0033,0.6457,0.048,0.024,0.3592,0.8841,0.6684,0.8582,1.5023,1.7655,1.9086,1.9086,1.9086,1.9086,1.9092,1.9322,2.0722,2.3506,2.6999,2.9971,3.2925,3.591,3.6942,3.6111,3.6449,3.667,3.6709,3.7254,3.6412,3.3392,3.0431,2.7453,2.444,2.1413,1.9787,1.9322,1.9086,1.9086,1.9086,1.9086,1.9086,1.9086,1.9086,1.9086,1.885,1.5744,1.2645,1.0033,0.74,0.4302,0.2395,0.692,1.0008,1.0502,1.527,1.8134,1.8613,1.5981,1.5739,1.6939,1.5711,1.5448,1.8084,1.8602,1.8684,1.8657,1.8657,1.8657,1.8684,1.8888,1.9013,1.9033,1.9066,1.9086,1.9086,1.9086,1.885,1.8371,1.7649,1.7649,1.6697,1.5733,1.4775,1.4297,1.6223,1.7425,1.7898,1.6223,1.3125,1.2645,1.3358,1.4069,1.312,1.646,1.8613,5.5012,5.4785,5.4123,5.0858,4.6089,4.3252,3.9056,3.4098,2.9866,2.6712,2.4268,1.9893,1.7912,1.7945,1.8143,1.8433,1.8789,1.9,1.6939,1.3358,1.312,0.955,0.407,0.359,0.5736,0.8597,0.6435,0.9279,1.7164,1.885,1.9086,1.9086,1.9086,1.9086,1.9322,2.1413,2.2812,2.4207,2.9051,3.1891,3.2659,3.5027,3.6072,3.5449,3.5865,3.5955,3.5553,3.6475,3.6563,3.5648,3.3253,3.137,3.0442,2.7443,2.4906,2.2578,2.0258,1.9086,1.9086,1.9086,1.9086,1.9086,1.9086,1.9086,1.8134,1.4079,1.0747,0.954,0.8516,0.6617,0.4529,0.8988,1.2514,1.3102,1.4312,1.5496,1.5496,1.2887,1.1215,1.1924,1.1585,1.1972,1.4757,1.6925,1.8133,1.8127,1.8127,1.8361,1.8394,1.8361,1.8563,1.8802,1.8967,1.9059,1.9086,1.885,1.7655,1.6697,1.5502,1.4549,1.1937,1.0019,0.8823,1.0253,1.2659,1.4104,1.4574,1.2896,1.0271,1.0271,1.1695,1.3358,1.1695,1.5986,1.8377,5.5012,5.5012,5.5012,5.1561,4.5506,4.0461,3.6223,3.2199,2.8054,2.4922,2.2676,1.9184,1.7747,1.7991,1.8156,1.8459,1.8842,1.9013,1.7413,1.4549,1.4307,1.0974,0.5264,0.4779,0.5734,0.7169,0.5722,0.9045,1.597,1.7176,1.7892,1.885,1.9086,1.9086,1.9322,2.2117,2.444,2.5596,3.0262,3.2779,3.3466,3.4864,3.5306,3.4839,3.528,3.5397,3.5189,3.593,3.6449,3.623,3.3798,3.2377,3.2366,2.9598,2.7196,2.5357,2.2492,2.0437,1.8928,1.9033,1.904,1.8928,1.902,1.9086,1.885,1.4549,1.139,1.1037,0.9762,0.8349,0.7015,1.0688,1.3251,1.2475,1.3393,1.3645,1.2615,0.9503,0.8286,0.9224,0.8454,0.8624,1.1787,1.4663,1.6143,1.6255,1.5113,1.4211,1.4446,1.5783,1.6665,1.7027,1.8098,1.868,1.8693,1.8059,1.6454,1.4791,1.3362,1.1219,0.8603,0.6689,0.6205,0.5971,0.8358,1.0274,1.1008,0.9563,0.7651,0.741,0.9073,0.9073,0.9559,1.4559,1.8371,5.505,5.5088,5.4615,5.1136,4.4959,3.6807,3.2685,3.091,2.5855,2.2984,2.2049,1.9,1.7987,1.8639,1.8494,1.8755,1.9416,1.9033,1.7606,1.4981,1.4755,1.1441,0.574,0.5498,0.5259,0.5501,0.502,0.835,1.5023,1.4781,1.5975,1.8613,1.9322,1.9538,1.9974,2.299,2.598,2.872,3.0997,3.3211,3.4927,3.5034,3.4735,3.4203,3.4722,3.4995,3.4969,3.5566,3.5865,3.5637,3.3249,3.1727,3.1555,2.9673,2.8326,2.7876,2.5727,2.2823,1.9363,1.9108,1.8888,1.869,1.8848,1.898,1.8745,1.6375,1.4545,1.3091,1.1152,0.9784,0.9337,1.2054,1.3039,1.114,1.1969,1.2207,0.9427,0.635,0.5366,0.8388,0.581,0.5556,0.8437,1.087,1.2599,1.2884,1.1314,1.0209,1.0221,1.2375,1.4156,1.3861,1.6725,1.8125,1.7727,1.5804,1.4478,1.3553,1.1211,0.8134,0.5742,0.4781,0.5492,0.4067,0.5261,0.6212,0.6932,0.6696,0.4548,0.4308,0.3114,0.2396,0.8364,1.4554,1.8371,5.5354,5.5636,5.2855,5.0019,4.6412,3.7128,3.1315,2.8121,2.4692,2.1789,1.9642,1.8646,1.9439,2.1601,1.9607,1.9885,2.1625,1.981,1.8305,1.7827,1.7595,1.4398,0.8832,0.8364,0.8364,0.8126,0.5979,0.9311,1.6933,1.5496,1.5975,1.9086,2.1413,2.2445,2.2187,2.7403,3.0397,3.0704,3.3104,3.4458,3.4862,3.4618,3.4319,3.419,3.4319,3.4384,3.441,3.4956,3.528,3.5082,3.504,3.4825,3.4838,3.4275,3.2993,3.0769,2.9976,2.7317,2.2129,1.9736,1.8407,1.8341,1.8394,1.8426,1.8426,1.7736,1.6289,1.412,1.4845,1.46,1.3138,1.5085,1.575,1.3025,1.1412,0.9143,0.6218,0.2995,0.138,0.1837,0.1593,0.2255,0.47,0.5979,0.7464,0.9189,0.9392,0.8739,0.9189,1.151,1.1176,1.0114,1.3285,1.6758,1.5107,1.4161,1.2879,1.0554,0.7819,0.5013,0.0,0.0,0.0,0.0,0.0,0.0,0.0,0.0,0.0,0.1436,0.1197,0.2155,0.8355,1.4544,1.8607,5.4945,5.3943,5.2009,4.8798,4.4587,3.7424,3.0935,2.4925,2.2081,1.9977,1.8868,1.9934,2.1346,2.2688,2.266,2.2635,2.268,2.108,1.96,1.8486,1.8618,1.5412,0.9828,0.9427,0.8716,0.7256,0.6788,1.005,1.5892,1.6477,1.7927,2.0958,2.2575,2.3763,2.4772,2.9429,3.1529,3.1464,3.3323,3.428,3.4267,3.3969,3.3787,3.38,3.406,3.419,3.419,3.4501,3.467,3.4657,3.4969,3.5137,3.5137,3.5397,3.4661,3.3126,3.0698,2.7962,2.4648,2.0524,1.8038,1.8038,1.8156,1.813,1.7873,1.784,1.7164,1.5594,1.6593,1.7006,1.5576,1.6587,1.5941,1.1923,1.0074,0.7185,0.3414,0.091,0.0,0.0,0.0,0.0,0.2207,0.3498,0.478,0.4564,0.6086,0.6084,0.5004,0.7223,0.7918,0.573,0.9745,1.2729,1.1927,1.0733,0.8992,0.7622,0.4688,0.2132,0.0,0.0,0.0,0.0,0.0,0.0,0.0,0.0,0.0,0.0,0.095,0.3791,0.8289,1.3307,1.7075,5.4353,5.1603,5.1386,4.7622,4.1623,3.7245,3.0687,2.287,1.9741,1.8361,1.8895,2.1375,2.2354,2.2729,2.5173,2.4888,2.2359,2.2351,2.0815,1.8189,1.844,1.5417,0.9777,0.9905,0.851,0.5898,0.8397,1.1346,1.4536,1.7755,2.0643,2.3343,2.3578,2.4763,2.7302,3.0307,3.1783,3.1691,3.2945,3.3462,3.365,3.3449,3.3584,3.3255,3.3839,3.4125,3.3956,3.4099,3.4099,3.3943,3.3943,3.3943,3.3956,3.4332,3.4709,3.4523,3.0103,2.7282,2.6656,2.1571,1.8159,1.7967,1.7965,1.7684,1.6771,1.672,1.6505,1.6074,1.6308,1.6726,1.6726,1.6954,1.5071,0.9719,0.8762,0.6375,0.0904,0.0,0.0,0.0,0.0,0.0,0.0,0.2177,0.261,0.1089,0.2393,0.2827,0.1524,0.2177,0.3478,0.4138,0.6595,0.8413,0.8214,0.6297,0.545,0.478,0.231,0.0,0.0,0.0,0.0,0.0,0.0,0.0,0.0,0.0,0.0,0.0,0.1634,0.4895,0.8611,1.2193,1.5017,5.3875,5.1603,4.9383,4.6067,4.1843,3.514,3.0122,2.5728,2.0382,0.0,0.0,1.9321,2.1094,2.3107,2.3562,2.3235,2.2446,2.2203,2.0686,1.81,1.7925,1.5897,1.2497,1.2311,1.2004,1.1175,1.1977,1.5146,2.0452,2.1238,2.3193,2.584,2.6062,2.7592,3.0351,3.3053,3.4129,3.3647,3.3959,3.4021,3.4034,3.4034,3.3579,3.2644,3.3631,3.3735,3.2826,3.3683,3.3748,3.2839,3.2774,3.2774,3.2761,3.2437,3.2865,3.3972,3.085,2.7936,2.6192,2.2768,1.999,1.7667,1.7497,1.6389,1.3907,1.3675,1.2812,1.0421,1.2375,1.3891,1.3891,1.5853,1.4997,0.9371,0.8706,0.6315,0.0,0.0,0.0,0.0,0.0,0.0,0.0,0.0,0.0436,0.0,0.0,0.0436,0.0218,0.0,0.0,0.0,0.3926,0.6117,0.525,0.4428,0.4471,0.403,0.1817,0.0,0.0,0.0,0.0,0.0,0.0,0.0,0.0,0.0,0.0,0.0,0.046,0.2524,0.7788,1.169,1.3747,5.0928,4.8581,4.5941,4.2192,0.0,3.1852,2.7722,2.4426,2.0008,1.8479,1.8881,2.0479,2.1895,2.291,2.584,2.5081,2.1783,2.3036,2.1244,1.7353,1.7286,1.5751,1.2627,1.2739,1.2681,1.2481,1.3828,1.6909,2.1358,2.3001,2.5449,2.8691,2.8702,2.9756,3.2277,3.3761,3.4475,3.419,3.3891,3.3748,3.3748,3.3748,3.3488,3.2956,3.3735,0.0,0.0,0.0,0.0,0.0,0.0,0.0,0.0,0.0,0.0,3.0975,2.897,2.6938,2.4964,2.2175,1.9424,1.7126,1.7062,1.6384,1.4641,1.3468,1.1675,0.8997,1.0077,1.0931,1.0935,1.2099,1.129,0.7166,0.6518,0.4783,0.0,0.0,0.0,0.0,0.0,0.0,0.0,0.0,0.0,0.0,0.0,0.0,0.0,0.0,0.0,0.0,0.196,0.0,0.2177,0.2193,0.1983,0.0,0.0894,0.0,0.0,0.0,0.0,0.0,0.0,0.0,0.0,0.0,0.0,0.0,0.1356,0.3603,0.5794,0.7782,0.9338,4.8127,4.5481,4.3342,3.8833,3.255,2.8378,2.4746,2.1439,1.9407,1.875,1.9215,2.1436,2.2217,2.2524,2.7476,2.6801,2.1967,2.4192,2.2388,1.71,1.6939,1.544,1.3141,1.3114,1.3484,1.3658,1.5685,1.866,2.2459,2.5116,2.8011,3.1125,3.1346,3.2191,3.3242,0.0,0.0,0.0,3.3566,3.3488,3.3501,3.3689,3.3346,3.3047,3.367,0.0,3.3566,3.342,3.2887,3.2253,3.1793,0.0,0.0,0.0,0.0,0.0,0.0,0.0,0.0,0.0,0.0,0.0,1.6475,1.6323,1.5888,1.3754,1.1174,0.824,0.7812,0.7809,0.7834,0.8343,0.7542,0.4756,0.4326,0.3251,0.0,0.0,0.0,0.0,0.0,0.0,0.0,0.0,0.0,0.0,0.0,0.0,0.0,0.0,0.0,0.0,0.0,0.0,0.0,0.0,0.0,0.0,0.0,0.0,0.0,0.0,0.0,0.0,0.0,0.0,0.0,0.0,0.0,0.0,0.1999,0.3756,0.3489,0.3913,0.4995,4.7839,4.5093,4.3641,3.8967,3.1861,2.6317,2.2008,1.9058,1.8614,1.8453,1.871,1.8869,1.9893,2.1936,2.441,2.5037,2.3793,2.4365,2.2934,1.9702,1.7535,1.6193,1.5726,1.5558,1.6601,1.8424,1.9079,2.1973,2.6946,2.9705,3.1417,3.2381,3.43,3.4426,3.2775,3.4746,3.4538,3.1982,3.3358,3.4073,3.4073,3.4073,3.3358,3.1982,3.2891,3.2735,3.1333,3.0237,2.9295,2.8198,2.6159,2.4594,2.3967,2.3539,2.3424,0.0,2.1214,0.0,0.0,0.0,0.0,0.0,0.0,0.0,0.0,1.3117,0.9806,0.4863,0.481,0.4799,0.4871,0.7118,0.7524,0.4672,0.4256,0.3212,0.0,0.0,0.0,0.0,0.0,0.0,0.0,0.0,0.0,0.0,0.0,0.0,0.0,0.0,0.0,0.0,0.0,0.0,0.0,0.0,0.0,0.0,0.0,0.0,0.0,0.0,0.0,0.0,0.0,0.0,0.0,0.0,0.0,0.0,0.0219,0.0655,0.0871,0.2391,0.4345,4.4153,4.1783,3.8204,3.2979,2.7023,2.432,2.1719,1.8895,1.8769,1.8782,1.8875,1.8433,1.9419,2.1301,2.5067,2.5753,2.4153,2.5506,2.4776,2.1856,1.9322,1.8091,1.7949,1.7949,1.8447,1.9442,2.2442,2.5879,2.9759,3.2495,3.4721,3.6426,3.7567,3.6598,3.3768,3.4789,3.4307,3.1644,3.2683,3.3229,3.3229,3.3242,3.2865,3.2151,3.2592,3.1878,2.9789,2.9248,2.7881,2.5654,2.4391,2.2918,2.0999,2.106,2.0974,0.0,0.0,0.0,0.0,0.0,0.0,0.0,0.0,0.0,0.0,0.0,0.9874,0.5905,0.3419,0.1842,0.1857,0.3099,0.3319,0.2093,0.1902,0.1487,0.0,0.0,0.0,0.0,0.0,0.0,0.0,0.0,0.0,0.0,0.0,0.0,0.0,0.0,0.0,0.0,0.0,0.0,0.0,0.0,0.0,0.0,0.0,0.0,0.0,0.0,0.0,0.0,0.0,0.0,-0.1959,-0.1089,-0.0654,-0.1739,-0.2161,-0.1719,-0.0215,0.1082,0.1958,4.0323,3.8112,3.2696,2.7539,2.3189,2.252,2.1028,1.8895,1.9033,1.8974,1.8763,1.8394,1.8753,1.9963,2.4762,2.6276,2.5264,2.6026,2.5317,2.304,2.0007,1.8484,1.8484,1.9243,1.999,2.1477,2.58,2.9728,3.3066,3.6073,3.8022,3.9289,4.1004,4.0108,3.6749,3.6032,3.4444,3.1769,3.1445,3.1142,3.0668,3.0681,3.0607,3.0484,3.0484,2.9438,2.7535,2.6841,2.5506,2.315,2.2158,2.0535,1.7975,1.8478,0.0,0.0,0.0,0.0,0.0,0.0,0.0,0.0,0.0,1.3746,1.3106,0.0,1.0494,0.0,0.2663,0.0,0.0,0.0,0.0,0.0,0.0823,0.1037,0.1657,0.1253,0.0839,0.1043,0.0421,0.0,0.0,0.0,0.0,0.0,0.0,0.0,0.0,0.0,0.0,0.0,0.0,0.0,0.0,0.0,0.0,0.0,0.0,0.0,0.0,0.0,0.0,0.0,-0.0431,-0.1721,-0.3649,-0.3008,-0.2793,-0.4505,-0.4465,-0.3165,0.0,0.0,0.0,3.7788,3.472,2.948,2.5766,2.2961,2.0264,1.8755,1.8347,1.8862,1.8644,1.7919,1.813,1.7673,1.669,2.0659,0.0,2.9313,2.4865,2.3042,2.2841,1.8101,1.5818,1.6011,1.8292,2.1847,2.6238,2.8887,3.2782,3.7397,4.1856,4.1974,3.8278,4.4806,4.6474,4.2881,3.9442,3.5582,3.1599,2.9261,2.7228,2.5493,2.5503,2.5309,2.491,2.4695,2.4512,2.3557,2.1563,2.0405,1.9683,1.725,1.5384,1.4196,0.0,0.0,0.0,0.0,0.0,0.0,0.0,0.0,0.0,0.0,0.0,0.0,0.0,0.0,0.0,0.2474,0.0,0.0,0.0,0.0,0.0,0.0,0.4312,0.6978,0.4888,0.3477,0.3799,0.0,0.0,0.0,0.0,0.0,0.0,0.0,0.0,0.0,0.0,0.0,0.0,0.0,0.0,0.0,0.0,0.0,0.0,0.0,0.0,0.0,0.0,0.0,0.0,-0.2079,-0.3738,-0.3944,-0.6013,-0.7249,-0.7662,-0.5797,-0.3315,0.0,0.0,0.0,3.5293,2.9161,2.5352,2.2219,1.9893,1.8809,1.8176,1.8242,1.8281,1.8018,1.751,1.8164,1.9011,1.9821,2.3054,0.0,0.0,0.0,2.9378,2.9014,2.5502,2.3464,2.2613,2.5019,2.7881,3.1187,3.4327,3.8945,4.453,4.5649,4.594,4.6023,0.0,0.0,4.1055,3.6498,3.2258,2.8373,2.6141,2.4501,2.3923,2.3923,2.3652,2.3485,2.3475,2.2643,2.0961,2.0143,1.8715,1.6872,1.5466,1.4425,0.0,0.0,0.0,0.0,0.0,0.0,0.0,0.0,0.0,0.0,0.0,1.1991,1.0011,0.0,0.0,0.0,0.2923,0.1606,0.0184,0.0,0.0,0.0,0.0,0.0,0.0,0.0,0.0,0.4092,0.2834,0.1609,0.0204,-0.1413,-0.2417,-0.2247,-0.2426,-0.1818,-0.0207,0.0,0.0,0.0,0.0,0.0,0.0,0.0,0.0,0.0,0.0,0.0,0.0,-0.1436,-0.2248,-0.2681,-0.5372,-0.805,-0.8866,-1.0928,-1.2171,-1.0582,-0.9266,-0.7107,-0.3052,-0.2259,-0.1872,3.1346,0.0,0.0,0.0,0.0,1.7543,1.7622,1.7728,1.7688,1.7801,1.7843,1.8325,0.0,0.0,0.0,0.0,0.0,0.0,3.466,3.4214,3.2067,3.0408,2.9389,3.1553,3.3971,3.6641,4.045,4.4885,4.9793,4.9095,4.9554,5.0909,0.0,0.0,0.0,0.0,2.6947,2.312,2.0953,1.9534,1.878,1.9376,1.9766,1.9774,2.0554,1.9799,1.731,1.781,1.7191,1.5137,1.4392,0.0,0.0,0.0,0.0,0.0,0.0,0.0,0.0,0.0,0.0,0.0,0.0,0.0,0.0,0.0,0.0,0.0,0.0,0.0,0.0,0.0,0.0176,0.0,0.0,0.0,0.0,0.0,0.0,0.0,0.0,0.0,-0.0797,-0.2764,-0.4149,0.0,0.0,-0.3163,-0.1422,-0.0403,0.0,0.0,0.0,0.0,0.0,0.0,0.0,0.0,0.0,-0.0201,-0.1025,-0.2629,-0.4215,-0.5106,-0.8777,-1.22,-1.3178,-1.4559,-1.4598,-1.2406,-1.1735,-1.0235,-0.623,-0.4446,-0.3273,0.0,0.0,0.0,0.0,0.0,0.0,0.0,0.0,1.7134,1.7959,0.0,1.8852,0.0,0.0,0.0,0.0,3.4522,3.5972,0.0,0.0,3.5641,3.4894,3.5031,3.6434,3.912,4.314,4.6873,5.0137,5.2804,5.2747,0.0,0.0,0.0,0.0,0.0,0.0,2.0035,1.568,1.3237,1.0864,0.858,1.073,1.2103,1.2297,1.4445,1.4639,1.2292,1.4189,1.5117,1.4379,1.3812,0.0,0.0,0.0,0.0,0.0,0.0,0.0,0.0,0.0,0.0,0.0,0.0,0.0,0.0,0.0,0.0,0.0,0.0,0.0,0.0,0.0,0.0,0.0,0.0,0.0,0.0,0.0,0.0,0.0,0.0,0.0,-0.3119,-0.3913,-0.4889,-0.7237,0.0,0.0,0.0,0.0,0.0,0.0,0.0,0.0,0.0,0.0,0.0,0.0,0.0,0.0,-0.3616,-0.3966,-0.4729,-0.7608,-1.1918,-1.5315,-1.5483,-1.5672,-1.522,-1.2803,-1.242,-1.1229,-0.8621,-0.5962,-0.3961,0.0,0.0,0.0,0.0,0.0,0.0,0.0,0.0,0.0,1.8407,1.9015,2.2357,0.0,0.0,0.0,0.0,0.0,0.0,0.0,0.0,3.935,3.855,3.7096,4.0758,4.3598,0.0,4.8818,5.1746,0.0,0.0,0.0,0.0,0.0,0.0,0.0,0.0,1.2125,0.9771,0.7726,0.6216,0.5449,0.7799,0.9953,1.1526,1.2501,1.3323,1.3758,1.441,1.4642,0.0,0.0,0.0,0.0,0.0,0.0,0.0,0.0,0.0,0.0,0.0,0.0,0.0,0.0,0.0,0.0,0.0,0.0,0.0,0.0,0.0,0.0,0.0,0.0325,0.0,0.0,0.0,0.0,0.0,0.0,0.0,0.0,0.0,-0.554,-0.6527,-0.7325,-0.9944,-0.9568,-0.7621,-0.4302,0.0,0.0,0.0,0.0,0.0,0.0,0.0,0.0,0.0,0.0,-0.0408,-0.123,-0.4234,-0.7372,-1.0218,0.0,0.0,-1.5625,-1.5717,-1.5386,-1.4585,-1.4667,-1.419,-1.1091,-0.8599,-0.6473,0.0,0.0,0.0,0.0,0.0,0.0,0.0,0.0,0.0,1.939,2.0744,0.0,0.0,0.0,0.0,0.0,0.0,0.0,0.0,0.0,0.0,0.0,4.2043,4.5431,0.0,0.0,0.0,0.0,0.0,0.0,0.0,0.0,0.0,0.0,0.0,0.0,0.4809,0.3163,0.1882,0.1362,0.1363,0.4679,0.7809,1.035,1.035,1.1707,1.4604,0.0,0.0,0.0,0.0,0.0,0.0,0.0,0.0,0.0,0.0,0.0,0.0,0.0,0.0,0.0,0.0,0.0,0.0,0.0,0.0,0.0,0.0,0.0,0.0,0.0,0.0,0.0,0.0,0.0,0.0,0.0,0.0,0.0,0.0,0.0,0.0,0.0,-0.8783,-1.1394,-1.1675,-1.0346,-0.7027,-0.5723,-0.4646,0.0,0.0,0.0,0.0,0.0,0.0,0.0,0.0,0.0,0.0,0.0,0.0,0.0,0.0,-1.548,-1.5473,-1.548,-1.548,-1.548,0.0,0.0,0.0,0.0,0.0,0.0,0.0,0.0,0.0,0.0,0.0,0.0,0.0,0.0,0.0,2.433,0.0,0.0,3.5139,0.0,0.0,0.0,0.0,0.0,0.0,0.0,0.0,0.0,0.0,0.0,0.0,0.0,0.0,0.0,0.0,0.0,0.0,0.0,0.0,0.0,0.0,-0.1733,-0.3832,-0.3576,-0.3716,-0.3716,0.1173,0.5082,0.7611,0.7611,0.9967,1.4415,0.0,0.0,0.0,0.0,0.0,0.0,0.0,0.0,0.0,0.0,0.0,0.0,0.0,0.0,0.0,0.0,0.0,0.0,0.0,0.0,0.0,0.0,0.0,0.0,0.0,0.0,0.0,0.0,0.0,0.0,0.0,0.0,0.0,0.0,0.0,0.0,0.0,0.0,-1.1413,-1.1783,-1.1715,-1.17,-0.9459,-0.7886,-0.7505,-0.7673,-0.7579,-0.7559,-0.7569,-0.6921,0.0,0.0,0.0,0.0,0.0,0.0,0.0,0.0,0.0,0.0,0.0,0.0,0.0,0.0,0.0,0.0,0.0,0.0,0.0,0.0,0.0,0.0,0.0,0.0,0.0,0.0,0.0,0.0,0.0,0.0,0.0,0.0,0.0,0.0,0.0,0.0,0.0,0.0,0.0,0.0,0.0,0.0,0.0,0.0,0.0,0.0,0.0,0.0,0.0,0.0,0.0,0.0,0.0,0.0,-0.3302,-0.3829,-0.3952,-0.3913,-0.3913,-0.0587,0.235,0.4887,0.5082,0.7291,0.0,0.0,0.0,0.0,0.0,0.0,0.0,0.0,0.0,0.0,0.0,0.0,0.0,0.0,0.0,0.0,0.0,0.0,0.0,0.0,0.0,0.0,0.0,0.0,0.0,0.0,0.0,0.0,0.0,0.0,0.0,0.0,0.0,0.0,0.0,0.0,0.0,0.0,0.0,0.0,0.0,-1.4585,-1.5552,-1.3093,-1.0329,-0.7907,-0.7941,-0.8276,-0.7577,-0.6155,-0.4777,-0.3993,0.0,0.0,0.0,0.0,0.0,0.0,0.0,0.0,0.0,0.0,0.0,0.0,0.0,0.0,0.0,0.0,0.0,0.0,0.0,0.0,0.0,0.0,0.0,0.0,0.0,0.0,0.0,0.0,0.0,0.0,0.0,0.0,0.0,0.0,0.0,0.0,0.0,0.0,0.0,0.0,0.0,0.0,0.0,0.0,0.0,0.0,0.0,0.0,0.0,0.0,0.0,0.0,0.0,-0.3127,-0.3831,-0.3954,-0.3913,-0.3718,-0.1372,0.1177,0.3913,0.3913,0.5909,0.0,0.0,0.0,0.0,0.0,0.0,0.0,0.0,0.0,0.0,0.0,0.0,0.0,0.0,0.0,0.0,0.0,0.0,0.0,0.0,0.0,0.0,0.0,0.0,0.0,0.0,0.0,0.0,0.0,0.0,0.0,0.0,0.0,0.0,0.0,0.0,0.0,0.0,0.0,0.0,0.0,-1.5572,-1.6295,-1.486,0.0,0.0,-1.083,-1.1141,-1.0286,-0.818,-0.6152,-0.4098,-0.2556,0.0,0.0,0.0,0.0,0.0,0.0,0.0,0.0,0.0,0.0,0.0,0.0,0.0,0.0,0.0,0.0,0.0,0.0,0.0,0.0,0.0,0.0,0.0,0.0,0.0,0.0,0.0,0.0,0.0,0.0,0.0,0.0,0.0,0.0,0.0,0.0,0.0,0.0,0.0,0.0,0.0,0.0,0.0,0.0,0.0,0.0,0.0,0.0,0.0,0.0,0.0,0.0,-0.1387,-0.3315,-0.3766,-0.3913,-0.3913,-0.1568,0.0784,0.3327,0.3327,0.5282,0.0,0.0,0.0,0.0,0.0,0.0,0.0,0.0,0.0,0.0,0.0,0.0,0.0,0.0,0.0,0.0,0.0,0.0,0.0,0.0,0.0,0.0,0.0,0.0,0.0,0.0,0.0,0.0,0.0,0.0,0.0,0.0,0.0,0.0,0.0,0.0,0.0,0.0,0.0,0.0,0.0,-1.5124,-1.541,-1.5578,-1.5424,0.0,-1.517,-1.536,-1.4982,-1.2508,-0.909,-0.4311,0.0,0.0,0.0,0.0,0.0,0.0,0.0,0.0,0.0,0.0,0.0,0.0,0.0,0.0,0.0,0.0,0.0,0.0,0.0,0.0,0.0,0.0,0.0,0.0,0.0,0.0,0.0,0.0,0.0,0.0,0.0,0.0,0.0,0.0,0.0,0.0,0.0,0.0,0.0,0.0,0.0,0.0,0.0,0.0,0.0,0.0,0.0,0.0,0.0,0.0,0.0,0.0,0.0,0.0,0.1219,-0.207,-0.3913,-0.3913,-0.5082,-0.4492,-0.1955,-0.1956,0.0,0.0,0.0,0.0,0.0,0.0,0.0,0.0,0.0,0.0,0.0,0.0,0.0,0.0,0.0,0.0,0.0,0.0,0.0,0.0,0.0,0.0,0.0,0.0,0.0,0.0,0.0,0.0,0.0,0.0,0.0,0.0,0.0,0.0,0.0,0.0,0.0,0.0,0.0,0.0,0.0,0.0,-1.5771,-1.8076,-1.698,-1.5776,0.0,0.0,-1.6165,-1.5862,-0.9902,-0.4853,0.0,0.0,0.0,0.0,0.0,0.0,0.0,0.0,0.0,0.0,0.0,0.0,0.0,0.0,0.0,0.0,0.0,0.0,0.0,0.0,0.0,0.0,0.0,0.0,0.0,0.0,0.0,0.0,0.0,0.0,0.0,0.0,0.0,0.0,0.0,0.0,0.0,0.0,0.0,0.0,0.0,0.0,0.0,0.0,0.0,0.0,0.0,0.0,0.0,0.0,0.0,0.0,0.0,0.0,0.4253,0.139,-0.2035,-0.4427,-0.5663,-0.7027,-0.7027,-0.5667,-0.4496,-0.1711,0.0,0.0,0.0,0.0,0.0,0.0,0.0,0.0,0.0,0.0,0.0,0.0,0.0,0.0,0.0,0.0,0.0,0.0,0.0,0.0,0.0,0.0,0.0,0.0,0.0,0.0,0.0,0.0,0.0,0.0,0.0,0.0,0.0,0.0,0.0,0.0,0.0,0.0,0.0,0.0,0.0,0.0,-1.5735,-1.5726,0.0,0.0,0.0,-1.5743,-1.5209,0.0,0.0,0.0,0.0,0.0,0.0,0.0,0.0,0.0,0.0,0.0,0.0,0.0,0.0,0.0,0.0,0.0,0.0,0.0,0.0,0.0,0.0,0.0,0.0,0.0,0.0,0.0,0.0,0.0,0.0,0.0,0.0,0.0,0.0,0.0,0.0,0.0,0.0,0.0,0.0,0.0,0.0,0.0,0.0,0.0,0.0,0.0,0.0,0.0,0.0,0.0,0.0,0.0,0.0,0.0,0.0,0.0,-0.0173,-0.2907,-0.5674,-0.8181,-0.8775,-0.8969,-0.8577,-0.6442,-0.3994,0.0,0.0,0.0,0.0,0.0,0.0,0.0,0.0,0.0,0.0,0.0,0.0,0.0,0.0,0.0,0.0,0.0,0.0,0.0,0.0,0.0,0.0,0.0,0.0,0.0,0.0,0.0,0.0,0.0,0.0,0.0,0.0,0.0,0.0,0.0,0.0,0.0,0.0,0.0,0.0,0.0,-1.0107,-1.1376,-1.3179,-1.4559,0.0,0.0,-1.5011,-1.4207,-0.7853,0.0,0.0,0.0,0.0,0.0,0.0,0.0,0.0,0.0,0.0,0.0,0.0,0.0,0.0,0.0,0.0,0.0,0.0,0.0,0.0,0.0,0.0,0.0,0.0,0.0,0.0,0.0,0.0,0.0,0.0,0.0,0.0,0.0,0.0,0.0,0.0,0.0,0.0,0.0,0.0,0.0,0.0,0.0,0.0,0.0,0.0,0.0,0.0,0.0,0.0,0.0,0.0,0.0,0.0,0.0,0.0,0.1557,-0.4091,-0.8333,-1.0924,-1.4981,-1.6129,-1.3987,-1.3403,-1.007,0.0,0.0,0.0,0.0,0.0,0.0,0.0,0.0,0.0,0.0,0.0,0.0,0.0,0.0,0.0,0.0,0.0,0.0,0.0,0.0,0.0,0.0,0.0,0.0,0.0,0.0,0.0,0.0,0.0,0.0,0.0,0.0,0.0,0.0,0.0,0.0,0.0,0.0,0.0,0.0,0.0,-0.6184,-0.9688,-1.1333,0.0,0.0,0.0,0.0,-1.5341,-0.8519,0.0,0.0,0.0,0.0,0.0,0.0,0.0,0.0,0.0,0.0,0.0,0.0,0.0,0.0,0.0,0.0,0.0,0.0,0.0,0.0,0.0,0.0,0.0,0.0,0.0,0.0,0.0,0.0,0.0,0.0,0.0,0.0,0.0,0.0,0.0,0.0,0.0,0.0,0.0,0.0,0.0,0.0,0.0,0.0,0.0,0.0,0.0,0.0,0.0,0.0,0.0,0.0,0.0,0.0,0.0,0.0,0.0525,-0.4989,-0.9585,-1.3465,-1.7325,-1.8844,-1.748,-1.6109,-1.3708,0.0,0.0,0.0,0.0,0.0,0.0,0.0,0.0,0.0,0.0,0.0,0.0,0.0,0.0,0.0,0.0,0.0,0.0,0.0,0.0,0.0,0.0,0.0,0.0,0.0,0.0,0.0,0.0,0.0,0.0,0.0,0.0,0.0,0.0,0.0,0.0,0.0,0.0,0.0,0.0,0.0496,-0.3024,-0.7125,0.0,0.0,0.0,0.0,0.0,0.0,-1.0411,-0.4568,0.0,0.0,0.0,0.0,0.0,0.0,0.0,0.0,0.0,0.0,0.0,0.0,0.0,0.0,0.0,0.0,0.0,0.0,0.0,0.0,0.0,0.0,0.0,0.0,0.0,0.0,0.0,0.0,0.0,0.0,0.0,0.0,0.0,0.0,0.0,0.0,0.0,0.0,0.0,0.0,0.0,0.0,0.0,0.0,0.0,0.0,0.0,0.0,0.0,0.0,0.0,0.0,0.0,0.0,0.0,-0.0532,-0.5312,-1.0026,-1.4826,-1.7909,-1.9442,-1.9434,-1.7664,-1.6387,-1.5589,0.0,0.0,0.0,0.0,0.0,0.0,0.0,0.0,0.0,0.0,0.0,0.0,0.0,0.0,0.0,0.0,0.0,0.0,0.0,0.0,0.0,0.0,0.0,0.0,0.0,0.0,0.0,0.0,0.0,0.0,0.0,0.0,0.0,0.0,0.0,0.0,0.0,0.0,0.0,0.3873,0.0,0.0,0.0,0.0,0.0,0.0,0.0,0.0,0.0,-0.8055,0.0,0.0,0.0,0.0,0.0,0.0,0.0,0.0,0.0,0.0,0.0,0.0,0.0,0.0,0.0,0.0,0.0,0.0,0.0,0.0,0.0,0.0,0.0,0.0,0.0,0.0,0.0,0.0,0.0,0.0,0.0,0.0,0.0,0.0,0.0,0.0,0.0,0.0,0.0,0.0,0.0,0.0,0.0,0.0,0.0,0.0,0.0,0.0,0.0,0.0,0.0,0.0,0.0,0.0,0.0,0.0,-0.4514,-0.9314,-1.2302,-1.6933,-1.9442,-1.9434,-2.1124,-2.074,-1.7972,0.0,0.0,0.0,0.0,0.0,0.0,0.0,0.0,0.0,0.0,0.0,0.0,0.0,0.0,0.0,0.0,0.0,0.0,0.0,0.0,0.0,0.0,0.0,0.0,0.0,0.0,0.0,0.0,0.0,0.0,0.0,0.0,0.0,0.0,0.0,0.0,0.0,0.0,1.0054,0.7907,0.0,0.0,0.0,0.0,0.0,0.0,0.0,0.0,-1.6162,0.0,0.0,0.0,0.0,0.0,0.0,0.0,0.0,0.0,0.0,0.0,0.0,0.0,0.0,0.0,0.0,0.0,0.0,0.0,0.0,0.0,0.0,0.0,0.0,0.0,0.0,0.0,0.0,0.0,0.0,0.0,0.0,0.0,0.0,0.0,0.0,0.0,0.0,0.0,0.0,0.0,0.0,0.0,0.0,0.0,0.0,0.0,0.0,0.0,0.0,0.0,0.0,0.0,0.0,0.0,0.0,0.0,0.0,-0.7614,-1.1521,-1.5366,-1.8062,-1.9434,-2.0571,-1.9736,0.0,0.0,0.0,0.0,0.0,0.0,0.0,0.0,0.0,0.0,0.0,0.0,0.0,0.0,0.0,0.0,0.0,0.0,0.0,0.0,0.0,0.0,0.0,0.0,0.0,0.0,0.0,0.0,0.0,0.0,0.0,0.0,0.0,0.0,0.0,0.0,0.0,0.0,0.0,0.0,0.0,0.0,0.0,0.0,0.0,0.0,0.0,0.0,0.0,0.0,0.0,0.0,0.0,0.0,0.0,0.0,0.0,0.0,0.0,0.0,0.0,0.0,0.0,0.0,0.0,0.0,0.0,0.0,0.0,0.0,0.0,0.0,0.0,0.0,0.0,0.0,0.0,0.0,0.0,0.0,0.0,0.0,0.0,0.0,0.0,0.0,0.0,0.0,0.0,0.0,0.0,0.0,0.0,0.0,0.0,0.0,0.0,0.0,0.0,0.0,0.0,0.0,0.0,0.0,0.0,0.0,0.0,0.0,-0.5273,-0.9957,-1.3039,-1.5744,-1.7694,-1.7694,-1.6725,0.0,0.0,0.0,0.0,0.0,0.0,0.0,0.0,0.0,0.0,0.0,0.0,0.0,0.0,0.0,0.0,0.0,0.0,0.0,0.0,0.0,0.0,0.0,0.0,0.0,0.0,0.0,0.0,0.0,0.0,0.0,0.0,0.0,0.0,0.0,0.0,0.0,0.0,0.0,0.0,0.0,0.0,0.0,0.0,0.0,0.0,0.0,0.0,-2.6796,0.0,0.0,0.0,0.0,0.0,0.0,0.0,0.0,0.0,0.0,0.0,0.0,0.0,0.0,0.0,0.0,0.0,0.0,0.0,0.0,0.0,0.0,0.0,0.0,0.0,0.0,0.0,0.0,0.0,0.0,0.0,0.0,0.0,0.0,0.0,0.0,0.0,0.0,0.0,0.0,0.0,0.0,0.0,0.0,0.0,0.0,0.0,0.0,0.0,0.0,0.0,0.0,0.0,0.0,0.0,0.0,0.0,0.0,0.0,-0.1755,-0.4691,-0.9568,-1.2108,-1.2491,-1.2491,-1.2006,0.0,0.0,0.0,0.0,0.0,0.0,0.0,0.0,0.0,0.0,0.0,0.0,0.0,0.0,0.0,0.0,0.0,0.0,0.0,0.0,0.0,0.0,0.0,0.0,0.0,0.0,0.0,0.0,0.0,0.0,0.0,0.0,0.0,0.0,0.0,0.0,0.0,0.0,0.0,0.0,0.0,0.0,0.0,0.0,0.0,0.0,0.0,0.0,0.0,0.0,0.0,0.0,0.0,0.0,0.0,0.0,0.0,0.0,0.0,0.0,0.0,0.0,0.0,0.0,0.0,0.0,0.0,0.0,0.0,0.0,0.0,0.0,0.0,0.0,0.0,0.0,0.0,0.0,0.0,0.0,0.0,0.0,0.0,0.0,0.0,0.0,0.0,0.0,0.0,0.0,0.0,0.0,0.0,0.0,0.0,0.0,0.0,0.0,0.0,0.0,0.0,0.0,0.0,0.0,0.0,0.0,0.0,0.0,0.0193,-0.3912,-0.6058,-0.7072,-0.7146,-0.8639,-0.9175,0.0,0.0,0.0,0.0,0.0,0.0,0.0,0.0,0.0,0.0,0.0,0.0,0.0,0.0,0.0,0.0,0.0,0.0,0.0,0.0,0.0,0.0,0.0,0.0,0.0,0.0,0.0,0.0,0.0,0.0,0.0,0.0,0.0,0.0,0.0,0.0,0.0,0.0,0.0,0.0,0.0,0.0,0.0,0.0,0.0,0.0,0.0,0.0,0.0,0.0,0.0,0.0,0.0,0.0,0.0,0.0,0.0,0.0,0.0,0.0,0.0,0.0,0.0,0.0,0.0,0.0,0.0,0.0,0.0,0.0,0.0,0.0,0.0,0.0,0.0,0.0,0.0,0.0,0.0,0.0,0.0,0.0,0.0,0.0,0.0,0.0,0.0,0.0,0.0,0.0,0.0,0.0,0.0,0.0,0.0,0.0,0.0,0.0,0.0,0.0,0.0,0.0,0.0,0.0,0.0,0.0,0.0,0.0,0.0,-0.1758,-0.1946,-0.2352,-0.2994,-0.5486,-0.6635,0.0,0.0,0.0,0.0,0.0,0.0,0.0,0.0,0.0,0.0,0.0,0.0,0.0,0.0,0.0,0.0,0.0,0.0,0.0,0.0,0.0,0.0,0.0,0.0,0.0,0.0,0.0,0.0,0.0,0.0,0.0,0.0,0.0,0.0,0.0,0.0,0.0,0.0,0.0,0.0,0.0,0.0,0.0,0.0,0.0,0.0,0.0,0.0,0.0,0.0,0.0,0.0,0.0,0.0,0.0,0.0,0.0,0.0,0.0,0.0,0.0,0.0,0.0,0.0,0.0,0.0,0.0,0.0,0.0,0.0,0.0,0.0,0.0,0.0,0.0,0.0,0.0,0.0,0.0,0.0,0.0,0.0,0.0,0.0,0.0,0.0,0.0,0.0,0.0,0.0,0.0,0.0,0.0,0.0,0.0,0.0,0.0,0.0,0.0,0.0,0.0,0.0,0.0,0.0,0.0,0.0,0.0,0.0,0.0,0.313,0.3079,0.1928,-0.0197,-0.2697,-0.3858,0.0,0.0,0.0,0.0,0.0,0.0,0.0,0.0,0.0,0.0,0.0,0.0,0.0,0.0,0.0,0.0,0.0,0.0,0.0,0.0,0.0,0.0,0.0,0.0,0.0,0.0,0.0,0.0,0.0,0.0,0.0,0.0,0.0,0.0,0.0,0.0,0.0,0.0,0.0,0.0,0.0,0.0,0.0,0.0,0.0,0.0,0.0,0.0,0.0,0.0,0.0,0.0,0.0,0.0,0.0,0.0,0.0,0.0,0.0,0.0,0.0,0.0,0.0,0.0,0.0,0.0,0.0,0.0,0.0,0.0,0.0,0.0,0.0,0.0,0.0,0.0,0.0,0.0,0.0,0.0,0.0,0.0,0.0,0.0,0.0,0.0,0.0,0.0,0.0,0.0,0.0,0.0,0.0,0.0,0.0,0.0,0.0,0.0,0.0,0.0,0.0,0.0,0.0,0.0,0.0,0.0,0.0,0.0,0.0,0.8532,0.56,0.3604,0.2792,0.0,-0.1278,-0.1164,0.0,0.0,0.0,0.0,0.0,0.0,0.0,0.0,0.0,0.0,0.0,0.0,0.0,0.0,0.0,0.0,0.0,0.0,0.0,0.0,0.0,0.0,0.0,0.0,0.0,0.0,0.0,0.0,0.0,0.0,0.0,0.0,0.0,0.0,0.0,0.0,0.0,0.0,0.0,0.0,0.0,0.0,0.0,0.0,0.0,0.0,0.0,0.0,0.0,0.0,0.0,0.0,0.0,0.0,0.0,0.0,0.0,0.0,0.0,0.0,0.0,0.0,0.0,0.0,0.0,0.0,0.0,0.0,0.0,0.0,0.0,0.0,0.0,0.0,0.0,0.0,0.0,0.0,0.0,0.0,0.0,0.0,0.0,0.0,0.0,0.0,0.0,0.0,0.0,0.0,0.0,0.0,0.0,0.0,0.0,0.0,0.0,0.0,0.0,0.0,0.0,0.0,0.0,0.0,0.0,0.0,0.0,0.0,1.2899,0.8813,0.5989,0.5097,0.348,0.2013,0.0,0.0,0.0,0.0,0.0,0.0,0.0,0.0,0.0,0.0,0.0,0.0,0.0,0.0,0.0,0.0,0.0,0.0,0.0,0.0,0.0,0.0,0.0,0.0,0.0,0.0,0.0,0.0,0.0,0.0,0.0,0.0,0.0,0.0,0.0,0.0,0.0,0.0,0.0,0.0,0.0,0.0,0.0,0.0,0.0,0.0,0.0,0.0,0.0,0.0,0.0,0.0,0.0,0.0,0.0,0.0,0.0,0.0,0.0,0.0,0.0,0.0,0.0,0.0,0.0,0.0,0.0,0.0,0.0,0.0,0.0,0.0,0.0,0.0,0.0,0.0,0.0,0.0,0.0,0.0,0.0,0.0,0.0,0.0,0.0,0.0,0.0,0.0,0.0,0.0,0.0,0.0,0.0,0.0,0.0,0.0,0.0,0.0,0.0,0.0,0.0,0.0,0.0,0.0,0.0,0.0,0.0,0.0,2.1271,1.6109,1.2851,0.9859,0.7036,0.7459,0.6464,0.0,0.0,0.0,0.0,0.0,0.0,0.0,0.0,0.0,0.0,0.0,0.0,0.0,0.0,0.0,0.0,0.0,0.0,0.0,0.0,0.0,0.0,0.0,0.0,0.0,0.0,0.0,0.0,0.0,0.0,0.0,0.0,0.0,0.0,0.0,0.0,0.0,0.0,0.0,0.0,0.0,0.0,0.0,0.0,0.0,0.0,0.0,0.0,0.0,0.0,0.0,0.0,0.0,0.0,0.0,0.0,0.0,0.0,0.0,0.0,0.0,0.0,0.0,0.0,0.0,0.0,0.0,0.0,0.0,0.0,0.0,0.0,0.0,0.0,0.0,0.0,0.0,0.0,0.0,0.0,0.0,0.0,0.0,0.0,0.0,0.0,0.0,0.0,0.0,0.0,0.0,0.0,0.0,0.0,0.0,0.0,0.0,0.0,0.0,0.0,0.0,0.0,0.0,0.0,0.0,0.0,0.0,0.0,0.0,2.1643,0.0,1.3558,0.0,0.7118,0.4765,0.0,0.0,0.0,0.0,0.0,0.0,0.0,0.0,0.0,0.0,0.0,0.0,0.0,0.0,0.0,0.0,0.0,0.0,0.0,0.0,0.0,0.0,0.0,0.0,0.0,0.0,0.0,0.0,0.0,0.0,0.0,0.0,0.0,0.0,0.0,0.0,0.0,0.0,0.0,0.0,0.0,0.0,0.0,0.0,0.0,0.0,0.0,0.0,0.0,0.0,0.0,0.0,0.0,0.0,0.0,0.0,0.0,0.0,0.0,0.0,0.0,0.0,0.0,0.0,0.0,0.0,0.0,0.0,0.0,0.0,0.0,0.0,0.0,0.0,0.0,0.0,0.0,0.0,0.0,0.0,0.0,0.0,0.0,0.0,0.0,0.0,0.0,0.0,0.0,0.0,0.0,0.0,0.0,0.0,0.0,0.0,0.0,0.0,0.0,0.0,0.0,0.0,0.0,0.0,0.0,0.0,0.0,0.0,0.0,2.4475,2.0932,1.7031,1.256,0.865,0.5855,0.0,0.0,0.0,0.0,0.0,0.0,0.0,0.0,0.0,0.0,0.0,0.0,0.0,0.0,0.0,0.0,0.0,0.0,0.0,0.0,0.0,0.0,0.0,0.0,0.0,0.0,0.0,0.0,0.0,0.0,0.0,0.0,0.0,0.0,0.0,0.0,0.0,0.0,0.0,0.0,0.0,0.0,0.0,0.0,0.0,0.0,0.0,0.0,0.0,0.0,0.0,0.0,0.0,0.0,0.0,0.0,0.0,0.0,0.0,0.0,0.0,0.0,0.0,0.0,0.0,0.0,0.0,0.0,0.0,0.0,0.0,0.0,0.0,0.0,0.0,0.0,0.0,0.0,0.0,0.0,0.0,0.0,0.0,0.0,0.0,0.0,0.0,0.0,0.0,0.0,0.0,0.0,0.0,0.0,0.0,0.0,0.0,0.0,0.0,0.0,0.0,0.0,0.0,0.0,0.0,0.0,0.0,0.0,0.0,0.0,2.4332,2.0027,1.1942,1.1717,0.9123,0.0,0.0,0.0,0.0,0.0,0.0,0.0,0.0,0.0,0.0,0.0,0.0,0.0,0.0,0.0,0.0,0.0,0.0,0.0,0.0,0.0,0.0,0.0,0.0,0.0,0.0,0.0,0.0,0.0,0.0,0.0,0.0,0.0,0.0,0.0,0.0,0.0,0.0,0.0,0.0,0.0,0.0,0.0,0.0,0.0,0.0,0.0,0.0,0.0,0.0,0.0,0.0,0.0,0.0,0.0,0.0,0.0,0.0,0.0,0.0,0.0,0.0,0.0,0.0,0.0,0.0,0.0,0.0,0.0,0.0,0.0,0.0,0.0,0.0,0.0,0.0,0.0,0.0,0.0,0.0,0.0,0.0,0.0,0.0,0.0,0.0,0.0,0.0,0.0,0.0,0.0,0.0,0.0,0.0,0.0,0.0,0.0,0.0,0.0,0.0,0.0,0.0,0.0,0.0,0.0,0.0,0.0,0.0,0.0,0.0,2.5487,2.057,1.4794,0.8896,0.4714,0.2027,0.0,0.0,0.0,0.0,0.0,0.0,0.0,0.0,0.0,0.0,0.0,0.0,0.0,0.0,0.0,0.0,0.0,0.0,0.0,0.0,0.0,0.0,0.0,0.0,0.0,0.0,0.0,0.0,0.0,0.0,0.0,0.0,0.0,0.0,0.0,0.0,0.0,0.0,0.0,0.0,0.0,0.0,0.0,0.0,0.0,0.0,0.0,0.0,0.0,0.0,0.0,0.0,0.0,0.0,0.0,0.0,0.0,0.0,0.0,0.0,0.0,0.0,0.0,0.0,0.0,0.0,0.0,0.0,0.0,0.0,0.0,0.0,0.0,0.0,0.0,0.0,0.0,0.0,0.0,0.0,0.0,0.0,0.0,0.0,0.0,0.0,0.0,0.0,0.0,0.0,0.0,0.0,0.0,0.0,0.0,0.0,0.0,0.0,0.0,0.0,0.0,0.0,0.0,0.0,0.0,0.0,0.0,0.0,0.0,0.0,1.9417,1.5163,0.7739,0.2415,0.0,0.0,0.0,0.0,0.0,0.0,0.0,0.0,0.0,0.0,0.0,0.0,0.0,0.0,0.0,0.0,0.0,0.0,0.0,0.0,0.0,0.0,0.0,0.0,0.0,0.0,0.0,0.0,0.0,0.0,0.0,0.0,0.0,0.0,0.0,0.0,0.0,0.0,0.0,0.0,0.0,0.0,0.0,0.0,0.0,0.0,0.0,0.0,0.0,0.0,0.0,0.0,0.0,0.0,0.0,0.0,0.0,0.0,0.0,0.0,0.0,0.0,0.0,0.0,0.0,0.0,0.0,0.0,0.0,0.0,0.0,0.0,0.0,0.0,0.0,0.0,0.0,0.0,0.0,0.0,0.0,0.0,0.0,0.0,0.0,0.0,0.0,0.0,0.0,0.0,0.0,0.0,0.0,0.0,0.0,0.0,0.0,0.0,0.0,0.0,0.0,0.0,0.0,0.0,0.0,0.0,0.0,0.0,0.0,0.0,0.0,1.6998,1.3274,0.7502,0.0,-0.2412,0.0,0.0,0.0,0.0,0.0,0.0,0.0,0.0,0.0,0.0,0.0,0.0,0.0,0.0,0.0,0.0,0.0,0.0,0.0,0.0,0.0,0.0,0.0,0.0,0.0,0.0,0.0,0.0,0.0,0.0,0.0,0.0,0.0,0.0,0.0,0.0,0.0,0.0,0.0,0.0,0.0,0.0,0.0,0.0,0.0,0.0,0.0,0.0,0.0,0.0,0.0,0.0,0.0,0.0,0.0,0.0,0.0,0.0,0.0,0.0,0.0,0.0,0.0,0.0,0.0,0.0,0.0,0.0,0.0,0.0,0.0,0.0,0.0,0.0,0.0,0.0,0.0,0.0,0.0,0.0,0.0,0.0,0.0,0.0,0.0,0.0,0.0,0.0,0.0,0.0,0.0,0.0,0.0,0.0,0.0,0.0,0.0,0.0,0.0,0.0,0.0,0.0,0.0,0.0,0.0,0.0,0.0,0.0,0.0,0.0,0.0,0.0,0.5999,0.2699,-0.0511,0.0,0.0,0.0,0.0,0.0,0.0,0.0,0.0,0.0,0.0,0.0,0.0,0.0,0.0,0.0,0.0,0.0,0.0,0.0,0.0,0.0,0.0,0.0,0.0,0.0,0.0,0.0,0.0,0.0,0.0,0.0,0.0,0.0,0.0,0.0,0.0,0.0,0.0,0.0,0.0,0.0,0.0,0.0,0.0,0.0,0.0,0.0,0.0,0.0,0.0,0.0,0.0,0.0,0.0,0.0,0.0,0.0,0.0,0.0,0.0,0.0,0.0,0.0,0.0,0.0,0.0,0.0,0.0,0.0,0.0,0.0,0.0,0.0,0.0,0.0,0.0,0.0,0.0,0.0,0.0,0.0,0.0,0.0,0.0,0.0,0.0,0.0,0.0,0.0,0.0,0.0,0.0,0.0,0.0,0.0,0.0,0.0,0.0,0.0,0.0,0.0,0.0,0.0,0.0,0.0,0.0,0.0,0.0,0.0,0.0,1.5754,0.9248,0.4743,0.1526,0.0,0.0,0.0,0.0,0.0,0.0,0.0,0.0,0.0,0.0,0.0,0.0,0.0,0.0,0.0,0.0,0.0,0.0,0.0,0.0,0.0,0.0,0.0,0.0,0.0,0.0,0.0,0.0,0.0,0.0,0.0,0.0,0.0,0.0,0.0,0.0,0.0,0.0,0.0,0.0,0.0,0.0,0.0,0.0,0.0,0.0,0.0,0.0,0.0,0.0,0.0,0.0,0.0,0.0,0.0,0.0,0.0,0.0,0.0,0.0,0.0,0.0,0.0,0.0,0.0,0.0,0.0,0.0,0.0,0.0,0.0,0.0,0.0,0.0,0.0,0.0,0.0,0.0,0.0,0.0,0.0,0.0,0.0,0.0,0.0,0.0,0.0,0.0,0.0,0.0,0.0,0.0,0.0,0.0,0.0,0.0,0.0,0.0,0.0,0.0,0.0,0.0,0.0,0.0,0.0,0.0,0.0,0.0,0.0,0.0,0.0,0.0,0.0,0.0,0.0,0.0504,0.0,0.0,0.0,0.0,0.0,0.0,0.0,0.0,0.0,0.0,0.0,0.0,0.0,0.0,0.0,0.0,0.0,0.0,0.0,0.0,0.0,0.0,0.0,0.0,0.0,0.0,0.0,0.0,0.0,0.0,0.0,0.0,0.0,0.0,0.0,0.0,0.0,0.0,0.0,0.0,0.0,0.0,0.0,0.0,0.0,0.0,0.0,0.0,0.0,0.0,0.0,0.0,0.0,0.0,0.0,0.0,0.0,0.0,0.0,0.0,0.0,0.0,0.0,0.0,0.0,0.0,0.0,0.0,0.0,0.0,0.0,0.0,0.0,0.0,0.0,0.0,0.0,0.0,0.0,0.0,0.0,0.0,0.0,0.0,0.0,0.0,0.0,0.0,0.0,0.0,0.0,0.0,0.0,0.0,0.0,0.0,0.0,0.0,0.0,0.0,0.0,0.0,0.0,0.0,0.0,0.0,0.0,0.0,0.0,0.0,0.0,0.0,0.0,0.0,0.0,0.0,0.0,0.0,0.0,0.0,0.0,0.0,0.0,0.0,0.0,0.0,0.0,0.0,0.0,0.0,0.0,0.0,0.0,0.0,0.0,0.0,0.0,0.0,0.0,0.0,0.0,0.0,0.0,0.0,0.0,0.0,0.0,0.0,0.0,0.0,0.0,0.0,0.0,0.0,0.0,0.0,0.0,0.0,0.0,0.0,0.0,0.0,0.0,0.0,0.0,0.0,0.0,0.0,0.0,0.0,0.0,0.0,0.0,0.0,0.0,0.0,0.0,0.0,0.0,0.0,0.0,0.0,0.0,0.0,0.0,0.0,0.0,0.0,0.0,0.0,0.0,0.0,0.0,0.0,0.0,0.0,0.0,0.0,0.0,0.0,0.0,0.0,0.0,0.0,0.0,0.0,0.0,0.0,0.0,0.0,0.0,0.0,0.0,0.0,0.0,0.0,0.0,0.0,0.0,0.0,0.0,0.0,0.0,0.0,0.0,0.0,0.0,0.0,0.0,0.0,0.0,0.0,0.0,0.0,0.0,0.0,0.0,0.0,0.0,0.0,0.0,0.0,0.0,0.0,0.0,0.0,0.0,0.0,0.0,0.0,0.0,0.0,0.0,0.0,0.0,0.0,0.0,0.0,0.0,0.0,0.0,0.0,0.0,0.0,0.0,0.0,0.0,0.0,0.0,0.0,0.0,0.0,0.0,0.0,0.0,0.0,0.0,0.0,0.0,0.0,0.0,0.0,0.0,0.0,0.0,0.0,0.0,0.0,0.0,0.0,0.0,0.0,0.0,0.0,0.0,0.0,0.0,0.0,0.0,0.0,0.0,0.0,0.0,0.0,0.0,0.0,0.0,0.0,0.0,0.0,0.0,0.0,0.0,0.0,0.0,0.0,0.0,0.0,0.0,0.0,0.0,0.0,0.0,0.0,0.0,0.0,0.0,0.0,0.0,0.0,0.0,0.0,0.0,0.0,0.0,0.0,0.0,0.0,0.0,0.0,0.0,0.0,0.0,0.0,0.0,0.0,0.0,0.0,0.0,0.0,0.0,0.0,0.0,0.0,0.0,0.0,0.0,0.0,0.0,0.0,0.0,0.0,0.0,0.0,0.0,0.0,0.0,0.0,0.0,0.0,0.0,0.0,0.0,0.0,0.0,0.0,0.0,0.0,0.0,0.0,0.0,0.0,0.0,0.0,0.0,0.0,0.0,0.0,0.0,0.0,0.0,0.0,0.0,0.0,0.0,0.0,0.0,0.0,0.0,0.0,0.0,0.0,0.0,0.0,0.0,0.0,0.0,0.0,0.0,0.0,0.0,0.0,0.0,0.0,0.0,0.0,0.0,0.0,0.0,0.0,0.0,0.0,0.0,0.0,0.0,0.0,0.0,0.0,0.0,0.0,0.0,0.0,0.0,0.0,0.0,0.0,0.0,0.0,0.0,0.0,0.0,0.0,0.0,0.0,0.0,0.0,0.0,0.0,0.0,0.0,0.0,0.0,0.0,0.0,0.0,0.0,0.0,0.0,0.0,0.0,0.0,0.0,0.0,0.0,0.0,0.0,0.0,0.0,0.0,0.0,0.0,0.0,0.0,0.0,0.0,0.0,0.0,0.0,0.0,0.0,0.0,0.0,0.0,0.0,0.0,0.0,0.0,0.0,0.0,0.0,0.0,0.0,0.0,0.0,0.0,0.0,0.0,0.0,0.0,0.0,0.0,0.0,0.0,0.0,0.0,0.0,0.0,0.0,0.0,0.0,0.0,0.0,0.0,0.0,0.0,0.0,0.0,0.0,0.0,0.0,0.0,0.0,0.0,0.0,0.0,0.0,0.0,0.0,0.0,0.0,0.0,0.0,0.0,0.0,0.0,0.0,0.0,0.0,0.0,0.0,0.0,0.0,0.0,0.0,0.0,0.0,0.0,0.0,0.0,0.0,0.0,0.0,0.0,0.0,0.0,0.0,0.0,0.0,0.0,0.0,0.0,0.0,0.0,0.0,0.0,0.0,0.0,0.0,0.0,0.0,0.0,0.0,0.0,0.0,0.0,0.0,0.0,0.0,0.0,0.0,0.0,0.0,0.0,0.0,0.0,0.0,0.0,0.0,0.0,0.0,0.0,0.0,0.0,0.0,0.0,0.0,0.0,0.0,0.0,0.0,0.0,0.0,0.0,0.0,0.0,0.0,0.0,0.0,0.0,0.0,0.0,0.0,0.0,0.0,0.0,0.0,0.0,0.0,0.0,0.0,0.0,0.0,0.0,0.0,0.0,0.0,0.0,0.0,0.0,0.0,0.0,0.0,0.0,0.0,0.0,0.0,0.0,0.0,0.0,0.0,0.0,0.0,0.0,0.0,0.0,0.0,0.0,0.0,0.0,0.0,0.0,0.0,0.0,0.0,0.0,0.0,0.0,0.0,0.0,0.0,0.0,0.0,0.0,0.0,0.0,0.0,0.0,0.0,0.0,0.0,0.0,0.0,0.0,0.0,0.0,0.0,0.0,0.0,0.0,0.0,0.0,0.0,0.0,0.0,0.0,0.0,0.0,0.0,0.0,0.0,0.0,0.0,0.0,0.0,0.0,0.0,0.0,0.0,0.0,0.0,0.0,0.0,0.0,0.0,0.0,0.0,0.0,0.0,0.0,0.0,0.0,0.0,0.0,0.0,0.0,0.0,0.0,0.0,0.0,0.0,0.0,0.0,0.0,0.0,0.0,0.0,0.0,0.0,0.0,0.0,0.0,0.0,0.0,0.0,0.0,0.0,0.0,0.0,0.0,0.0,0.0,0.0,0.0,0.0,0.0,0.0,0.0,0.0,0.0,0.0,0.0,0.0,0.0,0.0,0.0,0.0,0.0,0.0,0.0,0.0,0.0,0.0,0.0,0.0,0.0,0.0,0.0,0.0,0.0,0.0,0.0,0.0,0.0,0.0,0.0,0.0,0.0,0.0,0.0,0.0,0.0,0.0,0.0,0.0,0.0,0.0,0.0,0.0,0.0,0.0,0.0,0.0,0.0,0.0,0.0,0.0,0.0,0.0,0.0,0.0,0.0,0.0,0.0,0.0,0.0,0.0,0.0,0.0,0.0,0.0,0.0,0.0,0.0,0.0,0.0,0.0,0.0,0.0,0.0,0.0,0.0,0.0,0.0,0.0,0.0,0.0,0.0,0.0,0.0,0.0,0.0,0.0,0.0,0.0,0.0,0.0,0.0,0.0,0.0,0.0,0.0,0.0,0.0,0.0,0.0,0.0,0.0,0.0,0.0,0.0,0.0,0.0,0.0,0.0,0.0,0.0,0.0,0.0,0.0,0.0,0.0,0.0,0.0,0.0,0.0,0.0,0.0,0.0,0.0,0.0,0.0,0.0,0.0,0.0,0.0,0.0,0.0,0.0,0.0,0.0,0.0,0.0,0.0,0.0,0.0,0.0,0.0,0.0,0.0,0.0,0.0,0.0,0.0,0.0,0.0,0.0,0.0,0.0,0.0,0.0,0.0,0.0,0.0,0.0,0.0,0.0,0.0,0.0,0.0,0.0,0.0,0.0,0.0,0.0,0.0,0.0,0.0,0.0,0.0,0.0,0.0,0.0,0.0,0.0,0.0,0.0,0.0,0.0,0.0,0.0,0.0,0.0,0.0,0.0,0.0,0.0,0.0,0.0,0.0,0.0,0.0,0.0,0.0,0.0,0.0,0.0,0.0,0.0,0.0,0.0,0.0,0.0,0.0,0.0,0.0,0.0,0.0,0.0,0.0,0.0,0.0,0.0,0.0,0.0,0.0,0.0,0.0,0.0,0.0,0.0,0.0,0.0,0.0,0.0,0.0,0.0,0.0,0.0,0.0,0.0,0.0,0.0,0.0,0.0,0.0,0.0,0.0,0.0]}]]]